[[{"header":{"parameterUnit":"m.s-1","parameterCategory":1,"la1":30.6,"la2":28.766,"lo1":-90.7593,"lo2":-88.6598,"dy":0.0162,"dx":0.0183,"nx":116,"ny":114,"refTime":"2024-02-17T18:00:00:Z","depth":0,"parameterNumber":2,"parameterNumberName":"U-component_of_WINDS"},"data":[0.0,0.0,0.0,0.0,0.0,0.0,0.0,0.0,0.0,0.0,0.0,0.0,0.0,0.0,0.0,0.0,0.0,0.0,0.0,0.0,0.0,0.0,0.0,0.0,0.0,0.0,0.0,0.0,0.0,0.0,0.0,0.0,0.0,0.0,0.0,0.0,0.0,0.0,0.0,0.0,0.0,0.0,0.0,0.0,0.0,0.0,0.0,0.0,0.0,0.0,0.0,0.0,0.0,0.0,0.0,0.0,0.0,0.0,0.0,0.0,0.0,0.0,0.0,0.0,0.0,0.0,0.0,0.0,0.0,0.0,0.0,0.0,0.0,0.0,0.0,0.0,0.0,0.0,0.0,0.0,0.0,0.0,0.0,0.0,0.0,0.0,0.0,0.0,0.0,0.0,0.0,0.0,0.0,0.0,0.0,0.0,0.0,0.0,0.0,0.0,0.0,0.0,0.0,0.0,0.0,0.0,0.0,0.0,0.0,0.0,0.0,0.0,0.0,0.0,0.0,0.0,0.0,0.0,0.0,0.0,0.0,0.0,0.0,0.0,0.0,0.0,0.0,0.0,0.0,0.0,0.0,0.0,0.0,0.0,0.0,0.0,0.0,0.0,0.0,0.0,0.0,0.0,0.0,0.0,0.0,0.0,0.0,0.0,0.0,0.0,0.0,0.0,0.0,0.0,0.0,0.0,0.0,0.0,0.0,0.0,0.0,0.0,0.0,0.0,0.0,0.0,0.0,0.0,0.0,0.0,0.0,0.0,0.0,0.0,0.0,0.0,0.0,0.0,0.0,0.0,0.0,0.0,0.0,0.0,0.0,0.0,0.0,0.0,0.0,0.0,0.0,0.0,0.0,0.0,0.0,0.0,0.0,0.0,0.0,0.0,0.0,0.0,0.0,0.0,0.0,0.0,0.0,0.0,0.0,0.0,0.0,0.0,0.0,0.0,0.0,0.0,0.0,0.0,0.0,0.0,0.0,0.0,0.0,0.0,0.0,0.0,0.0,0.0,0.0,0.0,0.0,0.0,0.0,0.0,0.0,0.0,0.0,0.0,0.0,0.0,0.0,0.0,0.0,0.0,0.0,0.0,0.0,0.0,0.0,0.0,0.0,0.0,0.0,0.0,0.0,0.0,0.0,0.0,0.0,0.0,0.0,0.0,0.0,0.0,0.0,0.0,0.0,0.0,0.0,0.0,0.0,0.0,0.0,0.0,0.0,0.0,0.0,0.0,0.0,0.0,0.0,0.0,0.0,0.0,0.0,0.0,0.0,0.0,0.0,0.0,0.0,0.0,0.0,0.0,0.0,0.0,0.0,0.0,0.0,0.0,0.0,0.0,0.0,0.0,0.0,0.0,0.0,0.0,0.0,0.0,0.0,0.0,0.0,0.0,0.0,0.0,0.0,0.0,0.0,0.0,0.0,0.0,0.0,0.0,0.0,0.0,0.0,0.0,0.0,0.0,0.0,0.0,0.0,0.0,0.0,0.0,0.0,0.0,0.0,0.0,0.0,0.0,0.0,0.0,0.0,0.0,0.0,0.0,0.0,0.0,0.0,0.0,0.0,0.0,0.0,0.0,0.0,0.0,0.0,0.0,0.0,0.0,0.0,0.0,0.0,0.0,0.0,0.0,0.0,0.0,0.0,0.0,0.0,0.0,0.0,0.0,0.0,0.0,0.0,0.0,0.0,0.0,0.0,0.0,0.0,0.0,0.0,0.0,0.0,0.0,0.0,0.0,0.0,0.0,0.0,0.0,0.0,0.0,0.0,0.0,0.0,0.0,0.0,0.0,0.0,0.0,0.0,0.0,0.0,0.0,0.0,0.0,0.0,0.0,0.0,0.0,0.0,0.0,0.0,0.0,0.0,0.0,0.0,0.0,0.0,0.0,0.0,0.0,0.0,0.0,0.0,0.0,0.0,0.0,0.0,0.0,0.0,0.0,0.0,0.0,0.0,0.0,0.0,0.0,0.0,0.0,0.0,0.0,0.0,0.0,0.0,0.0,0.0,0.0,0.0,0.0,0.0,0.0,0.0,0.0,0.0,0.0,0.0,0.0,0.0,0.0,0.0,0.0,0.0,0.0,0.0,0.0,0.0,0.0,0.0,0.0,0.0,0.0,0.0,0.0,0.0,0.0,0.0,0.0,0.0,0.0,0.0,0.0,0.0,0.0,0.0,0.0,0.0,0.0,0.0,0.0,0.0,0.0,0.0,0.0,0.0,0.0,0.0,0.0,0.0,0.0,0.0,0.0,0.0,0.0,0.0,0.0,0.0,0.0,0.0,0.0,0.0,0.0,0.0,0.0,0.0,0.0,0.0,0.0,0.0,0.0,0.0,0.0,0.0,0.0,0.0,0.0,0.0,0.0,0.0,0.0,0.0,0.0,0.0,0.0,0.0,0.0,0.0,0.0,0.0,0.0,0.0,0.0,0.0,0.0,0.0,0.0,0.0,0.0,0.0,0.0,0.0,0.0,0.0,0.0,0.0,0.0,0.0,0.0,0.0,0.0,0.0,0.0,0.0,0.0,0.0,0.0,0.0,0.0,0.0,0.0,0.0,0.0,0.0,0.0,0.0,0.0,0.0,0.0,0.0,0.0,0.0,0.0,0.0,0.0,0.0,0.0,0.0,0.0,0.0,0.0,0.0,0.0,0.0,0.0,0.0,0.0,0.0,0.0,0.0,0.0,0.0,0.0,0.0,0.0,0.0,0.0,0.0,0.0,0.0,0.0,0.0,0.0,0.0,0.0,0.0,0.0,0.0,0.0,0.0,0.0,0.0,0.0,0.0,0.0,0.0,0.0,0.0,0.0,0.0,0.0,0.0,0.0,0.0,0.0,0.0,0.0,0.0,0.0,0.0,0.0,0.0,0.0,0.0,0.0,0.0,0.0,0.0,0.0,0.0,0.0,0.0,0.0,0.0,0.0,0.0,0.0,0.0,0.0,0.0,0.0,0.0,0.0,0.0,0.0,0.0,0.0,0.0,0.0,0.0,0.0,0.0,0.0,0.0,0.0,0.0,0.0,0.0,0.0,0.0,0.0,0.0,0.0,0.0,0.0,0.0,0.0,0.0,0.0,0.0,0.0,0.0,0.0,0.0,0.0,0.0,0.0,0.0,0.0,0.0,0.0,0.0,0.0,0.0,0.0,0.0,0.0,0.0,0.0,0.0,0.0,0.0,0.0,0.0,0.0,0.0,0.0,0.0,0.0,0.0,0.0,0.0,0.0,0.0,0.0,0.0,0.0,0.0,0.0,0.0,0.0,0.0,0.0,0.0,0.0,0.0,0.0,0.0,0.0,0.0,0.0,0.0,0.0,0.0,0.0,0.0,0.0,0.0,0.0,0.0,0.0,0.0,0.0,0.0,0.0,0.0,0.0,0.0,0.0,0.0,0.0,0.0,0.0,0.0,0.0,0.0,0.0,0.0,0.0,0.0,0.0,0.0,0.0,0.0,0.0,0.0,0.0,0.0,0.0,0.0,0.0,0.0,0.0,0.0,0.0,0.0,0.0,0.0,0.0,0.0,0.0,0.0,0.0,0.0,0.0,0.0,0.0,0.0,0.0,0.0,0.0,0.0,0.0,0.0,0.0,0.0,0.0,0.0,0.0,0.0,0.0,0.0,0.0,0.0,0.0,0.0,0.0,0.0,0.0,0.0,0.0,0.0,0.0,0.0,0.0,0.0,0.0,0.0,0.0,0.0,0.0,0.0,0.0,0.0,0.0,0.0,0.0,0.0,0.0,0.0,0.0,0.0,0.0,0.0,0.0,0.0,0.0,0.0,0.0,0.0,0.0,0.0,0.0,0.0,0.0,0.0,0.0,0.0,0.0,0.0,0.0,0.0,0.0,0.0,0.0,0.0,0.0,0.0,0.0,0.0,0.0,0.0,0.0,0.0,0.0,0.0,0.0,0.0,0.0,0.0,0.0,0.0,0.0,0.0,0.0,0.0,0.0,0.0,0.0,0.0,0.0,0.0,0.0,0.0,0.0,0.0,0.0,0.0,0.0,0.0,0.0,0.0,0.0,0.0,0.0,0.0,0.0,0.0,0.0,0.0,0.0,0.0,0.0,0.0,0.0,0.0,0.0,0.0,0.0,0.0,0.0,0.0,0.0,0.0,0.0,0.0,0.0,0.0,0.0,0.0,0.0,0.0,0.0,0.0,0.0,0.0,0.0,0.0,0.0,0.0,0.0,0.0,0.0,0.0,0.0,0.0,0.0,0.0,0.0,0.0,0.0,0.0,0.0,0.0,0.0,0.0,0.0,0.0,0.0,0.0,0.0,0.0,0.0,0.0,0.0,0.0,0.0,0.0,0.0,0.0,0.0,0.0,0.0,0.0,0.0,0.0,0.0,0.0,0.0,0.0,0.0,0.0,0.0,0.0,0.0,0.0,0.0,0.0,0.0,0.0,0.0,0.0,0.0,0.0,0.0,0.0,0.0,0.0,0.0,0.0,0.0,0.0,0.0,0.0,0.0,0.0,0.0,0.0,0.0,0.0,0.0,0.0,0.0,0.0,0.0,0.0,0.0,0.0,0.0,0.0,0.0,0.0,0.0,0.0,0.0,0.0,0.0,0.0,0.0,0.0,0.0,0.0,0.0,0.0,0.0,0.0,0.0,0.0,0.0,0.0,0.0,0.0,0.0,0.0,0.0,0.0,0.0,0.0,0.0,0.0,0.0,0.0,0.0,0.0,0.0,0.0,0.0,0.0,0.0,0.0,0.0,0.0,0.0,0.0,0.0,0.0,0.0,0.0,0.0,0.0,0.0,0.0,0.0,0.0,0.0,0.0,0.0,0.0,0.0,0.0,0.0,0.0,0.0,0.0,0.0,0.0,0.0,0.0,0.0,0.0,0.0,0.0,0.0,0.0,0.0,0.0,0.0,0.0,0.0,0.0,0.0,0.0,0.0,0.0,0.0,0.0,0.0,0.0,0.0,0.0,0.0,0.0,0.0,0.0,0.0,0.0,0.0,0.0,0.0,0.0,0.0,0.0,0.0,0.0,0.0,0.0,0.0,0.0,0.0,0.0,0.0,0.0,0.0,0.0,0.0,0.0,0.0,0.0,0.0,0.0,0.0,0.0,0.0,0.0,0.0,0.0,0.0,0.0,0.0,0.0,0.0,0.0,0.0,0.0,0.0,0.0,0.0,0.0,0.0,0.0,0.0,0.0,0.0,0.0,0.0,0.0,0.0,0.0,0.0,0.0,0.0,0.0,0.0,0.0,0.0,0.0,0.0,0.0,0.0,0.0,0.0,0.0,0.0,0.0,0.0,0.0,0.0,0.0,0.0,0.0,0.0,0.0,0.0,0.0,0.0,0.0,0.0,0.0,0.0,0.0,0.0,0.0,0.0,0.0,0.0,0.0,0.0,0.0,0.0,0.0,0.0,0.0,0.0,0.0,0.0,0.0,0.0,0.0,0.0,0.0,0.0,0.0,0.0,0.0,0.0,0.0,0.0,0.0,0.0,0.0,0.0,0.0,0.0,0.0,0.0,0.0,0.0,0.0,0.0,0.0,0.0,0.0,0.0,0.0,0.0,0.0,0.0,0.0,0.0,0.0,0.0,0.0,0.0,0.0,0.0,0.0,0.0,0.0,0.0,0.0,0.0,0.0,0.0,0.0,0.0,0.0,0.0,0.0,0.0,0.0,0.0,0.0,0.0,0.0,0.0,0.0,0.0,0.0,0.0,0.0,0.0,0.0,0.0,0.0,0.0,0.0,0.0,0.0,0.0,0.0,0.0,0.0,0.0,0.0,0.0,0.0,0.0,0.0,0.0,0.0,0.0,0.0,0.0,0.0,0.0,0.0,0.0,0.0,0.0,0.0,0.0,0.0,0.0,0.0,0.0,0.0,0.0,0.0,0.0,0.0,0.0,0.0,0.0,0.0,0.0,0.0,0.0,0.0,0.0,0.0,0.0,0.0,0.0,0.0,0.0,0.0,0.0,0.0,0.0,0.0,0.0,0.0,0.0,0.0,0.0,0.0,0.0,0.0,0.0,0.0,0.0,0.0,0.0,0.0,0.0,0.0,0.0,0.0,0.0,0.0,0.0,0.0,0.0,0.0,0.0,0.0,0.0,0.0,0.0,0.0,0.0,0.0,0.0,0.0,0.0,2.1287,0.0,0.0,0.0,0.0,0.0,0.0,0.0,0.0,0.0,0.0,0.0,0.0,0.0,0.0,0.0,0.0,0.0,0.0,0.0,0.0,0.0,0.0,0.0,0.0,0.0,0.0,0.0,0.0,0.0,0.0,0.0,0.0,0.0,0.0,0.0,-2.0489,-2.1015,-2.1579,-2.223,-2.4006,-2.5465,-2.6619,-2.6399,-2.49,-2.2402,0.0,0.0,0.0,0.0,0.0,0.0,0.0,0.0,0.0,0.0,0.0,0.0,0.0,0.0,0.0,0.0,0.0,0.0,0.0,0.0,0.0,0.0,0.0,0.0,0.0,0.0,0.0,0.0,0.0,0.0,0.0,0.0,0.0,0.0,0.0,0.0,0.0,0.0,0.0,0.0,0.0,0.0,0.0,0.0,0.0,0.0,0.0,0.0,0.0,0.0,0.0,0.0,0.0,0.0,0.0,0.0,0.0,0.0,0.0,0.0,0.0,0.0,0.0,0.0,0.0,0.0,0.0,0.0,0.0,0.0,0.0,1.9363,0.0,0.0,0.0,0.0,0.0,0.0,0.0,0.0,0.0,0.0,0.0,0.0,0.0,0.0,0.0,0.0,0.0,0.0,0.0,0.0,0.0,0.0,0.0,-1.1097,-1.222,-1.4132,-1.5568,-1.6819,-1.7814,-1.8539,-1.9222,-1.9767,-2.0491,-2.118,-2.1859,-2.2659,-2.3369,-2.3929,-2.6097,-2.8096,-2.9832,-2.9051,-2.6578,-2.2768,-2.2597,0.0,0.0,0.0,0.0,0.0,0.0,0.0,0.0,0.0,0.0,0.0,0.0,0.0,0.0,0.0,0.0,0.0,0.0,0.0,0.0,0.0,0.0,0.0,0.0,0.0,0.0,0.0,0.0,0.0,0.0,0.0,0.0,0.0,0.0,0.0,0.0,0.0,0.0,0.0,0.0,0.0,0.0,0.0,0.0,0.0,0.0,0.0,0.0,0.0,0.0,0.0,0.0,0.0,0.0,0.0,0.0,0.0,0.0,0.0,0.0,0.0,0.0,0.0,-0.5297,-0.4789,-0.4189,-0.3797,-0.2853,-0.102,0.7313,1.2599,1.5562,1.9784,0.0,0.0,0.0,0.0,0.0,0.0,0.0,0.0,0.0,0.0,0.0,0.0,0.0,0.0,0.0,0.0,0.0,0.0,0.0,0.0,0.0,-1.0654,-1.2083,-1.4116,-1.5802,-1.6903,-1.7288,-1.8013,-1.8447,-1.8525,-1.9387,-1.9982,-2.0216,-2.1345,-2.259,-2.3986,-2.6091,-2.7864,-2.927,-2.7515,-2.6666,-2.6651,-2.6344,0.0,0.0,0.0,0.0,0.0,0.0,0.0,0.0,0.0,0.0,0.0,0.0,0.0,0.0,0.0,0.0,0.0,0.0,0.0,0.0,0.0,0.0,0.0,0.0,0.0,0.0,0.0,0.0,0.0,0.0,0.0,0.0,0.0,0.0,0.0,0.0,0.0,0.0,0.0,0.0,0.0,0.0,0.0,-0.9421,-0.7116,0.0,0.0,0.0,0.0,0.0,0.0,0.0,0.0,0.0,0.0,0.0,0.0,0.0,-0.7603,-0.7741,-0.7336,-0.7214,-0.7298,-0.7258,-0.6931,-0.627,-0.5747,-0.4826,-0.3413,-0.1477,0.0,0.9132,1.6341,0.0,0.0,0.0,0.0,0.0,0.0,0.0,0.0,0.0,0.0,0.0,0.0,0.0,0.0,0.0,0.0,0.0,0.0,0.0,0.0,0.0,-1.1636,-1.3283,-1.4651,-1.6267,-1.726,-1.735,-1.7488,-1.7587,-1.7585,-1.8261,-1.8815,-1.9173,-2.0872,-2.3141,-2.597,-2.6649,-2.8021,-2.9945,-2.8799,-2.8602,-2.9182,-2.8645,-2.6903,-2.4271,-2.3027,0.0,0.0,0.0,0.0,0.0,0.0,0.0,0.0,0.0,0.0,0.0,0.0,0.0,0.0,0.0,0.0,0.0,0.0,0.0,0.0,0.0,0.0,0.0,0.0,0.0,0.0,0.0,0.0,0.0,0.0,0.0,0.0,0.0,0.0,0.0,0.0,0.0,0.0,0.0,-1.0847,-1.0146,-0.8958,-0.8559,-0.8252,0.0,0.0,0.0,0.0,0.0,0.0,0.0,0.0,0.0,-0.9667,-0.9288,-0.9218,-0.9422,-0.8772,-0.8425,-0.8351,-0.8097,-0.7634,-0.7156,-0.6827,-0.5924,-0.4753,-0.4253,-0.2346,0.1063,0.8636,1.0624,0.9305,0.0,0.0,0.0,0.0,2.2254,2.6822,0.0,0.0,0.0,0.0,0.0,0.0,0.0,0.0,0.0,0.0,0.0,0.0,-1.0254,-1.255,-1.4294,-1.4938,-1.6512,-1.7264,-1.6853,-1.6901,-1.6766,-1.6344,-1.7149,-1.7712,-1.8033,-2.0415,-2.3212,-2.6278,-2.6516,-2.7621,-2.9515,-2.9115,-2.9185,-2.9665,-2.9117,-2.7783,-2.5843,-2.4764,-2.3974,0.0,0.0,0.0,0.0,0.0,0.0,0.0,0.0,0.0,0.0,0.0,0.0,0.0,0.0,0.0,0.0,0.0,0.0,0.0,0.0,0.0,0.0,0.0,0.0,0.0,0.0,0.0,0.0,0.0,0.0,0.0,0.0,0.0,0.0,0.0,0.0,0.0,0.0,-1.1708,-1.135,-1.0488,-1.0232,-0.9916,0.0,0.0,0.0,0.0,0.0,0.0,-1.0877,-1.071,-1.0777,-1.0988,-1.0655,-1.0563,-1.0738,-0.9846,-0.9423,-0.9316,-0.866,-0.8154,-0.7774,-0.7496,-0.686,-0.5791,-0.5552,-0.5347,-0.4796,0.1261,0.3451,0.3511,0.8399,1.0166,1.0359,1.3242,1.7837,2.3129,0.0,0.0,0.0,0.0,0.0,0.0,0.0,0.0,0.0,0.0,0.0,-0.9769,-1.0418,-1.2796,-1.4468,-1.472,-1.6376,-1.6703,-1.5029,-1.6114,-1.6113,-1.4505,-1.6096,-1.6885,-1.6519,-1.9649,-2.1885,-2.302,-2.495,-2.6121,-2.6606,-2.6505,-2.674,-2.7169,-2.6995,-2.7066,-2.7315,-2.7481,-2.6643,-2.5016,0.0,0.0,0.0,0.0,0.0,0.0,0.0,0.0,0.0,0.0,0.0,0.0,0.0,0.0,0.0,0.0,0.0,0.0,0.0,0.0,0.0,0.0,0.0,0.0,0.0,0.0,0.0,0.0,0.0,0.0,0.0,0.0,0.0,0.0,0.0,0.0,0.0,0.0,0.0,-1.1414,-1.2105,0.0,0.0,0.0,0.0,-1.0759,-1.0717,-1.0982,-1.1628,-1.1662,-1.172,-1.1944,-1.1736,-1.1527,-1.1335,-1.0368,-0.9964,-1.011,-0.9351,-0.8843,-0.856,-0.8133,-0.7592,-0.7015,-0.6771,-0.6609,-0.6313,-0.3603,-0.3079,-0.367,-0.2202,-0.1668,-0.0802,0.6265,0.9661,1.1713,0.0,0.0,0.0,0.0,0.0,0.0,0.0,0.0,-0.7432,-0.7737,-0.8984,-1.0083,-1.068,-1.2878,-1.4337,-1.4233,-1.569,-1.6077,-1.4766,-1.5224,-1.4891,-1.3325,-1.4247,-1.5353,-1.659,-1.7971,-1.956,-2.1204,-2.1837,-2.2381,-2.2886,-2.3624,-2.4005,-2.4116,-2.5596,-2.6277,-2.6243,-2.6437,-2.6576,-2.6495,-2.4626,-2.3069,0.0,0.0,0.0,0.0,0.0,0.0,0.0,0.0,0.0,0.0,0.0,0.0,0.0,0.0,0.0,0.0,0.0,0.0,0.0,0.0,0.0,0.0,0.0,0.0,0.0,0.0,0.0,0.0,0.0,0.0,0.0,0.0,0.0,0.0,0.0,0.0,0.0,-1.2543,-1.2465,0.0,-1.1862,-1.1978,-1.2022,-1.1754,-1.1967,-1.2249,-1.2556,-1.2246,-1.2084,-1.2224,-1.1781,-1.1335,-1.1037,-1.0532,-1.0121,-0.9597,-0.9276,-0.8755,-0.8243,-0.7944,-0.7527,-0.7026,-0.6947,-0.7035,-0.6915,-0.5376,-0.4918,-0.5036,-0.3714,-0.3033,-0.2506,0.0719,0.5511,1.0727,0.0,0.0,0.0,0.0,0.0,0.0,0.0,0.0,-0.7289,-0.7676,-0.8996,-1.0114,-1.0746,-1.267,-1.3879,-1.3691,-1.481,-1.4858,-1.3303,-1.3892,-1.3481,-1.1645,-1.2622,-1.4084,-1.6106,-1.6477,-1.7508,-1.9356,-1.9171,-1.9296,-1.9775,-2.0785,-2.1212,-2.1218,-2.2989,-2.3951,-2.4281,-2.4254,-2.5579,-2.7549,-2.5741,-2.3985,-2.2404,0.0,0.0,0.0,0.0,0.0,0.0,0.0,0.0,0.0,0.0,0.0,0.0,0.0,0.0,0.0,0.0,0.0,0.0,0.0,0.0,0.0,0.0,0.0,0.0,0.0,0.0,0.0,0.0,0.0,0.0,0.0,0.0,0.0,0.0,0.0,-1.2935,-1.2783,-1.2841,-1.2802,-1.2497,-1.2795,-1.2898,-1.2751,-1.2842,-1.2882,-1.2892,-1.249,-1.2224,-1.2003,-1.1558,-1.116,-1.0948,-1.0589,-1.0126,-0.9734,-0.9255,-0.8797,-0.818,-0.7963,-0.7537,-0.7013,-0.7186,-0.7247,-0.7163,-0.6554,-0.6106,-0.5716,-0.4438,-0.3673,-0.3181,-0.2425,0.1392,0.6259,0.0,0.0,0.0,0.0,0.0,0.0,0.0,-0.62,-0.6607,-0.7071,-0.8538,-0.9788,-1.0409,-1.2072,-1.3014,-1.2878,-1.3626,-1.3053,-1.0611,-1.2013,-1.1867,-0.9488,-1.119,-1.3081,-1.4879,-1.5109,-1.5886,-1.7312,-1.7066,-1.7105,-1.7326,-1.8004,-1.838,-1.8577,-1.9152,-2.0169,-2.1559,-2.1257,-2.3819,-2.7924,-2.64,-2.4892,-2.336,0.0,0.0,0.0,0.0,0.0,0.0,0.0,0.0,0.0,0.0,0.0,0.0,0.0,0.0,0.0,0.0,0.0,0.0,0.0,0.0,0.0,0.0,0.0,0.0,0.0,0.0,0.0,0.0,0.0,0.0,0.0,0.0,0.0,-1.2783,-1.3201,-1.3119,-1.21,-1.34,-1.3805,-1.2531,-1.3048,-1.3419,-1.3404,-1.3046,-1.2746,-1.2599,-1.2385,-1.2022,-1.1434,-1.121,-1.1117,-1.1152,-1.0366,-1.0119,-1.0548,-0.9514,-0.8879,-0.8536,-0.8111,-0.7613,-0.7146,-0.7415,-0.7326,-0.7146,-0.7323,-0.6881,-0.5983,-0.4901,-0.4134,-0.3575,-0.3236,-0.2728,-0.2152,0.0,0.0,0.0,0.0,0.0,0.0,0.0,-0.5063,-0.5126,-0.5346,-0.6698,-0.7853,-0.8349,-0.9681,-1.0436,-1.032,-1.0954,-1.088,-0.9787,-1.0616,-1.0631,-0.9373,-0.9667,-1.0394,-1.1526,-1.2141,-1.2811,-1.3438,-1.3584,-1.368,-1.3827,-1.519,-1.5797,-1.5902,-1.7805,-1.8747,-1.8822,-1.9467,-2.079,-2.2616,-2.4683,-2.5092,-2.4441,0.0,0.0,0.0,0.0,0.0,0.0,0.0,0.0,0.0,0.0,0.0,0.0,0.0,0.0,0.0,0.0,0.0,0.0,0.0,0.0,0.0,0.0,0.0,0.0,0.0,0.0,0.0,0.0,0.0,0.0,0.0,0.0,-1.2291,-1.2684,-1.2799,-1.2741,-1.2487,-1.2683,-1.2677,-1.2143,-1.2278,-1.2284,-1.2069,-1.1885,-1.1861,-1.1868,-1.1614,-1.1504,-1.1449,-1.1146,-1.0784,-1.0541,-1.0295,-0.9945,-0.9412,-0.9174,-0.8768,-0.8271,-0.8227,-0.7846,-0.7299,-0.7453,-0.72,-0.6744,-0.6458,-0.6087,-0.5547,-0.525,-0.4678,-0.3936,-0.3135,-0.253,-0.211,0.0,0.0,0.0,0.0,0.0,0.0,0.0,-0.3971,-0.3898,-0.3582,-0.4668,-0.564,-0.6032,-0.7111,-0.7856,-0.7839,-0.846,-0.8546,-0.7841,-0.826,-0.8524,0.0,0.0,-0.8767,-0.9538,-1.0141,-1.0733,-1.1196,-1.1,-1.1193,-1.1647,-1.2546,-1.3185,-1.3631,-1.515,-1.6025,-1.6313,-1.6812,-1.7567,-1.8656,-2.1133,-2.2423,-2.2891,-2.3514,-2.2304,-2.023,-1.9756,-1.796,-1.5391,-1.3203,0.0,0.0,0.0,0.0,0.0,0.0,0.0,0.0,0.0,0.0,0.0,0.0,0.0,0.0,0.0,0.0,0.0,0.0,0.0,0.0,0.0,0.0,0.0,0.0,-1.1559,-1.2011,-1.2384,-1.2425,-1.2378,-1.2378,-1.2298,-1.2231,-1.2003,-1.1929,-1.1835,-1.1784,-1.1646,-1.1563,-1.1526,-1.1456,-1.1209,-1.0945,-1.0875,-1.06,-1.029,-1.0168,-0.9877,-0.9424,-0.9114,-0.8656,-0.8225,-0.8143,-0.7724,-0.6908,-0.7091,-0.6923,-0.6361,-0.6207,-0.5838,0.0,0.0,0.0,0.0,0.0,-0.2541,-0.2354,0.0,0.0,0.0,0.0,0.0,0.0,0.0,-0.2855,-0.2708,-0.1743,-0.2535,-0.3305,-0.346,-0.4428,-0.5136,-0.5442,-0.6064,-0.6154,-0.549,-0.5522,0.0,-0.7161,-0.7279,-0.7624,-0.8282,-0.8585,-0.9038,-0.9674,-0.9029,-0.918,-1.0016,-1.0119,-1.0676,-1.1642,-1.1896,-1.2684,-1.3815,-1.3588,-1.4266,-1.5553,-1.6525,-1.8138,-2.0049,-2.0598,-1.971,-1.8169,-1.7943,-1.6579,-1.4601,-1.3504,0.0,0.0,0.0,0.0,0.0,0.0,0.0,0.0,0.0,0.0,0.0,0.0,0.0,0.0,0.0,0.0,0.0,0.0,0.0,0.0,0.0,0.0,0.0,0.0,-1.1421,-1.1772,-1.1958,-1.1834,-1.1781,-1.1929,-1.2077,-1.209,-1.1906,-1.1683,-1.1646,-1.1914,-1.1797,-1.1594,-1.1341,0.0,0.0,0.0,0.0,-1.0486,-1.0268,-1.0015,-0.9852,-0.9864,-0.917,-0.8644,-0.8201,-0.8028,-0.7418,-0.6542,-0.671,-0.6536,-0.6103,-0.626,-0.5902,-0.5184,-0.4384,-0.3877,-0.3409,-0.2872,-0.2661,-0.2714,0.0,0.0,0.0,0.0,0.0,0.0,0.0,-0.1837,-0.1273,0.01,-0.05,-0.0974,-0.0941,-0.1586,-0.2388,-0.3251,-0.3524,-0.3889,-0.4419,-0.4318,-0.4559,-0.5192,-0.5132,-0.5301,-0.5868,-0.5893,-0.6065,-0.6495,-0.6427,-0.6672,-0.7229,-0.7612,-0.8356,-0.9364,-0.9847,-1.0424,-1.0971,-1.0685,-1.1207,-1.221,-1.2546,-1.5372,-1.9453,-1.9902,-2.0093,-1.9927,-1.8802,-1.7106,-1.5102,-1.3028,-1.1654,-1.0623,-0.9067,0.0,0.0,0.0,0.0,0.0,0.0,0.0,0.0,0.0,0.0,0.0,0.0,0.0,0.0,0.0,0.0,0.0,0.0,0.0,0.0,-1.0261,-1.0636,-1.0981,-1.1335,-1.0727,-1.0663,-1.1632,-1.1484,-1.1352,-1.1354,-1.0987,-1.0779,-1.0861,-1.0803,-1.0659,-1.0552,-1.0481,-1.0413,-1.0252,-1.0169,-1.011,-1.0062,-0.9634,-0.9309,-0.9082,0.0,0.0,-0.8201,-0.8201,-0.7741,-0.7134,-0.6933,-0.6591,-0.6233,-0.5765,-0.5191,-0.4476,-0.4368,-0.3751,-0.3053,-0.332,-0.3133,-0.2858,0.0,0.0,0.0,0.0,0.0,0.0,0.0,0.051,0.1671,0.2355,0.1857,0.1564,0.1975,0.1205,0.0375,-0.0268,-0.1278,-0.2061,-0.2447,-0.2911,-0.3332,-0.3592,-0.3539,-0.3573,-0.3695,-0.3949,-0.4207,-0.4397,-0.466,-0.5212,-0.6032,-0.6215,-0.6874,-0.7997,-0.8232,-0.8646,-0.9009,-0.5928,-0.4968,-0.5303,-0.2637,-0.3058,-0.615,-1.4053,-1.7036,-1.6904,-1.6791,-1.5498,-1.3731,-1.3034,-1.1771,-1.0384,-0.9569,-0.9675,-0.9913,0.0,0.0,0.0,0.0,0.0,0.0,0.0,0.0,0.0,0.0,0.0,0.0,0.0,0.0,-0.8622,-0.8598,0.0,-0.9724,-0.9989,-1.023,-1.0594,-1.0871,-1.0316,-1.0291,-1.1498,-1.1171,-1.0893,-1.1072,-1.0778,-1.0557,-1.063,-1.0458,-1.0361,-1.0311,-1.0252,-1.0149,-0.9817,-0.9761,-0.9689,-0.9432,-0.9262,-0.8907,-0.8556,-0.8296,-0.8074,-0.7968,-0.762,-0.7313,-0.6995,-0.6493,-0.6117,-0.5814,-0.5126,-0.4565,-0.4119,-0.4032,-0.3496,-0.2964,-0.3175,-0.2987,-0.2608,0.0,0.0,0.0,0.0,0.0,0.0,0.0,0.3426,0.4785,0.4861,0.4458,0.4343,0.4683,0.3959,0.3158,0.2522,0.0711,-0.0399,0.0,-0.1285,-0.1902,-0.1926,-0.1928,-0.1836,-0.1596,-0.2032,-0.2448,-0.2751,-0.3147,-0.3498,-0.3773,-0.3687,-0.3709,-0.385,-0.3664,-0.3822,-0.399,0.0855,0.2774,0.2924,0.7447,0.9175,0.7626,-0.5006,-0.9657,-0.9768,-1.1771,-1.1433,-1.0285,-1.2028,-1.1333,-0.9779,-0.9802,-0.9723,-0.9541,-0.8523,-0.8555,0.0,0.0,0.0,0.0,0.0,0.0,0.0,0.0,0.0,-0.8144,-0.8494,-0.8121,-0.7956,-0.8476,-0.8862,-0.9252,-0.962,-0.9877,-1.01,-1.0302,-0.9883,-0.9927,-1.0983,-1.0773,-1.0554,-1.0838,-1.0616,-1.047,-1.0442,-1.0299,-1.0088,-1.005,-1.0015,-0.9771,-0.9226,-0.9329,-0.9165,-0.8819,-0.8769,-0.852,-0.807,-0.7808,-0.7624,-0.7492,-0.6959,-0.669,-0.6536,-0.5863,-0.5366,-0.5102,-0.4478,-0.403,-0.3849,-0.3585,-0.2371,-0.0944,-0.2346,-0.2744,-0.2173,0.0,0.0,0.0,0.0,0.0,0.0,0.0,0.0,0.6909,0.7562,0.7706,0.7461,0.6693,0.6647,0.5933,0.4045,0.2254,0.1127,0.0845,0.0578,0.027,0.0,0.0513,0.0695,0.055,0.0549,0.0,-0.1042,-0.1462,0.0,0.3181,0.2537,0.444,0.8362,0.885,0.9271,0.9747,1.1229,1.1502,1.1031,1.2,1.1619,1.0175,0.7366,0.5359,0.3345,-0.1732,-0.3243,-0.353,-0.791,-0.9069,-0.8639,-0.8582,-0.8803,-0.907,-0.922,0.0,-0.8595,-0.8863,-0.873,-0.858,-0.897,-0.8878,-0.8888,0.0,0.0,-0.8031,-0.7969,-0.7955,-0.7931,-0.7995,-0.8383,-0.8709,-0.9,-0.8928,-0.9018,-0.9354,-0.88,-0.8728,-0.9795,-0.9983,-1.0126,-1.0564,-1.0277,-1.003,-1.0072,-0.9808,-0.9465,-0.9048,-0.9044,-0.9057,-0.8963,-0.8541,-0.8464,-0.8636,-0.808,-0.7793,-0.7793,-0.7524,-0.7145,-0.6807,-0.6548,-0.6236,-0.5987,-0.5325,-0.4652,-0.4028,-0.3939,-0.3851,-0.3587,-0.3136,0.1061,0.6101,-0.051,-0.2575,-0.1202,0.0,0.0,0.0,0.0,0.0,0.0,0.0,0.0,0.0,0.9489,0.9641,0.9638,0.9183,0.8666,0.7987,0.7065,0.5955,0.0,0.4816,0.4928,0.4747,0.412,0.4687,0.4832,0.46,0.4857,0.4629,0.3925,0.5024,0.6189,0.7361,0.8281,0.9663,1.1363,1.1767,1.1989,1.2399,1.6338,1.8153,1.8672,2.2358,2.371,2.3365,2.1906,2.0753,1.8313,0.6556,0.1416,0.0,0.0,-0.6648,-0.8575,-0.8615,-0.8816,-0.8958,-0.8613,-0.8409,0.0,-0.8232,-0.8191,0.0,0.0,-0.8036,-0.7946,-0.7831,-0.7419,-0.7092,-0.7094,-0.7147,-0.7146,-0.7037,-0.7404,-0.7707,0.0,-0.7764,-0.7927,-0.8355,-0.7991,-0.7915,-0.864,-0.8548,-0.8773,-0.951,-0.937,-0.9034,-0.8577,-0.8662,-0.8409,-0.7971,-0.7971,-0.7997,-0.794,-0.7236,-0.7002,-0.7171,-0.6863,-0.647,-0.6281,-0.6207,-0.6239,-0.6072,-0.5468,-0.5032,-0.4709,-0.4491,-0.4119,-0.3674,-0.3583,-0.3405,-0.3136,-0.278,-0.0611,0.2423,0.3529,0.664,1.0922,0.0,0.0,0.0,0.0,0.0,0.0,0.0,0.0,0.0,0.0,1.2183,1.2366,1.1778,1.0933,1.0243,0.9735,0.0,0.0,0.0,0.8294,0.8242,0.799,0.8537,0.878,0.8561,0.9149,0.9207,0.8698,1.053,1.1688,1.2232,1.3778,1.5074,1.6112,1.6637,1.712,1.7869,2.2548,2.5037,2.6172,3.0605,3.25,3.2551,3.1155,3.029,2.8013,1.3967,0.6899,0.0,0.0,-0.4363,-0.8001,-0.82,-0.8343,-0.8364,-0.7822,-0.7608,-0.7486,-0.723,0.0,0.0,-0.7128,-0.7154,-0.7092,-0.6548,-0.6299,-0.6142,-0.5944,-0.6128,-0.6269,-0.5941,-0.6346,-0.6576,-0.6411,-0.6589,-0.6848,-0.7087,-0.6947,-0.6929,-0.7282,-0.7017,-0.7045,-0.7744,-0.8139,-0.8114,-0.7518,-0.7586,-0.751,-0.6936,-0.6994,-0.6968,-0.6655,-0.6098,-0.5849,-0.5841,-0.5784,-0.5563,-0.5188,-0.5293,-0.542,-0.5551,-0.4627,-0.4074,-0.3851,-0.376,-0.3583,-0.3406,-0.3138,-0.2869,-0.2689,-0.2423,0.0432,0.4955,1.0022,1.3884,1.7277,0.0,0.0,0.0,0.0,0.0,0.0,0.0,0.0,0.0,0.0,0.0,0.0,0.0,1.3831,1.289,0.0,0.0,0.0,0.0,0.9422,0.9743,1.0842,1.1475,1.1846,1.1931,1.2907,1.3016,1.2244,1.2998,1.5311,1.9,1.8988,2.158,2.6209,2.7395,2.8955,3.0788,3.1953,3.2881,3.3576,3.3967,3.355,3.2603,3.179,3.0929,2.9079,2.0653,0.0,0.0,0.2964,-0.2425,-0.6322,-0.6752,-0.6851,0.0,-0.7011,-0.6672,0.0,0.0,0.0,-0.6131,-0.6117,-0.6414,-0.645,-0.5749,-0.5616,-0.5471,-0.4589,-0.4901,-0.5313,-0.4867,-0.5262,-0.5551,-0.5287,-0.5421,-0.5546,-0.5432,-0.5417,-0.5426,-0.5507,-0.537,-0.5217,0.0,-0.6521,-0.7505,-0.7357,-0.7168,-0.6756,-0.6274,-0.6229,-0.5961,-0.536,-0.5388,-0.527,-0.5003,-0.5118,-0.5175,-0.5175,-0.4984,-0.49,-0.5085,-0.4506,-0.4001,-0.3587,-0.3317,-0.3136,-0.2868,-0.2602,-0.2424,-0.2154,-0.1885,0.7146,2.0067,1.9715,1.5242,1.1522,0.0,0.0,0.0,0.0,0.0,0.0,0.0,0.0,0.0,0.0,0.0,0.0,0.0,0.0,0.0,0.0,0.0,0.0,0.0,1.4414,1.5322,1.5511,1.6708,1.7205,1.6736,1.7978,1.8136,1.7234,1.9855,2.189,2.3405,2.5188,2.7209,2.935,3.0129,3.1258,3.2619,3.2477,3.3282,3.4664,3.4178,3.4165,3.4212,3.2244,3.1698,3.1339,0.0,0.0,0.0,0.7026,0.0516,-0.6147,-0.6509,-0.6345,-0.5901,-0.5527,-0.5329,-0.5218,0.0,0.0,-0.5024,-0.5313,-0.5314,-0.517,-0.4812,-0.4906,-0.494,-0.424,-0.4403,-0.4637,-0.4346,-0.4575,-0.4707,-0.4715,-0.4781,-0.4794,-0.4913,-0.4804,-0.4697,-0.4741,-0.4622,0.0,0.0,0.0,0.0,-0.5079,-0.5194,-0.5057,-0.4534,-0.4709,-0.4619,-0.4156,-0.3884,-0.3746,-0.3837,-0.3877,-0.382,-0.377,-0.3812,-0.3789,-0.3789,-0.367,-0.3272,-0.2872,-0.2782,-0.2602,-0.2422,-0.2154,-0.199,-0.1924,-0.1466,0.1657,0.716,1.7272,1.8929,1.8259,0.0,0.0,0.0,0.0,0.0,0.0,0.0,0.0,0.0,0.0,0.0,0.0,0.0,0.0,0.0,0.0,0.0,0.0,0.0,0.0,1.8422,1.8868,1.9913,2.0238,1.9809,2.1056,2.1471,2.0897,2.4216,2.6016,2.6467,2.896,3.0334,3.0701,3.1556,3.249,3.3426,3.31,3.3525,3.4433,3.3933,3.3772,3.3617,3.2333,3.1862,0.0,0.0,0.0,1.1263,0.9935,0.2786,-0.5575,-0.5706,-0.5433,-0.4935,-0.4415,-0.4296,-0.4341,0.0,-0.4404,-0.4341,-0.4795,-0.4625,-0.4313,-0.4234,-0.4201,-0.4118,-0.3598,-0.3643,-0.3776,-0.3442,-0.361,-0.3822,-0.3779,-0.3836,-0.3895,-0.4053,-0.3974,-0.3892,-0.3926,-0.38,-0.3757,0.0,0.0,0.0,-0.3886,-0.3941,-0.3692,-0.3281,-0.343,-0.3403,-0.2921,-0.2713,-0.2653,-0.2928,-0.3004,-0.3033,-0.3016,-0.321,-0.3074,-0.2811,-0.3015,-0.291,-0.2602,-0.2513,-0.2424,-0.2154,-0.1794,0.0262,0.3193,0.3193,0.663,1.2841,2.2216,2.6811,2.9603,0.0,0.0,0.0,0.0,0.0,0.0,0.0,0.0,0.0,0.0,0.0,0.0,0.0,0.0,0.0,0.0,0.0,0.0,0.0,0.0,0.0,2.0896,2.1097,2.1156,2.1156,2.2377,2.3009,2.3069,2.5788,2.7501,2.8156,3.0103,3.0831,3.0507,3.185,3.2847,3.3532,3.387,3.3676,3.3173,3.3314,3.2411,3.1092,3.2008,0.0,0.0,0.0,0.0,0.0,0.0,0.0,0.0,0.0,0.0,-0.3859,-0.3579,-0.3501,-0.358,-0.3944,-0.3928,-0.404,-0.4517,-0.4352,-0.3925,-0.3835,-0.3496,-0.3066,-0.2666,-0.2809,-0.2801,0.0,0.0,-0.2898,-0.253,-0.265,-0.2778,-0.2856,-0.2856,-0.2926,0.0,0.0,0.0,0.0,0.0,0.0,-0.3681,0.0,-0.2758,-0.2534,-0.258,-0.2348,-0.1656,-0.1957,-0.2159,-0.2161,-0.2608,-0.2906,-0.2871,-0.298,-0.2785,-0.2226,-0.2734,-0.2885,-0.2872,-0.2603,-0.2335,-0.2158,-0.1619,0.362,1.1325,1.0968,2.0423,3.4202,3.345,3.7376,4.3031,0.0,0.0,0.0,0.0,0.0,0.0,0.0,0.0,0.0,0.0,0.0,0.0,0.0,0.0,0.0,0.0,0.0,0.0,0.0,0.0,0.0,0.0,0.0,0.0,0.0,0.0,0.0,2.3991,2.4737,2.5728,2.6871,2.7267,2.7855,2.8665,2.8809,2.964,3.083,3.0393,3.065,3.1364,0.0,3.126,3.0885,0.0,0.0,0.0,0.0,0.0,0.0,0.0,0.0,0.0,0.0,0.0,-0.273,-0.2009,-0.1872,-0.206,-0.2667,-0.2602,-0.2655,-0.3727,-0.3161,-0.2455,-0.3092,-0.281,-0.2505,-0.2747,-0.2635,-0.2441,0.0,0.0,0.0,-0.2286,-0.2424,0.0,-0.2743,-0.2823,0.0,0.0,0.0,-0.241,-0.2198,-0.1637,0.0,0.0,-0.162,-0.1597,-0.1501,-0.1685,-0.1613,-0.1275,-0.1556,-0.1758,-0.1972,-0.244,-0.2822,-0.2932,-0.2826,-0.2733,-0.2741,-0.2489,-0.2285,-0.211,-0.2258,-0.2083,-0.1655,-0.1774,-0.0463,0.2239,0.8326,1.3112,1.7985,2.9902,3.4488,3.5583,0.0,0.0,0.0,0.0,0.0,0.0,0.0,0.0,0.0,0.0,0.0,0.0,0.0,0.0,0.0,0.0,0.0,0.0,0.0,0.0,0.0,0.0,0.0,0.0,0.0,0.0,0.0,0.0,0.0,0.0,2.662,2.7273,2.7945,2.8528,2.8546,2.9,2.9743,2.978,0.0,0.0,0.0,0.0,0.0,0.0,0.0,0.0,0.0,0.0,0.0,0.0,0.0,0.132,-0.067,-0.0978,-0.0469,0.012,0.0,-0.0794,-0.1185,-0.2025,-0.2889,-0.3414,-0.3183,-0.291,-0.319,-0.2639,-0.2076,-0.2264,-0.1941,0.0,0.0,0.0,0.0,0.0,0.0,0.0,-0.2152,-0.2142,-0.208,0.0,-0.1865,0.0,-0.1753,-0.118,-0.0724,0.0,-0.0817,-0.0897,-0.0807,-0.1076,-0.1173,-0.1095,-0.129,-0.1495,-0.1717,-0.221,-0.2509,-0.251,-0.2484,-0.2485,-0.2604,-0.243,-0.0533,0.2513,0.0,0.1695,0.8144,0.4824,0.7854,1.5103,1.9483,2.31,2.6993,3.5876,3.7978,3.6996,0.0,0.0,0.0,0.0,0.0,0.0,0.0,0.0,0.0,0.0,0.0,0.0,0.0,0.0,0.0,0.0,0.0,0.0,0.0,0.0,0.0,0.0,0.0,0.0,0.0,0.0,0.0,0.0,0.0,0.0,0.0,0.0,0.0,0.0,0.0,0.0,0.0,0.0,0.0,0.0,0.0,0.0,0.0,0.0,0.0,0.0,0.0,0.0,0.0,0.0,0.5274,0.8016,0.2577,0.1619,0.2557,0.289,0.1954,0.0826,0.0592,-0.0694,-0.1906,-0.1794,-0.1334,-0.1094,-0.156,-0.0818,-0.0244,-0.1254,0.0,0.0,-0.0543,0.0,-0.0508,-0.0723,0.0,-0.0883,-0.1369,-0.1271,-0.1286,-0.1518,-0.1253,-0.1081,-0.1195,-0.0634,-0.0271,-0.0276,-0.0453,-0.0448,-0.0359,-0.0807,-0.1076,-0.1076,-0.1101,-0.1218,-0.143,-0.1943,-0.2063,-0.1775,-0.2063,-0.2063,-0.1872,-0.2214,0.1142,0.6836,0.0357,0.5934,1.9206,1.2933,1.966,3.3975,3.4219,3.8364,4.4245,4.4603,4.3688,4.2284,0.0,0.0,0.0,0.0,0.0,0.0,0.0,0.0,0.0,0.0,0.0,0.0,0.0,0.0,0.0,0.0,0.0,0.0,0.0,0.0,0.0,0.0,0.0,0.0,0.0,0.0,0.0,0.0,0.0,0.0,0.0,0.0,0.0,0.0,0.0,0.0,0.0,0.0,0.0,0.0,0.0,0.0,0.0,0.0,0.0,0.0,0.0,0.0,0.0,0.0,1.3082,0.9928,0.5216,0.4683,0.5855,0.668,0.5779,0.4267,0.3018,0.564,0.8494,0.7033,1.1664,1.506,0.9215,0.8649,0.0,0.0,0.0,0.0395,0.0373,0.0392,0.0,0.0085,0.0,0.0,0.0,0.0,-0.0436,0.0,0.0,0.0,0.0,0.0,0.0,0.0,0.0,0.0269,-0.009,-0.0359,-0.0718,-0.1076,-0.1117,-0.1141,-0.1144,-0.1361,-0.1386,-0.1307,-0.1385,-0.1386,-0.1305,-0.1163,-0.0379,0.0749,-0.0758,0.0,1.2388,1.0714,1.5169,2.3843,3.0321,3.325,3.4611,4.135,4.314,4.2224,0.0,0.0,0.0,0.0,0.0,0.0,0.0,0.0,0.0,0.0,2.2813,0.0,0.0,0.0,0.0,0.0,0.0,0.0,0.0,0.0,0.0,0.0,0.0,0.0,0.0,0.0,0.0,0.0,0.0,0.0,0.0,0.0,0.0,0.0,0.0,0.0,0.0,0.0,0.0,0.0,0.0,0.0,0.0,0.0,0.0,0.0,0.0,0.0,0.0,0.0,1.6771,1.6974,1.0312,0.9237,1.0459,1.0584,1.0142,0.9775,1.001,1.1592,1.3365,1.4249,1.7159,1.8159,1.1996,0.0,0.0,0.0,0.0,0.1373,0.1417,0.0,0.0,0.0,0.0,0.0,0.0,0.0,0.0,0.0,0.0,0.0,0.0,0.0,0.0,0.0,0.0,0.0709,0.0359,0.0181,0.0,-0.0093,-0.0572,-0.0678,-0.0484,-0.0987,-0.1101,-0.101,-0.1288,-0.129,-0.1107,0.2973,0.6926,1.057,1.0576,1.741,2.8109,2.3977,2.6578,3.3545,3.7365,3.8029,3.7355,4.1268,4.2147,4.1366,0.0,0.0,0.0,0.0,0.0,0.0,0.0,2.1079,2.2003,2.1951,2.2734,2.3334,2.3406,2.3316,0.0,0.0,0.0,0.0,0.0,0.0,0.0,0.0,0.0,0.0,0.0,0.0,0.0,0.0,0.0,0.0,0.0,0.0,0.0,0.0,0.0,0.0,0.0,0.0,0.0,0.0,0.0,0.0,0.0,0.0,0.0,0.0,0.0,0.0,0.0,0.0,1.9643,2.3057,1.5831,1.4222,1.4836,1.4469,1.4498,1.4944,1.6671,1.7466,1.847,2.1392,2.2845,2.1817,1.5239,1.342,0.0,0.0,0.0,0.0,0.0,0.0,0.0,0.0,0.0,0.0,0.0,0.0,0.0,0.0,0.0,0.0,0.0,0.0,0.0,0.0,0.0,0.0,0.0902,0.0645,0.0656,0.0858,0.029,0.0098,0.0295,-0.0299,-0.0503,-0.0404,0.0864,0.151,0.1906,0.934,1.5965,2.1424,2.1612,2.9648,4.209,3.6049,3.7863,4.4414,4.4176,4.3121,4.1705,4.1594,4.1118,4.05,0.0,0.0,0.0,0.0,0.0,0.0,0.0,2.0861,2.1401,2.1462,2.2684,2.3535,2.3487,2.3584,0.0,0.0,0.0,0.0,0.0,0.0,0.0,0.0,0.0,0.0,0.0,0.0,0.0,0.0,0.0,0.0,0.0,0.0,0.0,0.0,0.0,0.0,0.0,0.0,0.0,0.0,0.0,0.0,0.0,0.0,0.0,0.0,0.0,0.0,0.0,0.0,0.0,2.3135,2.0614,1.8689,1.7526,1.8291,0.0,0.0,1.9177,2.3644,2.8354,2.9627,3.4565,3.6334,2.5654,0.0,0.0,0.0,0.3852,0.3863,0.0,0.0,0.0,0.0,0.0,0.0,0.0,0.0,0.0,0.0,0.0,0.0,0.0,0.0,0.0,0.0,0.0,0.0,0.1476,0.1035,0.0952,0.124,0.1146,0.1158,0.1178,0.1277,0.119,0.1109,0.764,1.0762,1.1065,1.8446,2.2173,2.2821,2.2725,2.7493,0.0,3.3688,3.7072,4.3178,4.2386,4.1412,4.0447,4.0466,4.0306,4.0139,0.0,0.0,0.0,0.0,0.0,0.0,0.0,2.1252,2.1627,2.2162,2.2707,2.3217,2.3638,2.4014,0.0,0.0,0.0,0.0,0.0,0.0,0.0,0.0,0.0,0.0,0.0,0.0,0.0,0.0,0.0,0.0,0.0,0.0,0.0,0.0,0.0,0.0,0.0,0.0,0.0,0.0,0.0,0.0,0.0,0.0,0.0,0.0,0.0,0.0,0.0,0.0,0.0,0.0,2.1815,2.0677,0.0,0.0,2.2323,2.3809,2.6618,2.9999,3.3442,3.6558,3.5771,3.2608,2.6455,0.0,0.0,0.6513,0.4986,0.5056,0.4857,0.0,0.0,0.0,0.0,0.0,0.0,0.0,0.0,0.0,0.0,0.0,0.0,0.0,0.0,0.0,0.0,0.0,0.2966,0.222,0.1939,0.2231,0.1863,0.1675,0.1473,0.5855,0.799,0.7808,1.5184,1.8649,1.8955,2.6485,2.9907,3.01,3.4111,3.7566,0.0,3.9258,4.0091,4.1987,4.1589,4.0864,4.0062,4.0002,3.9981,3.9958,0.0,0.0,0.0,0.0,0.0,0.0,2.1116,2.1386,2.1735,2.2337,2.2824,2.3304,2.3807,2.4384,2.4617,2.4301,0.0,0.0,0.0,0.0,0.0,0.0,0.0,0.0,0.0,0.0,0.0,0.0,0.0,0.0,0.0,0.0,0.0,0.0,0.0,0.0,0.0,0.0,0.0,0.0,0.0,0.0,0.0,0.0,0.0,0.0,0.0,0.0,0.0,0.0,0.0,0.0,0.0,0.0,0.0,0.0,2.4613,2.7281,3.1115,3.3615,3.611,4.0072,3.5538,2.9319,0.0,0.0,1.2323,0.7279,0.631,0.6273,0.6069,0.6009,0.596,0.5829,0.0,0.5957,0.0,0.0,0.0,0.0,0.0,0.0,0.0,0.0,0.0,0.0,0.0,0.0,0.4206,0.3546,0.3065,0.3067,0.2804,0.3532,0.5274,1.0341,1.3826,1.5715,2.3044,2.6557,2.6782,3.4306,3.7684,3.7879,4.2557,4.4399,0.0,4.2906,4.2077,4.1377,4.0851,4.0409,4.0023,3.9746,3.967,3.9665,0.0,0.0,0.0,0.0,0.0,0.0,0.0,2.1046,2.1586,2.1512,2.3022,2.4072,2.3995,2.4656,2.5032,2.4898,0.0,0.0,0.0,0.0,0.0,0.0,0.0,0.0,0.0,0.0,0.0,0.0,0.0,0.0,0.0,0.0,0.0,0.0,0.0,0.0,0.0,0.0,0.0,0.0,0.0,0.0,0.0,0.0,0.0,0.0,0.0,0.0,0.0,0.0,0.0,0.0,0.0,0.0,0.0,0.0,2.4496,2.7152,3.0577,3.3549,3.6412,3.9372,3.5651,3.0379,0.0,0.0,1.485,0.9417,0.7816,0.7557,0.7706,0.7633,0.7484,0.7407,0.0,0.0,0.0,0.0,0.0,0.0,0.0,0.0,0.0,0.0,0.0,0.0,0.0,0.0,0.5092,0.4885,0.4435,0.3635,0.4137,0.7433,1.3832,1.4151,1.7562,2.4163,3.1291,3.4606,3.4745,4.1983,4.5262,4.517,4.4912,4.4313,0.0,4.2335,4.186,4.163,3.996,3.9749,4.0309,3.957,3.9245,3.921,0.0,0.0,0.0,0.0,0.0,0.0,0.0,2.1488,2.1869,2.2443,2.3446,2.4098,2.406,2.4681,2.5057,2.4985,0.0,0.0,0.0,0.0,0.0,0.0,0.0,0.0,0.0,0.0,0.0,0.0,0.0,0.0,0.0,0.0,0.0,0.0,0.0,0.0,0.0,0.0,0.0,0.0,0.0,0.0,0.0,0.0,0.0,0.0,0.0,0.0,0.0,0.0,0.0,0.0,0.0,0.0,0.0,2.2178,2.3679,0.0,2.9777,3.1437,3.2487,3.3878,2.8637,2.3322,2.4272,0.0,1.1475,1.1221,1.0508,0.9761,0.9015,0.926,0.9286,0.0,0.0,0.0,0.0,0.0,0.0,0.0,0.0,0.0,0.0,0.0,0.0,0.0,0.0,0.0,0.5686,0.5819,0.5238,0.3635,0.4336,0.755,1.3581,1.9168,2.5107,3.1341,3.8674,4.2041,4.1839,4.3973,4.4925,4.4836,4.3995,4.3431,4.3004,4.1987,4.1468,4.1206,4.0074,4.0196,4.0922,4.0078,4.0163,4.0685,0.0,0.0,0.0,0.0,0.0,0.0,0.0,2.1233,2.1665,2.2862,2.3383,2.389,2.4491,2.4936,2.5263,2.5469,0.0,0.0,0.0,0.0,0.0,0.0,0.0,0.0,0.0,0.0,0.0,0.0,0.0,0.0,0.0,0.0,0.0,0.0,0.0,0.0,0.0,0.0,0.0,0.0,0.0,0.0,2.7154,0.0,0.0,0.0,0.0,0.0,0.0,0.0,0.0,0.0,0.0,0.0,0.0,0.0,2.3205,2.4468,0.0,2.9463,3.0048,3.1165,2.5971,0.0,0.0,0.0,0.0,1.343,1.2489,1.1188,1.0689,1.0816,1.0777,0.0,0.0,0.0,0.0,0.0,0.0,0.0,0.0,0.0,0.0,0.0,0.0,0.0,0.0,0.0,0.8837,1.0978,1.1308,0.9473,0.7349,0.9867,1.7233,2.3269,3.0385,3.8541,4.3069,4.5072,4.4744,4.4506,4.4388,4.4279,4.3498,4.2946,0.0,4.1862,4.1482,4.1238,4.0434,4.0734,4.142,4.0286,4.0409,4.1061,0.0,0.0,0.0,0.0,0.0,0.0,0.0,0.0,0.0,0.0,2.2953,2.357,2.506,2.5274,2.5548,0.0,0.0,0.0,0.0,0.0,0.0,0.0,0.0,0.0,0.0,0.0,0.0,2.7205,2.824,2.8782,2.886,0.0,0.0,0.0,0.0,0.0,0.0,0.0,0.0,0.0,0.0,2.6942,0.0,0.0,0.0,0.0,0.0,0.0,0.0,0.0,0.0,0.0,0.0,0.0,0.0,0.0,0.0,0.0,0.0,2.7422,2.8643,3.0223,2.6488,2.2981,0.0,0.0,0.0,0.0,1.3778,1.1997,1.2556,1.2213,1.1945,0.0,0.0,0.0,0.0,0.0,0.0,0.0,0.0,0.0,0.0,0.0,0.0,0.0,0.0,0.0,1.3968,1.8846,2.0807,1.9146,1.3109,1.4551,2.4271,2.6903,3.3848,4.5077,4.4795,4.4549,4.4277,4.3986,4.3814,0.0,4.3391,4.2776,4.203,4.196,4.185,4.1686,4.0998,4.1269,4.1849,4.0266,4.0263,4.0737,0.0,0.0,0.0,0.0,0.0,0.0,0.0,0.0,0.0,0.0,0.0,2.4024,2.4342,2.4937,0.0,0.0,0.0,0.0,0.0,0.0,0.0,0.0,0.0,0.0,0.0,0.0,0.0,2.8254,2.8868,2.918,2.928,2.9603,0.0,0.0,0.0,0.0,0.0,0.0,0.0,0.0,2.6805,2.6989,0.0,0.0,0.0,0.0,2.5846,2.6203,0.0,0.0,0.0,0.0,0.0,0.0,0.0,0.0,2.106,2.0607,2.1682,0.0,2.4579,2.4011,2.1749,2.0135,0.0,0.0,0.0,0.0,0.0,1.324,1.2864,1.3307,0.0,0.0,0.0,0.0,0.0,0.0,0.0,0.0,0.0,0.0,0.0,0.0,0.0,0.0,0.0,1.6528,1.7659,1.9694,2.052,2.0079,2.0613,2.4339,3.1566,3.3019,3.7487,4.4942,4.535,4.5355,4.5022,4.4122,4.3715,4.3658,4.2907,4.2526,4.2307,4.24,4.2361,4.2153,4.1384,4.1697,4.2463,4.1283,4.1465,4.2246,0.0,0.0,0.0,0.0,0.0,0.0,0.0,0.0,0.0,0.0,0.0,0.0,0.0,0.0,0.0,0.0,0.0,0.0,0.0,0.0,0.0,0.0,0.0,0.0,0.0,0.0,0.0,0.0,0.0,2.9664,0.0,0.0,0.0,0.0,0.0,0.0,0.0,0.0,0.0,0.0,2.7268,0.0,0.0,0.0,0.0,0.0,2.5026,2.5186,0.0,2.4715,2.4792,2.5045,0.0,0.0,0.0,0.0,1.9948,1.8976,1.853,2.0193,2.1969,2.181,2.0502,1.9761,2.1495,0.0,0.0,0.0,0.0,0.0,1.3697,0.0,0.0,0.0,0.0,0.0,0.0,0.0,0.0,0.0,0.0,0.0,0.0,0.0,0.0,0.0,0.0,2.174,2.3305,2.7079,2.8828,2.7787,3.1919,3.3983,3.3612,3.5166,3.9046,4.5109,4.5296,4.5064,4.4516,4.3781,4.3263,4.2822,4.2311,4.2092,4.2192,4.2391,4.2391,4.2216,4.1868,4.2095,4.244,4.1497,4.1712,4.2382,0.0,0.0,0.0,0.0,0.0,0.0,0.0,0.0,0.0,0.0,0.0,0.0,0.0,0.0,0.0,0.0,0.0,0.0,0.0,0.0,0.0,0.0,0.0,0.0,0.0,0.0,0.0,0.0,0.0,0.0,0.0,0.0,2.9967,0.0,0.0,0.0,0.0,0.0,0.0,0.0,2.6866,0.0,0.0,0.0,0.0,0.0,0.0,0.0,0.0,2.3862,2.3572,2.3275,2.2848,0.0,0.0,0.0,0.0,0.0,1.6059,1.7753,2.0002,2.0926,2.0279,1.983,0.0,0.0,0.0,0.0,0.0,0.0,0.0,0.0,0.0,0.0,0.0,0.0,0.0,0.0,0.0,0.0,0.0,0.0,0.0,0.0,0.0,0.0,0.0,2.722,2.9285,3.5607,3.8418,3.671,4.1667,4.1082,3.429,3.6382,4.0003,4.4965,4.4797,4.4293,4.3583,4.3251,4.2678,4.1929,0.0,0.0,4.1788,4.2061,4.2103,4.2061,4.2228,4.2269,4.2175,4.1398,4.1535,4.1908,0.0,0.0,0.0,0.0,0.0,0.0,0.0,0.0,0.0,0.0,0.0,0.0,0.0,0.0,0.0,0.0,0.0,0.0,0.0,0.0,0.0,0.0,0.0,0.0,0.0,0.0,0.0,0.0,0.0,0.0,3.1158,3.0819,2.9763,0.0,0.0,0.0,0.0,0.0,0.0,2.353,2.2606,0.0,0.0,0.0,0.0,0.0,0.0,0.0,0.0,2.218,2.2492,2.3165,2.0866,0.0,0.0,0.0,0.0,0.0,1.4655,1.6069,1.7643,1.7863,1.7007,1.6558,0.0,0.0,0.0,0.0,0.0,0.0,0.0,0.0,0.0,0.0,0.0,0.0,0.0,0.0,0.0,0.0,0.0,0.0,0.0,0.0,0.0,0.0,0.0,3.1317,3.354,3.5898,3.734,3.7831,3.8691,3.94,3.9929,4.1646,4.2675,4.3039,4.3541,4.371,4.3588,4.2859,4.2399,4.2102,0.0,4.1244,4.1346,4.1463,4.1675,4.1823,4.178,4.1841,4.197,4.1525,4.1648,4.1906,0.0,0.0,0.0,0.0,0.0,0.0,0.0,0.0,0.0,0.0,0.0,0.0,0.0,0.0,0.0,0.0,0.0,0.0,0.0,0.0,0.0,0.0,0.0,0.0,0.0,0.0,0.0,0.0,0.0,3.0681,3.1016,3.0355,2.9855,2.9505,0.0,0.0,0.0,0.0,2.7941,2.65,0.0,0.0,0.0,0.0,0.0,0.0,0.0,0.0,0.0,0.0,1.9471,1.918,1.8235,0.0,0.0,0.0,0.0,0.0,1.3362,1.4042,1.504,1.5988,1.6901,0.0,0.0,0.0,0.0,0.0,0.0,0.0,0.0,0.0,0.0,0.0,0.0,0.0,0.0,0.0,0.0,0.0,0.0,0.0,0.0,0.0,0.0,0.0,0.0,3.4155,3.5854,3.7974,3.8951,3.8476,3.9471,4.015,4.0492,4.1546,4.2343,4.2871,4.3155,4.3071,4.2736,4.2293,4.1816,4.1257,0.0,4.0935,4.1041,4.1318,4.1453,4.1498,4.156,4.1604,4.156,4.1515,4.1666,4.1831,0.0,0.0,0.0,0.0,0.0,0.0,0.0,0.0,0.0,0.0,0.0,0.0,0.0,0.0,0.0,0.0,0.0,0.0,0.0,0.0,0.0,0.0,0.0,0.0,0.0,0.0,3.1711,3.2026,3.0888,3.0504,3.08,3.0096,3.0022,0.0,0.0,0.0,0.0,0.0,2.8428,2.81,0.0,0.0,0.0,0.0,0.0,0.0,0.0,0.0,0.0,0.0,0.0,0.0,0.0,0.0,0.0,1.3848,1.3352,1.2815,1.2219,1.2677,1.3588,0.0,0.0,0.0,0.0,0.0,0.0,0.0,0.0,0.0,0.0,0.0,0.0,0.0,0.0,0.0,0.0,0.0,0.0,0.0,0.0,0.0,0.0,0.0,0.0,0.0,3.4228,3.5869,3.7068,3.9439,4.0059,3.8704,4.0166,4.0562,3.9642,4.0194,4.11,4.2395,4.2328,4.2037,4.1535,4.1503,4.1096,4.0419,4.0551,4.0697,4.0888,4.1152,4.1272,4.1255,4.1453,4.1408,4.1255,4.1471,4.1648,4.1823,0.0,0.0,0.0,0.0,0.0,0.0,0.0,0.0,0.0,0.0,0.0,0.0,0.0,0.0,0.0,0.0,0.0,0.0,0.0,0.0,0.0,0.0,0.0,0.0,0.0,3.0864,3.127,3.2087,3.0391,2.9996,3.081,3.0664,3.0212,2.9525,0.0,0.0,0.0,0.0,2.367,2.3754,1.506,0.0,0.0,0.0,0.0,0.0,0.0,0.0,0.0,0.0,0.0,0.0,0.0,0.0,1.315,1.2328,1.1964,1.1728,1.1464,1.2894,1.4457,1.4398,0.0,0.0,0.0,0.0,0.0,0.0,0.0,0.0,0.0,0.0,0.0,0.0,0.0,0.0,0.0,0.0,0.0,0.0,0.0,0.0,0.0,0.0,0.0,0.0,3.5325,3.6209,3.7299,3.834,3.8706,3.8253,3.8753,3.8975,3.886,3.9251,3.9726,4.0341,4.029,4.0307,4.0256,4.0504,4.0421,4.0138,4.0288,4.0502,4.0745,4.0871,4.1105,4.138,4.1426,4.1426,4.138,4.1426,4.156,4.178,0.0,0.0,0.0,0.0,0.0,0.0,0.0,0.0,0.0,0.0,0.0,0.0,0.0,0.0,0.0,0.0,0.0,0.0,0.0,0.0,0.0,0.0,0.0,3.0567,3.0767,3.0832,3.0739,3.0487,3.0323,3.0701,3.1598,3.1026,0.0,0.0,0.0,0.0,0.0,0.0,2.7797,2.7589,2.123,1.9516,0.0,0.0,0.0,0.0,0.0,0.0,0.0,0.0,1.3716,1.3165,1.2632,1.2341,1.2018,1.1455,1.1754,1.21,1.149,1.2871,1.4504,1.4514,0.0,0.0,0.0,0.0,0.0,0.0,0.0,0.0,0.0,0.0,0.0,0.0,0.0,0.0,0.0,0.0,0.0,0.0,0.0,0.0,0.0,0.0,0.0,3.5336,3.6172,3.7014,3.8059,3.8718,3.8888,3.856,3.8805,3.8914,3.8914,3.9272,3.959,3.9833,3.9833,3.9935,4.0121,4.0238,4.0238,4.0238,4.0387,4.0534,4.0697,4.0935,4.1093,4.1215,4.1272,4.1318,4.1426,4.1515,4.1604,4.1692,0.0,0.0,0.0,0.0,0.0,0.0,0.0,0.0,0.0,0.0,0.0,0.0,0.0,0.0,0.0,0.0,0.0,0.0,0.0,0.0,0.0,0.0,0.0,2.9225,2.9527,2.9845,2.999,2.9901,3.0439,3.1031,3.1679,0.0,0.0,0.0,0.0,0.0,0.0,0.0,0.0,2.9734,2.4172,2.1669,0.0,0.0,0.0,0.0,0.0,0.0,0.0,0.0,1.2141,1.1619,1.1455,1.1358,1.1315,1.1195,1.1956,1.2724,1.2245,1.3429,1.4818,0.0,0.0,0.0,0.0,0.0,0.0,0.0,0.0,0.0,0.0,0.0,0.0,0.0,0.0,0.0,0.0,0.0,0.0,0.0,0.0,0.0,0.0,0.0,0.0,3.4993,3.5914,3.6799,3.772,3.8392,3.8779,3.8672,3.886,3.9023,3.9023,3.9362,3.959,3.9677,3.9781,3.9884,4.0037,4.0087,4.0188,4.0305,4.0387,4.06,4.084,4.1,4.114,4.1261,4.1272,4.1363,4.1506,4.184,4.1859,4.1789,0.0,0.0,0.0,0.0,0.0,0.0,0.0,0.0,0.0,0.0,0.0,0.0,0.0,0.0,0.0,0.0,0.0,0.0,0.0,0.0,0.0,0.0,0.0,2.7763,2.6832,2.7666,2.8996,3.0798,3.073,3.073,3.0823,3.1617,0.0,0.0,0.0,0.0,0.0,0.0,0.0,0.0,2.1259,1.9326,2.039,0.0,0.0,0.0,0.0,0.0,0.0,0.0,1.1436,1.1285,1.1175,1.1032,1.1005,1.1564,1.2516,1.3434,1.3705,1.4599,0.0,0.0,0.0,0.0,0.0,0.0,0.0,0.0,0.0,0.0,0.0,0.0,0.0,0.0,0.0,0.0,0.0,0.0,0.0,0.0,0.0,0.0,0.0,0.0,3.2035,3.3317,3.4516,3.5385,3.5864,3.7186,3.8049,3.8391,3.8821,3.9023,3.9023,3.9451,3.9729,3.9729,3.9986,4.0037,3.9901,4.0037,4.0188,4.0305,4.0288,4.06,4.1093,4.1093,4.1307,4.1604,4.1471,4.1471,4.1692,4.2464,4.2467,4.2111,0.0,0.0,0.0,0.0,0.0,0.0,0.0,0.0,0.0,0.0,0.0,0.0,0.0,0.0,0.0,0.0,0.0,0.0,0.0,0.0,0.0,0.0,0.0,0.0,0.0,0.0,2.9279,2.9819,3.0405,3.1059,0.0,0.0,0.0,3.0769,0.0,0.0,0.0,0.0,0.0,0.0,1.906,1.6632,1.5755,0.0,0.0,0.0,0.0,0.0,0.0,0.0,0.0,0.0,1.1694,1.2079,1.2593,1.2237,1.2706,1.3273,1.2978,0.0,0.0,0.0,0.0,0.0,0.0,0.0,0.0,0.0,0.0,0.0,0.0,0.0,0.0,0.0,0.0,0.0,0.0,0.0,0.0,0.0,0.0,0.0,0.0,0.0,3.3077,3.3879,3.506,3.5982,3.6692,3.7607,3.8278,3.8655,3.886,3.9094,3.9202,3.9713,3.9935,3.9849,4.0238,4.0288,4.0205,4.0337,4.0387,4.0436,4.0551,4.0745,4.0982,4.1198,4.138,4.1471,4.1515,4.156,4.1639,4.1868,4.1859,4.1771,0.0,0.0,0.0,0.0,0.0,0.0,0.0,0.0,0.0,0.0,2.2045,2.2789,0.0,0.0,0.0,0.0,0.0,0.0,0.0,0.0,0.0,0.0,0.0,0.0,0.0,2.8904,2.9528,0.0,0.0,0.0,0.0,0.0,0.0,3.0825,0.0,2.8739,0.0,0.0,2.1808,2.0103,1.8168,1.5806,1.3461,0.0,0.0,0.0,0.0,0.0,0.0,0.0,0.0,0.0,1.2446,1.2833,1.3318,1.323,1.3468,1.3875,1.4047,0.0,0.0,0.0,0.0,0.0,0.0,0.0,0.0,0.0,0.0,0.0,0.0,0.0,0.0,0.0,0.0,0.0,0.0,0.0,0.0,0.0,0.0,0.0,0.0,0.0,3.3487,3.3943,3.5143,3.6142,3.6846,3.7648,3.8262,3.8694,3.8952,3.9185,3.9379,3.9884,4.0087,3.9986,4.0337,4.0485,4.0453,4.0485,4.0583,4.068,4.0823,4.0918,4.0982,4.1244,4.1318,4.1318,4.1471,4.156,4.1657,4.2017,4.2,4.1858,0.0,0.0,2.2265,2.3072,0.0,0.0,0.0,0.0,0.0,0.0,2.1204,2.1718,0.0,0.0,0.0,0.0,0.0,0.0,0.0,0.0,0.0,0.0,0.0,0.0,0.0,0.0,0.0,0.0,0.0,0.0,0.0,0.0,3.0452,3.0037,0.0,2.7491,0.0,2.208,1.9689,1.6621,1.715,1.5318,1.241,1.3997,0.0,0.0,0.0,0.0,0.0,0.0,0.0,0.0,1.3221,1.3423,1.3534,1.4225,1.4483,1.4907,0.0,0.0,0.0,0.0,0.0,0.0,0.0,0.0,0.0,0.0,0.0,0.0,0.0,0.0,0.0,0.0,0.0,0.0,0.0,0.0,0.0,0.0,0.0,0.0,0.0,3.308,3.3607,3.3754,3.5,3.6009,3.6603,3.746,3.8205,3.8639,3.9061,3.9345,3.9537,3.9935,4.0121,4.0121,4.037,4.0534,4.0648,4.0583,4.068,4.0935,4.1088,4.1152,4.1093,4.1267,4.1324,4.1226,4.145,4.1585,4.1692,4.2564,4.2528,4.2168,0.0,0.0,2.3105,2.3973,0.0,0.0,0.0,0.0,0.0,0.0,0.0,0.0,0.0,0.0,0.0,0.0,0.0,0.0,0.0,0.0,0.0,0.0,0.0,0.0,0.0,0.0,0.0,0.0,0.0,0.0,0.0,0.0,0.0,2.3469,0.0,2.1639,1.6725,1.3559,1.1715,1.0774,0.8915,0.8113,0.8196,1.0154,1.085,0.0,0.0,0.0,0.0,0.0,0.0,0.0,1.3476,1.3893,1.4231,1.37,1.4231,1.4902,0.0,0.0,0.0,0.0,0.0,0.0,0.0,0.0,0.0,0.0,0.0,0.0,0.0,0.0,0.0,0.0,0.0,0.0,0.0,0.0,0.0,0.0,0.0,0.0,0.0,3.3653,3.4044,3.4477,3.5556,3.6489,3.6974,3.7947,3.8672,3.9148,3.9325,3.9537,3.9798,4.0104,4.0188,4.0121,4.037,4.0436,4.0404,4.068,4.084,4.0935,4.1076,4.1093,4.1145,4.2061,4.203,4.1433,4.2216,4.2121,4.1622,4.1842,4.1895,4.1884,0.0,0.0,0.0,0.0,0.0,0.0,0.0,0.0,0.0,0.0,0.0,0.0,0.0,0.0,0.0,0.0,0.0,0.0,0.0,0.0,0.0,0.0,0.0,0.0,0.0,0.0,0.0,0.0,0.0,0.0,0.0,0.0,0.0,1.9589,0.0,1.7413,1.2942,1.0773,0.8812,0.7095,0.6234,0.629,0.7125,0.9184,1.0362,1.1113,1.2639,0.0,0.0,0.0,0.0,0.0,0.0,0.0,1.4868,1.443,1.4505,1.4838,0.0,0.0,0.0,0.0,0.0,0.0,0.0,0.0,0.0,0.0,0.0,0.0,0.0,0.0,0.0,0.0,0.0,0.0,0.0,0.0,0.0,0.0,0.0,0.0,3.4287,3.4729,3.5155,3.5424,3.631,3.7128,3.7617,3.8197,3.8672,3.904,3.9325,3.959,3.9781,4.0087,4.0188,4.0188,4.0337,4.0436,4.0502,4.0697,4.0888,4.1,4.1047,4.114,4.1204,4.219,4.2306,4.1963,4.2888,4.2805,4.2238,4.2238,4.2123,4.2037,0.0,0.0,0.0,0.0,0.0,0.0,0.0,0.0,0.0,0.0,0.0,0.0,0.0,0.0,0.0,0.0,0.0,0.0,0.0,0.0,0.0,0.0,0.0,0.0,0.0,0.0,0.0,0.0,0.0,0.0,0.0,0.0,0.0,1.62,0.0,1.3733,0.9909,0.9684,0.7848,0.5097,0.6129,0.6764,0.7336,0.9367,1.0431,1.108,1.2451,1.3297,1.3829,1.4772,0.0,0.0,0.0,0.0,1.5192,1.5135,1.4909,1.4889,0.0,0.0,0.0,0.0,0.0,0.0,0.0,0.0,0.0,0.0,0.0,0.0,0.0,0.0,0.0,0.0,0.0,0.0,0.0,0.0,0.0,0.0,0.0,0.0,3.537,3.589,3.6276,3.6378,3.7101,3.7727,3.8237,3.8391,3.86,3.8914,3.9309,3.959,3.9729,3.9986,4.0138,4.0255,4.0305,4.0453,4.0697,4.0697,4.084,4.1047,4.1093,4.1152,4.1233,4.2265,4.2492,4.2352,4.3506,4.3506,4.2881,4.2881,4.2695,4.2341,0.0,0.0,0.0,0.0,0.0,0.0,0.0,0.0,0.0,0.0,2.1058,2.0933,0.0,0.0,0.0,0.0,0.0,0.0,0.0,0.0,0.0,0.0,0.0,0.0,0.0,0.0,0.0,0.0,0.0,0.0,0.0,0.0,0.0,1.0686,0.0,0.0,0.5659,0.5835,0.5803,0.565,0.632,0.6894,0.7456,0.8977,0.9949,1.0793,1.2274,1.3399,1.4155,1.4468,1.4755,0.0,0.0,0.0,1.4369,1.4112,1.4573,0.0,0.0,0.0,0.0,0.0,0.0,0.0,0.0,0.0,0.0,0.0,0.0,0.0,0.0,0.0,0.0,0.0,0.0,0.0,0.0,0.0,0.0,0.0,0.0,0.0,3.6011,3.6305,3.6677,3.7216,3.7605,3.8017,3.8335,3.8711,3.9094,3.9379,3.9573,3.9729,3.9901,4.0037,4.0037,3.9952,4.0205,4.0453,4.0697,4.0697,4.0793,4.0935,4.1088,4.1152,4.1244,4.2964,4.2818,4.1747,4.402,4.4062,4.2798,4.2798,4.2801,4.2705,0.0,0.0,0.0,0.0,0.0,0.0,0.0,0.0,0.0,0.0,0.0,2.2149,0.0,0.0,0.0,0.0,0.0,0.0,0.0,0.0,0.0,0.0,0.0,0.0,0.0,0.0,0.0,0.0,0.0,0.0,0.0,0.9896,0.9429,0.0,0.0,0.0,0.0,0.0,0.5598,0.622,0.6795,0.7341,0.7942,0.0,0.991,1.0746,1.1727,1.2802,1.3867,1.4263,1.5006,1.5648,1.5384,0.0,0.0,0.0,0.0,0.0,0.0,0.0,0.0,0.0,0.0,0.0,0.0,0.0,0.0,0.0,0.0,0.0,0.0,0.0,0.0,0.0,0.0,0.0,0.0,0.0,0.0,0.0,0.0,0.0,3.6289,3.6429,3.6723,3.7358,3.7669,3.7976,3.8391,3.8655,3.8914,3.9202,3.952,3.9729,3.9781,3.9986,4.0087,4.0155,4.0255,4.0453,4.0697,4.0697,4.0793,4.1029,4.1134,4.147,4.2039,4.3355,4.3717,4.3617,4.512,4.4782,4.343,4.3476,4.3004,4.2238,0.0,0.0,0.0,0.0,0.0,0.0,0.0,0.0,0.0,0.0,0.0,0.0,0.0,0.0,0.0,0.0,0.0,0.0,0.0,0.0,0.0,0.0,0.0,0.0,0.0,0.0,0.0,0.0,0.0,0.0,0.6284,0.6408,0.6252,0.0,0.5562,0.0,0.0,0.0,0.0,0.0,0.7345,0.7847,0.0,0.0,0.0,0.0,0.0,0.0,0.0,0.0,0.0,0.0,0.0,0.0,0.0,0.0,0.0,0.0,0.0,0.0,0.0,0.0,0.0,0.0,0.0,0.0,0.0,0.0,0.0,0.0,0.0,0.0,0.0,0.0,0.0,0.0,0.0,0.0,0.0,0.0,0.0,0.0,3.6492,3.6616,3.6846,3.7476,3.7685,3.7976,3.8464,3.86,3.8805,3.9094,3.9468,3.9677,3.9677,3.9935,4.0138,4.0305,4.0305,4.0404,4.0648,4.0697,4.081,4.1017,4.1343,4.1882,4.2556,4.3705,4.4383,4.4839,4.5804,4.5225,4.3904,4.4014,4.3198,4.2044,0.0,0.0,0.0,0.0,0.0,0.0,0.0,0.0,0.0,0.0,0.0,0.0,0.0,0.0,0.0,0.0,0.0,0.0,0.0,0.0,0.0,0.0,0.0,0.0,0.0,0.0,0.0,0.0,0.0,0.0,0.7391,0.7461,0.7357,0.6998,0.6597,0.6418,0.6413,0.0,0.0,0.0,0.7932,0.815,0.0,0.0,0.0,0.0,0.0,0.0,0.0,0.0,0.0,0.0,0.0,0.0,0.0,0.0,0.0,0.0,0.0,0.0,0.0,0.0,0.0,0.0,0.0,0.0,0.0,0.0,0.0,0.0,0.0,0.0,0.0,0.0,0.0,0.0,0.0,0.0,0.0,0.0,0.0,3.6163,3.6662,3.6862,3.7241,3.7817,3.8017,3.8246,3.856,3.8821,3.9094,3.9272,3.9573,3.9677,3.9677,3.9849,4.0054,4.0305,4.0305,4.0387,4.0534,4.0648,4.0697,4.0796,4.1886,4.231,4.2371,4.4126,4.4415,4.3925,4.5428,4.5128,4.3904,4.3904,4.3469,4.2705,0.0,0.0,0.0,0.0,0.0,0.0,0.0,0.0,0.0,0.0,0.0,0.0,0.0,0.0,2.1131,2.0583,2.0544,0.0,0.0,0.0,0.0,0.0,0.0,0.0,0.0,0.0,0.0,0.0,0.0,0.6861,0.7262,0.7458,0.733,0.6835,0.7077,0.6951,0.6673,0.6934,0.0,0.0,0.7783,0.8175,0.0,0.0,0.0,0.0,0.0,0.0,0.0,0.0,0.0,0.0,0.0,0.0,0.0,0.0,0.0,0.0,0.0,0.0,0.0,0.0,0.0,0.0,0.0,0.0,0.0,0.0,0.0,0.0,0.0,0.0,0.0,0.0,0.0,0.0,0.0,0.0,0.0,0.0,0.0,3.6163,3.6538,3.7188,3.762,3.7583,3.8275,3.8631,3.8616,3.8694,3.9128,3.9967,3.9734,3.9642,3.9849,3.9935,4.0138,4.0305,4.0387,4.0485,4.0666,4.1274,4.1547,4.1616,4.3201,4.3249,4.2319,4.3698,4.4353,4.4603,4.58,4.5304,4.395,4.4107,4.3341,4.215,0.0,0.0,0.0,0.0,0.0,2.4508,0.0,0.0,0.0,0.0,0.0,0.0,0.0,0.0,0.0,2.0554,1.9597,1.9628,2.1067,1.7843,0.0,0.0,0.0,0.0,0.0,0.0,0.0,0.0,0.0,0.0,0.0,0.0,0.7565,0.712,0.7563,0.739,0.0,0.0,0.0,0.6968,0.0,0.8225,0.828,0.0,0.0,0.0,0.0,0.0,0.0,0.0,0.0,0.0,0.0,0.0,0.0,0.0,0.0,0.0,0.0,0.0,0.0,0.0,0.0,0.0,0.0,0.0,0.0,0.0,0.0,0.0,0.0,0.0,0.0,0.0,0.0,0.0,0.0,0.0,0.0,0.0,0.0,3.685,3.7295,3.7997,3.8293,3.7947,3.8642,0.0,3.8672,3.8694,3.9089,4.0055,3.9734,3.9694,3.9901,3.9986,4.0087,4.0238,4.0387,4.0485,4.0585,4.1501,4.1805,4.165,4.3464,4.3756,4.3048,4.4152,4.4879,4.5387,4.609,4.5558,4.4413,4.4304,4.343,4.2263,0.0,2.9489,2.8027,2.7194,2.5582,2.3826,0.0,0.0,0.0,0.0,0.0,0.0,0.0,0.0,0.0,2.0221,1.7615,1.6317,1.7112,1.4395,0.0,0.0,0.0,0.0,0.0,0.0,0.0,0.0,0.0,0.0,0.0,0.0,0.8179,0.0,0.8085,0.7645,0.6815,0.0,0.7076,0.7185,0.0,0.8325,0.8054,0.0,0.0,0.0,1.1428,1.3137,0.0,0.0,0.0,0.0,0.0,0.0,0.0,0.0,0.0,0.0,0.0,0.0,0.0,0.0,0.0,0.0,0.0,0.0,0.0,0.0,0.0,0.0,0.0,0.0,0.0,0.0,0.0,0.0,0.0,0.0,0.0,0.0,0.0,3.829,3.8978,3.925,3.9297,3.9042,3.9184,3.9136,3.887,3.8838,3.9056,3.9501,3.9659,3.9815,3.9934,3.9918,4.0003,4.0155,4.0255,4.0305,4.0322,4.1388,4.1452,4.0851,4.2593,4.3796,4.4574,4.5573,4.602,4.6151,4.6186,4.594,4.5404,4.4607,4.3899,4.3188,2.9783,2.9058,2.8217,2.7985,2.5971,2.4015,0.0,0.0,0.0,0.0,0.0,0.0,0.0,0.0,0.0,1.3963,1.3156,1.3145,1.4,1.0833,0.9382,1.0366,0.0,0.0,0.0,0.0,0.0,0.0,0.0,0.0,0.0,0.0,0.0,0.0,0.7692,0.7521,0.7318,0.7444,0.0,0.0,0.8366,0.8739,0.0,0.0,0.0,0.0,0.0,1.3861,1.5581,0.0,1.7771,1.7427,0.0,0.0,0.0,0.0,0.0,0.0,1.819,0.0,0.0,0.0,0.0,0.0,2.34,2.5258,2.706,0.0,0.0,0.0,0.0,0.0,0.0,0.0,0.0,0.0,0.0,0.0,0.0,0.0,0.0,3.9365,3.9563,4.0525,4.0928,0.0,4.018,3.9998,3.964,3.9886,3.998,3.9642,4.0213,4.0587,4.0675,4.017,4.0256,4.1036,4.0643,4.0485,4.0651,4.2152,4.2684,4.263,4.4232,4.4801,4.4539,4.5015,4.525,4.5334,4.6169,4.6065,4.5333,4.4734,4.4057,4.3422,2.8886,2.8058,2.7229,2.7221,2.4213,2.1975,0.0,0.0,0.0,0.0,0.0,0.0,0.0,0.0,0.0,0.0,1.0166,0.9741,1.0321,0.7233,0.5704,0.0,0.0,0.0,0.0,0.0,0.0,0.0,0.0,0.0,0.0,0.0,0.0,0.0,0.0,0.0,0.0,0.0,0.0,0.0,0.8515,0.0,0.0,1.0104,1.1339,0.0,0.0,0.0,1.6465,1.842,1.8637,0.0,0.0,0.0,0.0,0.0,0.0,0.0,0.0,0.0,0.0,0.0,0.0,0.0,2.4285,2.5952,2.7649,0.0,0.0,0.0,0.0,0.0,0.0,0.0,0.0,0.0,0.0,0.0,0.0,0.0,0.0,4.082,4.1357,4.1952,4.2075,4.1486,4.1216,4.0733,4.0104,4.0176,4.0077,3.9694,4.0096,4.0436,4.0523,4.0354,4.0526,4.0934,4.0965,4.0891,4.0748,4.2147,4.2558,4.2351,4.4004,4.4329,4.3669,4.4544,4.4935,4.5085,4.6099,4.6307,4.5868,4.4858,4.4484,4.4375,0.0,2.6765,2.5549,2.5096,2.1138,0.0,0.0,0.0,0.0,0.0,0.0,0.0,0.0,0.0,0.0,0.0,0.7769,0.6302,0.6498,0.4058,0.0,0.0,0.0,0.0,0.0,0.0,0.0,0.0,0.0,0.0,0.0,0.0,0.0,0.0,0.9323,0.9304,0.0,0.0,0.0,0.751,0.8749,0.9063,0.0,0.0,1.1129,0.0,1.3407,1.5245,1.7156,1.9183,2.0025,0.0,0.0,0.0,0.0,0.0,2.0105,0.0,0.0,0.0,0.0,0.0,0.0,0.0,2.6384,2.7253,2.8262,3.1219,0.0,0.0,0.0,0.0,0.0,0.0,0.0,0.0,0.0,0.0,0.0,0.0,0.0,4.2427,4.3668,4.3357,4.2956,4.2655,4.2048,4.1301,4.0442,3.9954,3.9763,3.9847,3.9847,3.9949,4.0136,4.0687,4.0845,4.061,4.1289,4.1319,4.0779,4.176,4.1843,4.1294,4.2836,4.3088,4.2514,4.4209,4.4984,4.5198,4.6051,4.6542,4.6571,4.5025,4.4991,4.5561,2.6307,2.5936,2.4643,2.1299,0.0,0.0,0.0,0.0,0.0,0.0,0.0,0.0,0.0,0.0,0.0,0.0,0.0,0.324,0.0,0.0,0.0,0.0,0.0,0.0,0.0,0.0,0.0,0.0,0.0,0.0,0.0,0.0,0.0,0.0,0.9304,0.9639,0.0,0.0,0.0,0.9411,0.9414,0.0,0.9888,1.1283,1.2401,1.3449,1.473,1.5753,1.6779,0.0,2.0082,2.1411,0.0,0.0,0.0,0.0,0.0,0.0,0.0,0.0,0.0,0.0,0.0,0.0,2.4745,2.5606,2.6674,0.0,0.0,0.0,0.0,0.0,0.0,0.0,0.0,0.0,0.0,0.0,0.0,0.0,0.0,4.3919,4.4543,4.4172,4.3965,4.4104,4.2239,4.114,4.1153,4.0238,4.005,4.0863,4.0828,4.1098,4.1794,4.1946,4.2052,4.2228,4.1918,4.1515,4.1034,4.1825,4.251,4.2992,4.3336,4.3088,4.2514,4.4209,4.5001,4.5168,4.6051,4.6429,4.6371,4.5481,4.5389,4.5614,2.3012,2.2209,2.0632,1.6403,0.0,0.0,0.0,0.0,0.0,0.0,0.0,0.0,0.0,0.0,0.0,0.0,0.0,0.0,0.0,0.0,0.0,0.0,0.0,0.0,0.0,0.0,0.0,0.0,0.0,0.0,0.0,0.0,0.0,0.0,0.0,0.0,0.0,0.0,0.9848,1.0073,1.0006,0.0,1.0797,1.193,1.3256,1.4545,1.5463,1.6975,1.8817,2.0029,2.0917,0.0,0.0,2.1996,2.1998,0.0,2.2435,2.2699,0.0,0.0,0.0,2.3978,0.0,0.0,0.0,2.7074,2.7851,2.8986,3.0353,0.0,0.0,0.0,0.0,0.0,0.0,0.0,0.0,0.0,0.0,0.0,0.0,4.482,4.5649,4.525,4.4892,4.4935,4.3108,4.2094,4.2176,4.098,4.0387,4.0646,4.0932,4.1356,4.185,4.2206,4.255,4.2826,4.2123,4.1705,4.1536,4.166,4.1868,4.2202,4.2422,4.2259,4.1922,4.3663,4.4225,4.4138,4.5394,4.6111,4.6353,4.5251,4.5194,4.5641,1.974,1.7922,1.5621,1.1335,0.0,0.0,0.0,0.0,0.0,0.0,0.0,0.0,0.0,0.0,0.0,0.0,0.0,0.0,0.0,0.0,0.0,0.0,0.0,0.4045,0.0,0.0,0.0,0.0,0.0,0.0,0.0,0.0,0.0,0.0,0.0,0.0,0.0,0.0,0.0,1.0477,0.0,1.1009,1.136,1.2276,1.3666,1.5217,1.6227,1.8419,2.0928,2.1614,0.0,2.1632,2.3067,2.3257,0.0,0.0,0.0,0.0,0.0,0.0,0.0,0.0,0.0,2.6394,0.0,0.0,0.0,3.0075,0.0,0.0,0.0,0.0,0.0,0.0,0.0,0.0,0.0,0.0,0.0,0.0,4.405,4.5142,4.5886,4.5427,4.5111,4.526,4.3571,4.2746,4.333,4.1887,4.0875,4.0527,4.1273,4.1578,4.1342,4.2312,4.286,4.2911,4.2173,4.1894,4.2006,4.1464,4.1204,4.1237,4.1495,4.1498,4.145,4.305,4.3311,4.2873,4.4618,4.5753,4.6218,4.4979,4.5151,4.5945,1.8241,1.5102,1.1201,0.6972,0.0,0.0,0.0,0.0,0.0,0.0,0.0,0.0,0.0,0.0,0.0,0.0,0.0,0.0,0.2952,0.0,0.0,0.0,0.0,0.0,0.5393,0.0,0.0,0.0,0.0,0.0,0.0,0.0,0.0,0.0,1.0478,0.0,0.0,0.0,1.1526,0.0,1.1757,1.142,0.0,1.2243,1.3525,1.5028,1.7922,1.9727,2.0751,0.0,2.1457,2.2416,0.0,2.2921,2.503,0.0,0.0,0.0,0.0,0.0,0.0,0.0,2.6027,0.0,0.0,0.0,2.8155,2.8935,0.0,0.0,0.0,0.0,0.0,0.0,0.0,0.0,0.0,0.0,0.0,3.9198,4.2595,4.4692,4.3844,4.3347,4.3699,4.5049,4.2179,4.1692,4.4564,4.2812,4.1829,4.2033,4.2955,4.2717,4.1221,4.3031,4.3494,4.2706,4.2205,4.2058,4.2137,4.1482,4.1638,4.2376,4.1813,4.1648,4.1807,4.2652,4.2653,4.2316,4.447,4.5417,4.5528,4.5351,4.5932,4.6882,1.4508,1.1747,0.7617,0.3305,0.0,0.0,0.0,0.0,0.0,0.0,0.0,0.0,0.0,0.0,0.0,0.0,0.0,0.2647,0.0,0.0,0.0,0.0,0.0,0.0,0.0,0.0,0.0,0.0,0.675,0.0,0.0,0.0,0.0,0.0,1.0718,0.0,1.1699,0.0,0.0,0.0,0.0,0.0,0.0,1.3485,1.5175,1.7101,1.9217,2.0666,2.1631,0.0,2.2101,0.0,0.0,0.0,0.0,0.0,0.0,0.0,0.0,0.0,0.0,0.0,0.0,0.0,2.8387,0.0,2.8812,0.0,0.0,0.0,0.0,0.0,0.0,0.0,3.3811,0.0,0.0,0.0,0.0,0.0,0.0,0.0,4.3782,4.4088,4.4885,4.6504,4.4105,4.3294,4.5016,4.3437,4.2488,4.2392,4.3316,4.332,4.2245,4.3117,4.3373,4.2979,4.1874,4.1674,4.2185,4.1528,4.1446,4.1898,4.1789,4.1736,4.185,4.2697,4.2642,4.2197,4.3607,4.444,4.4822,4.4449,4.4858,4.5624,1.0297,0.0,0.0,0.0,0.0,0.0,0.0,0.0,0.0,0.0,0.0,0.0,0.1566,0.1654,0.0,0.0,0.0,0.283,0.0,0.0,0.3803,0.0,0.0,0.0,0.0,0.0,0.0,0.6349,0.6756,0.0,0.0,0.0,0.0,0.0,0.0,1.1279,1.197,0.0,0.0,1.2284,1.3243,1.4001,1.4542,1.5287,1.6973,1.9013,2.015,2.1325,2.2249,2.2321,2.2419,0.0,2.4609,0.0,0.0,0.0,0.0,0.0,2.6788,0.0,0.0,0.0,0.0,0.0,0.0,0.0,0.0,0.0,0.0,0.0,0.0,0.0,0.0,0.0,0.0,3.3643,0.0,0.0,0.0,0.0,0.0,0.0,0.0,4.3653,4.4647,4.6467,4.4814,4.4135,4.5228,4.4095,4.3259,4.2873,4.3577,4.3528,4.2603,4.2804,4.2837,4.2787,4.1557,4.138,4.2185,4.1528,4.1318,4.1426,4.1648,4.1797,4.1876,4.2528,4.2676,4.2537,4.3141,4.3853,4.4458,4.4036,4.4328,4.5025,0.6015,0.3214,0.0,0.0,0.0,0.0,0.0,0.0,0.0,0.0,0.0,0.0,0.0,0.0,0.0,0.0,0.0,0.2898,0.3923,0.0,0.3987,0.0,0.0,0.4651,0.0,0.0,0.0,0.6473,0.6774,0.7225,0.0,0.0,0.0,0.0,0.0,1.0631,1.0897,1.1916,1.2993,1.4138,1.4495,1.6047,1.8061,0.0,1.8342,1.9901,2.0741,0.0,0.0,2.1217,2.187,0.0,0.0,0.0,0.0,0.0,0.0,0.0,0.0,0.0,0.0,2.9028,0.0,0.0,0.0,0.0,3.0491,0.0,0.0,0.0,0.0,0.0,0.0,0.0,0.0,0.0,0.0,0.0,0.0,0.0,0.0,0.0,0.0,4.063,4.1255,4.373,4.2575,4.2925,4.546,4.4891,4.4258,4.3868,4.4026,4.3306,4.168,4.1928,4.1977,4.183,4.1315,4.1492,4.2185,4.1638,4.138,4.1426,4.156,4.1754,4.2005,4.2023,4.2594,4.3483,4.35,4.3964,4.4624,4.4736,4.528,4.6068,0.1147,0.0,0.0,0.0,0.0,0.0,0.0,0.0869,0.0,0.0,0.0,0.0,0.0,0.0,0.2103,0.0,0.0,0.3064,0.3655,0.3928,0.0,0.0,0.0,0.47,0.0,0.0,0.0,0.6437,0.6895,0.7415,0.0,0.0,0.0,0.0,0.0,1.1487,0.0,0.0,0.0,0.0,0.0,1.7502,1.8279,0.0,1.9501,2.0409,2.0816,2.1577,0.0,2.2078,2.2422,2.3197,2.4334,2.5074,2.5841,2.7846,2.8641,2.9016,0.0,0.0,3.0491,3.0164,0.0,0.0,0.0,0.0,0.0,0.0,0.0,0.0,0.0,0.0,0.0,0.0,0.0,0.0,0.0,0.0,0.0,0.0,0.0,0.0,0.0,0.0,0.0,4.3739,4.3612,4.4034,4.551,4.5055,4.4695,4.4763,4.4336,4.3649,4.2668,4.2817,4.2414,4.1332,4.1764,4.1841,4.1673,4.1503,4.1515,4.1666,4.222,4.2326,4.2168,4.3233,4.3604,4.3554,4.4053,4.4392,4.4624,4.4668,4.5168,4.5971,-0.1225,0.0,0.0,0.0,0.0,0.0,0.0,0.0,0.0,0.0,0.1176,0.0,0.1638,0.0,0.2132,0.0,0.2746,0.3036,0.3501,0.388,0.0,0.447,0.461,0.0,0.0,0.0,0.0,0.6372,0.6991,0.7654,0.8486,0.0,0.0,0.0,0.0,0.0,0.0,0.0,1.4978,0.0,0.0,1.8774,0.0,0.0,2.022,2.0455,0.0,2.1851,2.2543,2.2506,2.2755,2.3483,2.5253,2.5834,2.6297,2.8764,2.9389,2.954,3.0639,3.1371,0.0,3.1293,3.1792,0.0,3.1632,0.0,0.0,0.0,0.0,0.0,0.0,0.0,0.0,0.0,0.0,0.0,0.0,3.3864,0.0,0.0,0.0,0.0,0.0,0.0,4.0387,4.2968,4.3478,4.4181,0.0,4.5124,4.5032,4.5247,4.4578,4.3872,4.3264,4.3314,4.2601,4.1123,4.198,4.2039,4.138,4.1471,4.1718,4.2194,4.2642,4.3023,4.3324,4.4369,4.4902,4.5143,4.5606,4.5847,4.5856,4.5614,4.6007,4.6775,-0.1189,-0.12,0.0,0.0,-0.0156,0.0,0.0,0.0,0.0612,0.0,0.1234,0.1335,0.1664,0.1827,0.2002,0.2147,0.2502,0.0,0.3516,0.3669,0.0,0.0,0.4745,0.482,0.5168,0.0,0.0,0.0,0.0,0.7988,0.9207,0.0,0.0,0.0,1.0271,0.0,1.3111,1.3736,1.5223,1.7375,1.9044,1.9977,2.0398,2.0816,2.0588,2.0194,2.1422,2.2297,2.2787,2.2371,2.2848,2.3821,2.506,2.6493,2.8195,3.0332,3.1205,3.1689,3.2465,3.2357,3.2045,3.2348,3.2762,0.0,0.0,0.0,3.4257,0.0,0.0,0.0,0.0,0.0,0.0,0.0,0.0,0.0,0.0,0.0,0.0,0.0,0.0,0.0,0.0,3.6219,3.7973,4.1237,4.2142,0.0,0.0,4.5161,4.5214,4.5372,4.463,4.3955,4.3276,4.3195,4.2483,4.1209,4.2062,4.2091,4.1495,4.1665,4.2131,4.2868,4.2903,4.3856,4.5305,4.5376,4.6401,4.7951,4.8022,4.8152,4.8186,4.7491,4.768,4.836,-0.1468,-0.1038,-0.0625,0.0,-0.0054,0.0111,0.0,0.0,0.0,0.0,0.1329,0.1697,0.1692,0.2199,0.2576,0.247,0.2876,0.0,0.0,0.0,0.0,0.5229,0.4703,0.4781,0.5615,0.5571,0.0,0.6668,0.0,0.0,0.9319,0.0,0.0,0.0,0.0,0.0,1.4347,1.4597,1.6351,1.9044,2.0302,2.0335,1.9894,0.0,2.1235,2.0834,2.1533,2.2161,2.2739,2.2457,2.298,2.402,2.5664,2.6816,2.7973,2.994,3.0921,3.1485,3.2165,3.2732,3.3147,3.3015,3.3582,3.4066,3.3782,0.0,0.0,0.0,0.0,0.0,0.0,0.0,0.0,0.0,0.0,0.0,0.0,0.0,0.0,3.438,0.0,0.0,3.356,3.6137,3.8504,3.9853,4.1714,0.0,0.0,0.0,4.4144,4.4885,4.4138,4.3357,4.2641,4.2688,4.2294,4.138,4.2818,4.308,4.2334,4.3015,4.3366,4.35,4.4208,4.4888,4.5534,4.6684,4.7199,4.7362,4.8538,4.8984,4.8925,4.8314,4.785,4.7671,-0.1523,0.0,0.0,-0.0369,0.0,0.0,-0.0057,0.0231,0.0,0.0625,0.1268,0.0,0.1575,0.1996,0.2284,0.232,0.2696,0.0,0.3431,0.0,0.0,0.4561,0.4356,0.4527,0.5103,0.5262,0.0,0.6388,0.0,0.0,0.9477,0.0,0.0,0.0,0.0,1.2405,0.0,1.5901,1.7624,1.9665,2.0658,2.0825,0.0,2.1625,2.1959,2.1935,2.2311,2.2665,2.2969,2.2859,2.3599,2.4807,2.6156,2.7294,2.8488,3.0129,3.1029,3.1652,3.2437,3.314,3.3719,3.3989,3.4793,3.5453,3.5057,3.5688,3.6661,0.0,3.8181,3.8671,0.0,0.0,0.0,0.0,0.0,0.0,0.0,0.0,0.0,0.0,3.5374,0.0,3.302,3.6335,3.8722,3.9095,4.0638,0.0,0.0,0.0,4.3415,4.3666,4.3924,4.3506,4.2474,4.3166,4.2812,4.1488,4.3074,4.3582,4.3197,4.3331,4.3927,4.4844,4.5348,4.5879,4.6464,4.7967,4.8293,4.785,4.8478,4.9032,4.9406,4.907,4.8452,4.7895,-0.141,0.0,0.0,0.0,0.0,0.0,0.0,0.0171,0.0,0.0893,0.0,0.1436,0.1402,0.1624,0.1765,0.1895,0.0,0.2613,0.2848,0.333,0.3626,0.3561,0.3868,0.4163,0.4401,0.474,0.0,0.0,0.0,0.0,0.0,0.0,0.0,0.0,0.0,0.0,0.0,1.7344,1.8912,1.993,2.074,2.1411,2.1851,2.2235,2.2665,2.3198,2.345,2.3509,2.3509,2.3446,2.44,2.5719,2.6658,2.7949,2.9373,3.072,3.1407,3.2018,3.2964,3.3523,3.4016,3.5015,3.6122,3.6925,3.6757,3.8251,3.9676,3.9752,3.9939,4.0557,4.1937,0.0,0.0,0.0,0.0,0.0,0.0,0.0,0.0,0.0,0.0,0.0,3.3659,3.6643,3.8651,3.8495,0.0,0.0,0.0,0.0,4.2861,4.2584,4.392,4.3916,4.2474,4.3794,4.358,4.192,4.3267,4.402,4.4138,4.3553,4.4295,4.6172,4.6172,4.6677,4.7535,4.8889,4.922,4.8791,4.8258,4.8633,4.9521,4.9736,4.9188,4.8631,0.0,0.0,0.0,0.0,0.0,-0.0357,-0.0244,0.0253,0.0713,0.1034,0.1429,0.1532,0.1349,0.1959,0.2279,0.2023,0.2555,0.0,0.0,0.0,0.0,0.3977,0.4016,0.4195,0.4677,0.4624,0.5228,0.0,0.0,0.0,0.0,0.0,0.0,0.0,0.0,0.0,1.6661,1.8397,0.0,2.1144,2.183,2.2161,2.2359,2.2969,2.333,2.3569,2.4015,2.4073,2.4015,2.4105,2.5012,2.6274,2.729,2.8509,2.9857,3.1155,3.1921,3.2437,3.3208,3.3899,3.4628,3.5885,3.6803,3.7646,3.8576,3.9758,4.0699,4.0953,4.2056,4.2929,4.2786,4.2503,0.0,0.0,0.0,0.0,0.0,0.0,0.0,0.0,0.0,3.901,0.0,3.6917,0.0,0.0,0.0,0.0,0.0,0.0,4.2259,0.0,4.3927,4.3313,0.0,0.0,4.3261,4.35,4.4448,4.5124,4.5621,4.5628,4.5737,4.6023,4.6122,4.6727,4.7615,4.7996,4.8551,4.915,4.8431,4.8322,4.8711,5.0038,4.9701,4.8982,0.0,0.0,0.0,0.0,0.0,0.0,0.0,0.0197,0.04,0.0583,0.0937,0.1087,0.0925,0.1383,0.1704,0.1684,0.2133,0.2509,0.2766,0.2955,0.3086,0.3076,0.3207,0.0,0.3893,0.3963,0.4523,0.5768,0.0,0.0,0.0,0.0,0.0,0.0,0.0,1.5372,0.0,0.0,0.0,2.1332,2.2067,2.2482,2.2751,2.3513,2.3799,2.3949,2.4531,2.4744,2.4708,2.4892,2.5832,2.7211,2.8068,2.9348,3.0746,3.1788,3.2312,3.2765,3.3539,3.436,3.5366,3.6464,3.783,3.9015,3.9642,4.0623,4.1484,4.1724,4.2814,4.3743,4.3906,4.321,4.2205,0.0,0.0,0.0,0.0,0.0,0.0,0.0,0.0,0.0,0.0,0.0,0.0,0.0,0.0,0.0,0.0,0.0,4.1904,0.0,0.0,0.0,4.2798,0.0,4.3617,4.3904,4.4776,4.5761,4.6735,4.6786,4.7046,4.7415,4.7465,4.7565,4.7696,4.7745,4.8121,4.8562,4.7778,4.7847,4.8486,4.9632,5.0257,5.0631,0.0,-0.0943,0.0,0.0,-0.0611,0.0,0.0129,0.0066,0.0067,0.0327,0.0589,0.0721,0.0587,0.0821,0.1058,0.1332,0.161,0.1882,0.2116,0.242,0.2447,0.2272,0.2542,0.2846,0.3061,0.3215,0.3823,0.0,0.0,0.0,0.0,0.0,0.0,0.0,0.0,0.0,0.0,0.0,2.0989,2.1555,2.2504,2.296,2.3267,2.4226,2.4516,2.4564,2.5263,2.5616,2.567,2.598,2.689,2.8082,2.8937,3.0241,3.1567,3.2231,3.2656,3.3087,3.3832,3.4691,3.5728,3.7024,3.8659,4.0014,4.0336,4.1252,4.204,4.204,4.2977,4.4031,4.4661,4.3925,4.3033,0.0,0.0,0.0,0.0,0.0,0.0,0.0,0.0,0.0,3.9135,0.0,0.0,0.0,0.0,0.0,4.1383,0.0,0.0,0.0,0.0,4.429,4.3676,0.0,4.4683,4.4904,4.5651,4.6653,4.7871,4.7731,4.794,4.8496,4.8496,4.8155,4.7612,4.7789,4.785,4.7796,4.7137,4.7418,4.8344,4.9392,5.0581,5.1784,0.0,0.0,0.0,0.0,0.0,-0.0579,-0.0065,-0.0132,0.0067,0.0871,0.0959,0.0827,0.0806,0.0985,0.1151,0.1194,0.144,0.17,0.2194,0.2574,0.2677,0.2507,0.3051,0.3285,0.3141,0.2904,0.3585,0.0,0.0,0.7644,0.0,0.0,0.0,0.0,0.0,0.0,2.0889,2.1531,2.2135,2.2809,2.3885,2.4151,2.4041,2.5387,2.5818,2.573,2.6432,2.684,2.7201,2.7739,2.814,2.8668,2.9802,3.0968,3.2038,3.2437,3.2888,3.345,3.425,3.4595,3.5345,3.7648,3.8782,3.9669,4.0856,4.1812,4.2276,4.1601,4.2958,4.4304,4.4418,4.5503,4.5854,4.4246,0.0,0.0,0.0,0.0,0.0,0.0,0.0,0.0,0.0,4.0896,0.0,0.0,3.9405,0.0,0.0,0.0,0.0,4.278,4.2994,4.3029,4.2903,4.4975,4.673,4.8152,4.824,4.8696,4.9451,4.8784,4.8186,4.7703,4.7703,4.7409,4.6955,4.7702,4.7718,4.7259,4.7169,4.7365,4.7847,5.0009,5.0569,5.0679,0.0,0.0,0.0,0.0,0.0,0.0,0.0,-0.0069,-0.0069,0.0689,0.0618,0.0545,0.0472,0.0919,0.1161,0.1006,0.1492,0.1763,0.1858,0.2063,0.2295,0.2507,0.2862,0.3168,0.337,0.3576,0.4368,0.0,0.0,0.0,0.0,0.0,0.0,1.9016,2.0087,2.0984,2.1677,2.2603,2.3268,2.3739,2.4139,2.448,2.4912,2.6035,2.6301,2.6224,2.7018,2.7459,2.7776,2.8857,2.9218,2.9376,3.0321,3.1308,3.2262,3.285,3.333,3.3797,3.4349,3.5053,3.595,3.7331,3.8494,3.9589,4.0727,4.1042,4.1378,4.2342,4.3989,4.5416,4.5989,4.5726,4.534,4.519,0.0,0.0,0.0,0.0,0.0,0.0,0.0,0.0,0.0,0.0,0.0,0.0,0.0,0.0,0.0,0.0,0.0,4.4261,0.0,4.5188,4.5554,4.6059,4.7061,4.8556,4.8573,4.896,4.9697,4.9855,4.9661,4.9224,4.9323,4.8928,4.8313,4.8633,4.8407,4.7823,4.7357,4.7249,4.7543,4.8938,4.9613,5.0226,-0.1576,0.0,-0.0948,0.0,-0.0593,-0.0335,0.007,-0.0141,-0.0142,0.0283,0.0279,0.0275,0.0341,0.0846,0.1157,0.1166,0.1583,0.1852,0.1864,0.2065,0.2297,0.2586,0.2953,0.0,0.3955,0.4447,0.5379,0.6962,0.9432,0.0,0.0,1.6779,1.9667,2.1212,2.2247,2.2701,2.2774,2.3979,2.4394,2.4315,2.4833,2.5204,2.5679,2.6713,2.6995,2.6992,2.7925,2.8405,2.8797,2.9944,3.0408,3.058,3.1086,3.1986,3.3037,3.3593,3.421,3.4818,3.5284,3.5958,3.6827,3.7757,3.9101,4.0339,4.0941,4.1254,4.1874,4.3388,4.4465,4.549,4.6627,4.5538,4.4731,4.5566,4.4649,0.0,0.0,4.4784,0.0,0.0,4.3173,4.3341,4.3624,4.2287,0.0,0.0,0.0,0.0,0.0,0.0,0.0,0.0,0.0,0.0,4.6046,4.6266,4.7061,4.8538,4.8732,4.9293,5.0048,5.0453,5.0452,5.0246,5.0396,5.0049,4.9317,4.9317,4.9073,4.8621,4.7913,4.7697,4.7911,4.919,4.9568,4.9884,-0.1195,-0.1052,-0.0978,-0.0805,-0.055,-0.028,-0.028,-0.0287,-0.0291,-0.0291,-0.0146,0.0144,0.0562,0.077,0.1134,0.1746,0.1825,0.1991,0.2492,0.2876,0.2984,0.0,0.0,0.4216,0.494,0.5287,0.649,0.8453,0.0,0.0,1.5127,1.9124,2.1836,2.3376,2.3839,2.4357,2.482,2.5936,2.5652,2.4625,2.6254,2.6596,2.6295,2.7591,2.817,2.8403,2.9261,2.9993,3.0555,3.1233,3.1879,3.2382,3.2382,3.3412,3.459,3.4718,3.5675,3.6765,3.7303,3.7467,3.7831,3.9289,4.1004,4.2181,4.1796,4.3065,4.4421,4.4648,4.3947,4.3874,4.5666,4.5078,4.4565,4.5368,4.4766,0.0,0.0,4.4551,0.0,4.3172,4.1697,4.1722,4.421,4.3131,0.0,0.0,0.0,0.0,0.0,0.0,0.0,4.3049,4.3112,0.0,4.2868,4.5098,4.7029,4.8608,4.9328,5.0101,5.0855,5.0329,5.013,5.0112,5.0396,5.0049,4.9317,4.943,4.9554,4.9603,4.8946,4.8746,4.9184,5.1574,5.0959,4.9383,-0.2134,-0.1758,-0.1332,-0.1142,-0.0688,-0.028,-0.014,-0.0072,0.0,0.0291,0.0219,0.0439,0.1034,0.1183,0.1409,0.0,0.1899,0.2324,0.0,0.3176,0.3611,0.4347,0.4876,0.5632,0.6688,0.765,0.9126,1.1126,0.0,1.718,2.1286,2.2262,2.39,2.6059,2.6225,2.6229,2.6155,2.6698,2.6579,2.6087,2.6837,2.722,2.7473,2.8195,2.8587,2.8958,2.9699,3.0358,3.0925,3.1465,3.212,3.2851,3.3537,3.4216,3.4819,3.5101,3.5675,3.6439,3.7382,3.6844,3.6514,3.8567,3.9311,3.9777,4.0727,4.2226,4.3445,4.3678,4.3886,4.4205,4.4907,4.458,4.4479,4.541,4.4842,4.4362,4.46,0.0,4.4607,4.3358,4.4121,4.491,4.5339,4.5285,0.0,0.0,0.0,0.0,0.0,0.0,0.0,0.0,4.5255,0.0,4.6086,4.7219,4.831,4.9346,4.9976,5.0556,5.1034,5.0928,5.1012,5.1215,5.1265,5.1173,5.0852,4.9877,4.9572,4.9567,4.8369,4.7951,4.8242,4.9564,4.9908,5.0017,-0.231,-0.1918,-0.1547,-0.1344,-0.0688,-0.0211,-0.0213,-0.0073,0.0074,0.0375,0.03,0.0528,0.1074,0.1458,0.1848,0.2254,0.2678,0.3127,0.3693,0.4267,0.4787,0.5355,0.6559,0.7741,0.8808,1.0476,1.2242,1.4102,1.7475,2.1129,2.4829,2.4883,2.5858,2.7456,2.7456,2.721,2.6816,2.7477,2.7373,2.6944,2.7528,2.7964,2.8249,2.8651,2.9085,2.9526,3.0129,3.0777,3.1509,3.2266,3.3005,3.3675,3.4317,3.5187,3.5995,3.6277,3.6885,3.7569,3.8369,3.7831,3.7506,3.9543,4.0009,4.0352,4.1885,4.2839,4.3378,4.3296,4.3811,4.425,4.4055,4.3994,4.4309,4.519,4.4586,4.4254,4.4922,4.4928,4.4599,0.0,0.0,4.4936,4.5223,4.5283,4.529,0.0,0.0,0.0,0.0,0.0,4.5836,4.564,4.6028,4.6413,4.6733,4.7375,4.8098,4.8837,4.9837,5.0503,5.1052,5.1141,5.135,5.1556,5.1961,5.1976,5.1619,5.088,5.0742,5.0897,4.9478,4.9133,4.9601,5.0416,5.0633,5.0814,-0.1967,-0.1361,-0.1063,-0.1279,-0.0274,0.035,-0.0362,-0.0223,0.0076,0.0539,0.0389,0.0625,0.1394,0.2086,0.2741,0.3489,0.3734,0.4095,0.4534,0.5782,0.6363,0.6204,0.8563,1.0408,1.1404,1.3583,1.5687,1.7666,2.1634,2.447,2.6252,2.704,2.7536,2.7908,2.7908,2.7616,2.7152,2.8214,2.8133,2.7407,2.8443,2.8817,2.8716,2.9035,2.9588,3.019,3.0658,3.1409,3.2303,3.3432,3.4179,3.4622,3.483,3.6173,3.7744,3.7887,3.8698,3.9714,4.0003,3.9969,4.0121,4.1747,4.2514,4.3208,4.4524,4.4488,4.3968,4.3334,4.3726,4.3968,4.3191,4.3515,4.4091,4.4749,4.4099,4.4127,4.5851,4.4785,4.3924,4.4306,4.3076,4.2793,4.4324,4.3766,4.4145,0.0,0.0,0.0,0.0,0.0,4.4911,4.5863,4.5853,4.5744,4.5464,4.6134,4.6825,4.7485,4.8977,5.0083,5.0857,5.1034,5.1158,5.1386,5.2426,5.2422,5.174,5.2102,5.2612,5.3032,5.1718,5.1665,5.2426,5.3295,5.2625,5.1647,-0.2815,0.1464,0.3749,-0.095,0.2738,0.4849,0.0359,-0.0521,0.109,0.6117,0.2841,0.1986,0.6973,0.7812,0.6557,0.2959,0.2871,0.3794,0.5902,0.6254,0.7307,0.9558,1.127,1.2881,1.4468,1.6444,1.9068,2.2359,2.4242,2.5954,2.7591,2.7881,2.83,2.8766,2.8766,2.8684,2.8639,2.9156,2.9079,2.8702,2.9317,2.9449,2.9415,2.9741,3.0158,3.0687,3.1043,3.2098,3.3274,3.3123,3.3808,3.4915,3.5674,3.6434,3.6957,3.7112,3.7899,3.8957,4.0085,3.9357,3.8749,4.1036,4.2053,4.2767,4.3752,4.3314,4.2746,4.3005,4.3066,4.3163,4.3489,4.3568,4.3805,4.4471,4.4051,4.401,4.5042,4.5027,4.4979,4.5035,4.5135,4.5417,4.6023,4.5711,4.5341,0.0,0.0,4.4901,4.4991,4.4725,4.5508,4.7522,4.7406,4.7262,4.7214,4.7178,4.7553,4.8257,4.9223,4.9838,5.0154,5.0823,5.1211,5.1507,5.234,5.2337,5.174,5.2036,5.1898,5.1412,5.067,5.0488,5.0832,5.2263,5.2154,5.1647,-0.2843,0.0332,0.1893,-0.1403,0.3771,0.7305,0.3972,0.5947,0.9214,1.318,1.0931,1.0458,1.453,1.5121,1.413,1.1487,0.8974,0.7525,0.7432,0.8491,1.0349,1.3058,1.4925,1.6563,1.7985,2.0039,2.2596,2.5599,2.6532,2.7464,2.839,2.8546,2.8894,2.9352,2.9212,2.9212,2.9352,2.9713,2.9665,2.9352,2.9775,2.9898,2.9865,3.0097,3.0522,3.1058,3.1394,3.2448,3.3737,3.3841,3.4517,3.5412,3.6443,3.6975,3.7291,3.7463,3.8199,3.9226,4.0169,3.9595,3.9219,4.0954,4.2121,4.2839,4.2813,4.2441,4.2154,4.2106,4.2334,4.258,4.28,4.31,4.3652,4.4499,4.3484,4.3333,4.5382,4.4812,4.4571,4.558,4.5926,4.6172,4.6416,4.6172,4.5839,4.5329,4.5564,0.0,4.5368,4.6191,4.6924,4.7558,4.75,4.7536,4.7811,4.7548,4.7817,4.8572,4.8643,4.9064,4.982,5.0295,5.0858,5.1438,5.2426,5.249,5.1862,5.2942,5.3093,5.2606,5.1999,5.2172,5.2842,5.3403,5.353,5.3675,-0.1133,0.0735,0.1938,0.0884,0.6625,1.1031,0.9774,1.4546,1.8913,2.0612,2.0053,2.0258,2.2165,2.2403,2.2183,2.1684,1.8138,1.4388,1.0621,1.2157,1.4321,1.6698,1.886,2.0479,2.1402,2.3721,2.584,2.778,2.8447,2.8864,2.9118,2.9317,2.9477,2.9727,2.9574,2.9574,2.9789,3.0068,3.0021,2.9789,3.0111,3.0233,3.0172,3.0326,3.0807,3.1467,3.1787,3.2828,3.4073,3.4989,3.5594,3.6188,3.7096,3.767,3.8074,3.8295,3.9037,3.9833,4.0205,4.0288,4.0436,4.1348,4.2247,4.2757,4.1933,4.176,4.1679,4.1251,4.1672,4.2116,4.1923,4.2523,4.3299,4.4062,4.2798,4.2727,4.5645,4.4505,4.4085,4.5993,4.6073,4.6073,4.6172,4.5972,4.6025,4.6397,4.6956,4.7058,4.661,4.7948,4.8146,4.6784,4.7013,4.7257,4.7568,4.7322,4.7588,4.8322,4.7817,4.824,4.9521,4.9925,5.0558,5.1386,5.2687,5.2802,5.2261,5.4206,5.49,5.4652,5.3953,5.4562,5.5758,5.5124,5.5305,5.5957,0.5013,1.4459,2.0752,1.4675,1.9601,2.2739,1.7745,1.8157,2.1126,2.6771,2.2827,2.1467,2.673,2.6879,2.5018,2.1207,2.485,2.5129,1.991,1.7755,1.7987,2.0866,2.2206,2.3395,2.4426,2.6481,2.8032,2.9214,2.9394,2.9876,3.0651,3.0571,3.0387,3.0205,3.0326,3.0447,3.0462,3.0507,3.0507,3.0447,3.0836,3.0776,3.0582,3.0895,3.1366,3.2,3.2688,3.3919,3.518,3.5577,3.63,3.7122,3.7563,3.7916,3.8347,3.9082,3.9558,3.9952,4.0205,4.06,4.1138,4.2027,4.155,4.1082,4.1907,4.1178,4.0543,4.1343,4.1487,4.1625,4.2192,4.2248,4.2032,4.1476,4.2573,4.3507,4.3482,4.4641,4.567,4.6137,4.6172,4.6172,4.6172,4.6172,4.6502,4.7319,4.6843,4.6822,4.7368,4.724,4.6932,4.6495,4.7262,4.7303,4.6463,4.6414,4.6467,4.659,4.7783,4.8468,4.8749,5.0259,5.1035,5.1369,5.3085,5.3488,5.3068,5.4932,5.5302,5.4652,5.3953,5.4255,5.507,5.4943,5.4979,5.5269,1.1792,1.6911,2.026,1.6812,2.2167,2.5919,2.2886,2.5805,2.9574,3.2969,3.0698,3.0074,3.3526,3.385,3.2988,3.0931,3.2425,3.2372,2.9743,2.4719,2.2896,2.5169,2.5704,2.676,2.8384,2.9597,3.0692,3.1627,3.1825,3.1826,3.1605,3.154,3.1158,3.0568,3.0702,3.0762,3.0881,3.094,3.1071,3.1243,3.1072,3.1145,3.1229,3.1191,3.1734,3.26,3.3249,3.455,3.5973,3.6198,3.6757,3.7442,3.8199,3.8388,3.8467,3.9425,3.9901,4.0155,4.0337,4.0648,4.1022,4.1679,4.1346,4.0964,4.1381,4.0935,4.0548,4.1103,4.1078,4.1291,4.2392,4.2518,4.2564,4.2851,4.3114,4.3541,4.4371,4.4607,4.5096,4.5885,4.5972,4.5972,4.5972,4.5972,4.6355,4.7192,4.728,4.7382,4.7498,4.7682,4.7409,4.6512,4.6848,4.6883,4.6512,4.6319,4.6432,4.697,4.7623,4.8345,4.917,5.0118,5.0839,5.1386,5.249,5.305,5.3329,5.4729,5.5333,5.5383,5.507,5.5432,5.6084,5.5649,5.5776,5.6247,1.8462,1.9653,2.0483,1.9967,2.4704,2.8451,2.7997,3.2787,3.6685,3.7294,3.7168,3.7374,3.8297,3.8661,3.8979,3.9352,3.7888,3.6903,3.6955,3.1355,2.8247,2.8944,2.8995,2.9691,3.1199,3.1802,3.2478,3.3346,3.3471,3.3184,3.252,3.23,3.1854,3.126,3.1013,3.1176,3.1575,3.1367,3.1634,3.2085,3.1589,3.1574,3.1987,3.1931,3.2417,3.3215,3.4012,3.5206,3.6479,3.6956,3.7343,3.7757,3.8679,3.8821,3.8855,3.9578,3.9986,4.0288,4.0387,4.0534,4.0745,4.1152,4.118,4.1133,4.1173,4.0986,4.0916,4.1177,4.1127,4.1367,4.2426,4.284,4.3267,4.406,4.3598,4.3645,4.5072,4.4634,4.4547,4.5681,4.5821,4.5821,4.5821,4.5871,4.6272,4.73,4.7561,4.7683,4.7711,4.8023,4.7682,4.6625,4.6495,4.6495,4.6684,4.6368,4.6586,4.7283,4.7586,4.8344,4.9486,5.015,5.0748,5.142,5.2283,5.3001,5.3698,5.4936,5.5776,5.6247,5.6066,5.6482,5.7098,5.6283,5.65,5.7188,2.4611,2.9411,3.3169,3.1649,3.3154,3.4586,3.4606,3.6273,3.7656,3.79,3.7922,3.7874,3.7878,3.7762,3.8158,3.9301,3.8435,3.8038,3.857,3.6451,3.4055,3.1594,3.168,3.1571,3.102,3.1747,3.2483,3.322,3.2688,3.2909,3.3864,3.2898,3.2524,3.2591,3.1663,3.1976,3.306,3.1812,3.202,3.3149,3.2586,3.2408,3.2572,3.3442,3.3645,3.3624,3.553,3.6311,3.6574,3.7874,3.8351,3.8557,3.8733,3.9206,3.9558,3.9415,3.9729,4.0138,4.0121,4.0337,4.0534,4.0697,4.0776,4.1056,4.1938,4.1632,4.1366,4.2126,4.2171,4.2176,4.2375,4.2936,4.3183,4.2671,4.3565,4.4225,4.3802,4.4746,4.5545,4.5752,4.5922,4.5972,4.5972,4.6073,4.6786,4.8276,4.7119,4.6993,4.8516,4.7315,4.6552,4.659,4.6495,4.6381,4.6429,4.627,4.6256,4.6326,4.7935,4.8743,4.8902,5.0606,5.1452,5.1594,5.3516,5.4349,5.4561,5.631,5.7062,5.7043,5.6283,5.6482,5.7098,5.6283,5.65,5.7188,3.0576,3.2143,3.3526,3.3542,3.4399,3.5025,3.4839,3.5784,3.654,3.6619,3.6331,3.6392,3.7306,3.725,3.7729,3.9219,3.8791,3.8444,3.8482,3.7271,3.5459,3.3075,3.3264,3.3281,3.3001,3.3893,3.4457,3.4653,3.4682,3.468,3.4598,3.4072,3.3572,3.3081,3.2794,3.2975,3.3408,3.29,3.3153,3.385,3.3471,3.3502,3.377,3.4166,3.4537,3.4957,3.6143,3.6921,3.7451,3.8141,3.8504,3.8655,3.886,3.9202,3.9673,4.0282,4.0289,4.0324,4.129,4.1186,4.0776,4.0888,4.1298,4.1791,4.2228,4.2437,4.2597,4.2892,4.2864,4.297,4.3469,4.3815,4.4007,4.4248,4.4767,4.5078,4.475,4.5217,4.5581,4.5581,4.5718,4.5821,4.577,4.5922,4.6652,4.8137,4.7771,4.8066,4.9395,4.8084,4.7103,4.6749,4.6525,4.6381,4.6381,4.627,4.6467,4.6958,4.808,4.8939,4.9519,5.0803,5.1402,5.1558,5.3121,5.4026,5.4615,5.5912,5.6736,5.717,5.6862,5.6935,5.7152,5.6862,5.6985,5.7289,3.3617,3.3162,3.2912,3.3405,3.3997,3.4359,3.4126,3.481,3.5316,3.5396,3.5318,3.5599,3.6344,3.6902,3.7551,3.832,3.8447,3.8383,3.8141,3.7401,3.6029,3.4061,3.4357,3.4475,3.4154,3.5145,3.5614,3.5536,3.5861,3.5783,3.529,3.4861,3.44,3.3862,3.3632,3.3724,3.4098,3.3679,3.3978,3.4633,3.4254,3.4331,3.4755,3.5003,3.5365,3.582,3.66,3.7287,3.7876,3.8205,3.8432,3.8711,3.8914,3.9404,4.0074,4.1218,4.1187,4.1052,4.2261,4.2055,4.1547,4.166,4.223,4.2783,4.2978,4.3311,4.3625,4.3625,4.356,4.3646,4.3922,4.4302,4.4716,4.501,4.5303,4.5511,4.5406,4.5476,4.5528,4.5423,4.5632,4.577,4.5667,4.6115,4.688,4.8102,4.8312,4.8592,4.9217,4.8147,4.7222,4.6702,4.6495,4.6398,4.635,4.6319,4.6657,4.7397,4.8221,4.908,4.9958,5.0927,5.1596,5.2068,5.3175,5.4165,5.5008,5.5966,5.6699,5.7188,5.7257,5.7239,5.7239,5.7239,5.7356,5.7437,3.3073,3.3088,3.2967,3.2206,3.2741,3.3198,3.3198,3.385,3.4349,3.4497,3.5447,3.5758,3.4916,3.6721,3.7554,3.6515,3.7311,3.7844,3.77,3.7241,3.6274,3.4662,3.5124,3.5021,3.4159,3.5018,3.5536,3.5701,3.5536,3.5707,3.5958,3.5087,3.488,3.5154,3.4035,3.4262,3.5415,3.4083,3.4373,3.5627,3.4979,3.4894,3.5278,3.6168,3.6183,3.5854,3.6823,3.7449,3.7759,3.8001,3.8399,3.8805,3.8969,3.9752,4.0809,4.196,4.2286,4.2339,4.2619,4.2826,4.2928,4.2962,4.3442,4.3973,4.4234,4.4285,4.4285,4.4285,4.4285,4.4112,4.337,4.4389,4.5147,4.4406,4.4906,4.5389,4.5389,4.5406,4.5423,4.5423,4.5632,4.577,4.5787,4.6655,4.7577,4.8416,4.8521,4.8307,4.7847,4.7193,4.6684,4.6381,4.6381,4.635,4.6221,4.635,4.6755,4.7397,4.834,4.925,5.0145,5.1081,5.2085,5.3157,5.4083,5.5044,5.5988,5.683,5.7188,5.7188,5.7356,5.7388,5.7388,5.7388,5.7504,5.7601,3.2934,3.2773,3.2782,3.3399,3.385,3.4068,3.3866,3.4184,3.4448,3.4497,3.4852,3.5405,3.619,3.6739,3.7316,3.8025,3.789,3.7567,3.7241,3.7165,3.6769,3.5943,3.6085,3.5765,3.4879,3.5738,3.6014,3.5536,3.5876,3.6012,3.6148,3.5761,3.5649,3.5767,3.5437,3.5483,3.5831,3.5422,3.5483,3.5879,3.5793,3.5905,3.6137,3.6523,3.6722,3.6792,3.7219,3.7551,3.7876,3.8205,3.8488,3.8711,3.9094,3.9823,4.0788,4.1741,4.1718,4.1741,4.3474,4.3634,4.3214,4.2997,4.3563,4.4182,4.4285,4.4699,4.5079,4.5079,4.5079,4.501,4.4785,4.5113,4.5284,4.4991,4.5216,4.5353,4.5283,4.5353,4.5423,4.5423,4.5632,4.5996,4.6465,4.6917,4.7787,4.924,4.9588,4.9224,4.8027,4.7725,4.7287,4.656,4.6542,4.6495,4.635,4.6319,4.6706,4.7548,4.839,4.9319,5.0264,5.1132,5.2085,5.3157,5.4083,5.5044,5.5988,5.683,5.7188,5.7188,5.7356,5.7388,5.7388,5.7504,5.7649,5.7697,3.2884,3.312,3.3547,3.4237,3.442,3.442,3.4214,3.4127,3.4198,3.4371,3.4734,3.5342,3.6173,3.6726,3.7253,3.7906,3.7873,3.7583,3.7241,3.727,3.7259,3.7188,3.7142,3.6677,3.5753,3.6338,3.6476,3.6074,3.6276,3.6461,3.6538,3.6289,3.6163,3.6163,3.61,3.6085,3.6085,3.6085,3.6085,3.6085,3.6274,3.6414,3.6616,3.6662,3.6892,3.7194,3.7254,3.7741,3.8499,3.8888,3.9291,3.9738,4.0315,4.0735,4.1233,4.2345,4.244,4.2538,4.4035,4.4125,4.3796,4.3591,4.4059,4.456,4.4664,4.5026,4.5371,4.53,4.5371,4.5337,4.5027,4.5111,4.5161,4.4799,4.5058,4.5247,4.5177,4.5318,4.5423,4.5423,4.5632,4.6082,4.683,4.737,4.819,4.9592,4.9528,4.9124,4.8519,4.7879,4.7406,4.7181,4.6797,4.6542,4.6495,4.7033,4.758,4.8137,4.8582,4.9478,5.0794,5.1325,5.2347,5.3674,5.4327,5.5256,5.6454,5.6957,5.7188,5.7188,5.7406,5.7504,5.7504,5.7649,5.7745,5.7839,3.2924,3.397,3.4936,3.4777,3.4638,3.4514,3.4415,3.3937,3.3784,3.4281,3.4991,3.5401,3.537,3.6701,3.7372,3.6746,3.7419,3.7775,3.7559,3.7543,3.7783,3.834,3.8169,3.7577,3.6646,3.6909,3.7001,3.6954,3.68,3.68,3.6938,3.6616,3.6492,3.6492,3.6336,3.6196,3.6258,3.6258,3.6258,3.6274,3.6476,3.6616,3.6708,3.6723,3.6952,3.7194,3.7105,3.7951,3.9307,3.9943,4.0734,4.1568,4.2177,4.2162,4.2159,4.3406,4.3906,4.4097,4.4253,4.435,4.4502,4.4502,4.4742,4.5032,4.514,4.53,4.5371,4.5247,4.53,4.5216,4.4509,4.473,4.4864,4.4284,4.4692,4.5189,4.528,4.5472,4.563,4.563,4.5823,4.6325,4.7108,4.8015,4.8855,4.9539,4.8767,4.8448,4.8946,4.7666,4.7204,4.7879,4.7074,4.6673,4.6743,4.8218,4.8962,4.8909,4.8985,4.9953,5.1612,5.1747,5.2824,5.4583,5.4733,5.5731,5.7188,5.7188,5.7206,5.7239,5.7504,5.7601,5.7649,5.7745,5.7904,5.7997,3.3826,3.4619,3.537,3.5315,3.5139,3.5032,3.5181,3.4851,3.4675,3.4895,3.5415,3.5896,3.6127,3.6588,3.7011,3.7196,3.7397,3.767,3.8072,3.8225,3.8525,3.9078,3.8544,3.8059,3.7701,3.7655,3.7281,3.6616,3.6554,3.6554,3.6616,3.6554,3.6554,3.6662,3.6476,3.6476,3.6585,3.6585,3.6585,3.6585,3.68,3.6984,3.7074,3.6984,3.7165,3.7405,3.7314,3.8114,3.943,4.1048,4.2435,4.3473,4.3047,4.3317,4.3762,4.3531,4.3704,4.3956,4.3998,4.4155,4.435,4.4446,4.4686,4.4886,4.5032,4.5211,4.5371,4.5247,4.5406,4.5477,4.5199,4.5233,4.5232,4.5024,4.5571,4.6052,4.6052,4.6711,4.7254,4.7346,4.7507,4.7909,4.8709,4.9818,5.0031,4.9009,4.954,4.9185,4.74,4.7672,4.7665,4.7062,4.6884,4.7051,4.769,4.8551,4.9029,4.9128,5.0335,5.1487,5.2567,5.272,5.3713,5.5356,5.5563,5.6237,5.7188,5.7188,5.7239,5.7388,5.7553,5.7649,5.7792,5.7904,5.7997,5.7997,3.4538,3.5137,3.5707,3.5764,3.5633,3.5578,3.5789,3.5364,3.5102,3.543,3.5661,3.6004,3.6526,3.6705,3.6968,3.7358,3.7852,3.8157,3.8106,3.8544,3.9031,3.9544,3.9167,3.898,3.898,3.8932,3.8135,3.6616,3.6554,3.6554,3.6754,3.6754,3.6987,3.7452,3.6986,3.7017,3.7313,3.7002,3.68,3.6723,3.6938,3.706,3.7136,3.748,3.7789,3.7986,3.8302,3.9545,4.1383,4.3043,4.4049,4.4558,4.4229,4.424,4.4331,4.4031,4.4098,4.4195,4.3997,4.4056,4.4253,4.435,4.4592,4.4831,4.4886,4.5086,4.5247,4.514,4.53,4.5476,4.5423,4.5353,4.5421,4.5799,4.6106,4.6467,4.6918,4.7386,4.7755,4.7885,4.8047,4.8467,4.9414,5.0189,5.0082,4.8814,4.9128,4.8806,4.7435,4.754,4.7586,4.7458,4.7084,4.7102,4.7529,4.9368,4.9955,4.9274,5.0791,5.1803,5.2332,5.291,5.3886,5.5086,5.5667,5.6432,5.7188,5.7188,5.7289,5.7388,5.7553,5.7697,5.7792,5.795,5.7997,5.7997,3.5054,3.5583,3.6035,3.6079,3.6001,3.6029,3.6228,3.5765,3.5488,3.5942,3.6024,3.6274,3.6832,3.708,3.7342,3.76,3.8455,3.8713,3.8246,3.8919,3.9591,4.0153,3.9967,3.9987,4.0325,4.0025,3.8994,3.7142,3.6955,3.7033,3.7296,3.7296,3.7654,3.8184,3.7588,3.7512,3.7779,3.7172,3.6862,3.6723,3.6938,3.7077,3.7294,3.7855,3.8353,3.879,3.9375,4.1263,4.3668,4.5,4.5391,4.5342,4.5538,4.5306,4.4924,4.4871,4.4863,4.4782,4.4205,4.4098,4.4155,4.4253,4.4536,4.4793,4.4793,4.4978,4.5123,4.5032,4.5194,4.5423,4.5423,4.5404,4.5696,4.6493,4.666,4.6966,4.782,4.8027,4.8152,4.832,4.8483,4.8853,4.9627,4.9907,4.9621,4.8602,4.8418,4.817,4.7761,4.7387,4.7426,4.7961,4.7337,4.7051,4.7194,5.0049,5.0905,4.9745,5.1215,5.1981,5.2118,5.3082,5.4008,5.4907,5.5822,5.6573,5.7188,5.7188,5.7289,5.7455,5.7553,5.7697,5.7857,5.795,5.7997,5.7997,3.5064,3.5799,3.6507,3.6245,3.6117,3.6185,3.6552,3.6428,3.6283,3.6552,3.7095,3.7514,3.7591,3.8006,3.8376,3.8585,3.8743,3.9038,3.9532,3.9773,4.0462,4.1757,4.0696,4.0435,4.1229,3.9937,3.9074,3.8793,3.857,3.849,3.857,3.857,3.837,3.8029,3.7857,3.753,3.714,3.6831,3.6723,3.6723,3.6938,3.7419,3.8089,3.7539,3.8273,3.9672,3.9891,4.1996,4.4755,4.5651,4.6301,4.6669,4.689,4.7043,4.6979,4.6453,4.6003,4.5545,4.4936,4.4465,4.4155,4.4253,4.444,4.4643,4.4643,4.4831,4.5032,4.4978,4.523,4.5389,4.5423,4.5924,4.6389,4.6579,4.7571,4.8449,4.8851,4.9326,4.9837,5.0178,5.0233,5.0115,4.9732,4.9732,4.9204,4.7862,4.8434,4.8267,4.6867,4.7459,4.7577,4.702,4.7005,4.7319,4.8015,4.9781,5.0954,5.1585,5.299,5.3654,5.3706,5.4158,5.5104,5.6489,5.6888,5.7098,5.7188,5.7188,5.7356,5.7583,5.7601,5.7745,5.7997,5.7997,5.7997,5.7997,3.5953,3.6322,3.6662,3.6523,3.646,3.6674,3.7328,3.7357,3.7449,3.7888,3.8324,3.8527,3.8463,3.8647,3.8769,3.8815,3.9141,3.9415,3.9425,3.9847,4.0562,4.1635,4.1194,4.147,4.2485,4.1836,4.1539,4.1689,3.9872,3.9165,3.9523,3.9199,3.9341,3.9828,3.8717,3.8247,3.82,3.725,3.6862,3.6908,3.7405,3.7794,3.8278,3.9361,4.0277,4.1167,4.2735,4.4105,4.5365,4.6248,4.6686,4.6961,4.7115,4.7335,4.7389,4.6766,4.6595,4.645,4.5824,4.5554,4.5379,4.5166,4.5139,4.5094,4.4671,4.4682,4.4776,4.4886,4.5086,4.5404,4.5851,4.6178,4.6677,4.77,4.8407,4.9089,4.9634,4.9941,5.0206,5.0453,5.029,4.9941,4.9608,4.9363,4.8694,4.7568,4.8014,4.7811,4.6643,4.7068,4.7169,4.6795,4.738,4.7818,4.8175,5.07,5.1929,5.1889,5.3913,5.4665,5.4186,5.4804,5.5482,5.6147,5.6906,5.7188,5.7188,5.7188,5.7289,5.7504,5.7601,5.7697,5.7904,5.7997,5.795,5.7831]},{"header":{"parameterUnit":"m.s-1","parameterCategory":1,"la1":30.6,"la2":28.766,"lo1":-90.7593,"lo2":-88.6598,"dy":0.0162,"dx":0.0183,"nx":116,"ny":114,"refTime":"2024-02-17T18:00:00:Z","depth":0,"parameterNumber":3,"parameterNumberName":"V-component_of_WINDS"},"data":[0.0,0.0,0.0,0.0,0.0,0.0,0.0,0.0,0.0,0.0,0.0,0.0,0.0,0.0,0.0,0.0,0.0,0.0,0.0,0.0,0.0,0.0,0.0,0.0,0.0,0.0,0.0,0.0,0.0,0.0,0.0,0.0,0.0,0.0,0.0,0.0,0.0,0.0,0.0,0.0,0.0,0.0,0.0,0.0,0.0,0.0,0.0,0.0,0.0,0.0,0.0,0.0,0.0,0.0,0.0,0.0,0.0,0.0,0.0,0.0,0.0,0.0,0.0,0.0,0.0,0.0,0.0,0.0,0.0,0.0,0.0,0.0,0.0,0.0,0.0,0.0,0.0,0.0,0.0,0.0,0.0,0.0,0.0,0.0,0.0,0.0,0.0,0.0,0.0,0.0,0.0,0.0,0.0,0.0,0.0,0.0,0.0,0.0,0.0,0.0,0.0,0.0,0.0,0.0,0.0,0.0,0.0,0.0,0.0,0.0,0.0,0.0,0.0,0.0,0.0,0.0,0.0,0.0,0.0,0.0,0.0,0.0,0.0,0.0,0.0,0.0,0.0,0.0,0.0,0.0,0.0,0.0,0.0,0.0,0.0,0.0,0.0,0.0,0.0,0.0,0.0,0.0,0.0,0.0,0.0,0.0,0.0,0.0,0.0,0.0,0.0,0.0,0.0,0.0,0.0,0.0,0.0,0.0,0.0,0.0,0.0,0.0,0.0,0.0,0.0,0.0,0.0,0.0,0.0,0.0,0.0,0.0,0.0,0.0,0.0,0.0,0.0,0.0,0.0,0.0,0.0,0.0,0.0,0.0,0.0,0.0,0.0,0.0,0.0,0.0,0.0,0.0,0.0,0.0,0.0,0.0,0.0,0.0,0.0,0.0,0.0,0.0,0.0,0.0,0.0,0.0,0.0,0.0,0.0,0.0,0.0,0.0,0.0,0.0,0.0,0.0,0.0,0.0,0.0,0.0,0.0,0.0,0.0,0.0,0.0,0.0,0.0,0.0,0.0,0.0,0.0,0.0,0.0,0.0,0.0,0.0,0.0,0.0,0.0,0.0,0.0,0.0,0.0,0.0,0.0,0.0,0.0,0.0,0.0,0.0,0.0,0.0,0.0,0.0,0.0,0.0,0.0,0.0,0.0,0.0,0.0,0.0,0.0,0.0,0.0,0.0,0.0,0.0,0.0,0.0,0.0,0.0,0.0,0.0,0.0,0.0,0.0,0.0,0.0,0.0,0.0,0.0,0.0,0.0,0.0,0.0,0.0,0.0,0.0,0.0,0.0,0.0,0.0,0.0,0.0,0.0,0.0,0.0,0.0,0.0,0.0,0.0,0.0,0.0,0.0,0.0,0.0,0.0,0.0,0.0,0.0,0.0,0.0,0.0,0.0,0.0,0.0,0.0,0.0,0.0,0.0,0.0,0.0,0.0,0.0,0.0,0.0,0.0,0.0,0.0,0.0,0.0,0.0,0.0,0.0,0.0,0.0,0.0,0.0,0.0,0.0,0.0,0.0,0.0,0.0,0.0,0.0,0.0,0.0,0.0,0.0,0.0,0.0,0.0,0.0,0.0,0.0,0.0,0.0,0.0,0.0,0.0,0.0,0.0,0.0,0.0,0.0,0.0,0.0,0.0,0.0,0.0,0.0,0.0,0.0,0.0,0.0,0.0,0.0,0.0,0.0,0.0,0.0,0.0,0.0,0.0,0.0,0.0,0.0,0.0,0.0,0.0,0.0,0.0,0.0,0.0,0.0,0.0,0.0,0.0,0.0,0.0,0.0,0.0,0.0,0.0,0.0,0.0,0.0,0.0,0.0,0.0,0.0,0.0,0.0,0.0,0.0,0.0,0.0,0.0,0.0,0.0,0.0,0.0,0.0,0.0,0.0,0.0,0.0,0.0,0.0,0.0,0.0,0.0,0.0,0.0,0.0,0.0,0.0,0.0,0.0,0.0,0.0,0.0,0.0,0.0,0.0,0.0,0.0,0.0,0.0,0.0,0.0,0.0,0.0,0.0,0.0,0.0,0.0,0.0,0.0,0.0,0.0,0.0,0.0,0.0,0.0,0.0,0.0,0.0,0.0,0.0,0.0,0.0,0.0,0.0,0.0,0.0,0.0,0.0,0.0,0.0,0.0,0.0,0.0,0.0,0.0,0.0,0.0,0.0,0.0,0.0,0.0,0.0,0.0,0.0,0.0,0.0,0.0,0.0,0.0,0.0,0.0,0.0,0.0,0.0,0.0,0.0,0.0,0.0,0.0,0.0,0.0,0.0,0.0,0.0,0.0,0.0,0.0,0.0,0.0,0.0,0.0,0.0,0.0,0.0,0.0,0.0,0.0,0.0,0.0,0.0,0.0,0.0,0.0,0.0,0.0,0.0,0.0,0.0,0.0,0.0,0.0,0.0,0.0,0.0,0.0,0.0,0.0,0.0,0.0,0.0,0.0,0.0,0.0,0.0,0.0,0.0,0.0,0.0,0.0,0.0,0.0,0.0,0.0,0.0,0.0,0.0,0.0,0.0,0.0,0.0,0.0,0.0,0.0,0.0,0.0,0.0,0.0,0.0,0.0,0.0,0.0,0.0,0.0,0.0,0.0,0.0,0.0,0.0,0.0,0.0,0.0,0.0,0.0,0.0,0.0,0.0,0.0,0.0,0.0,0.0,0.0,0.0,0.0,0.0,0.0,0.0,0.0,0.0,0.0,0.0,0.0,0.0,0.0,0.0,0.0,0.0,0.0,0.0,0.0,0.0,0.0,0.0,0.0,0.0,0.0,0.0,0.0,0.0,0.0,0.0,0.0,0.0,0.0,0.0,0.0,0.0,0.0,0.0,0.0,0.0,0.0,0.0,0.0,0.0,0.0,0.0,0.0,0.0,0.0,0.0,0.0,0.0,0.0,0.0,0.0,0.0,0.0,0.0,0.0,0.0,0.0,0.0,0.0,0.0,0.0,0.0,0.0,0.0,0.0,0.0,0.0,0.0,0.0,0.0,0.0,0.0,0.0,0.0,0.0,0.0,0.0,0.0,0.0,0.0,0.0,0.0,0.0,0.0,0.0,0.0,0.0,0.0,0.0,0.0,0.0,0.0,0.0,0.0,0.0,0.0,0.0,0.0,0.0,0.0,0.0,0.0,0.0,0.0,0.0,0.0,0.0,0.0,0.0,0.0,0.0,0.0,0.0,0.0,0.0,0.0,0.0,0.0,0.0,0.0,0.0,0.0,0.0,0.0,0.0,0.0,0.0,0.0,0.0,0.0,0.0,0.0,0.0,0.0,0.0,0.0,0.0,0.0,0.0,0.0,0.0,0.0,0.0,0.0,0.0,0.0,0.0,0.0,0.0,0.0,0.0,0.0,0.0,0.0,0.0,0.0,0.0,0.0,0.0,0.0,0.0,0.0,0.0,0.0,0.0,0.0,0.0,0.0,0.0,0.0,0.0,0.0,0.0,0.0,0.0,0.0,0.0,0.0,0.0,0.0,0.0,0.0,0.0,0.0,0.0,0.0,0.0,0.0,0.0,0.0,0.0,0.0,0.0,0.0,0.0,0.0,0.0,0.0,0.0,0.0,0.0,0.0,0.0,0.0,0.0,0.0,0.0,0.0,0.0,0.0,0.0,0.0,0.0,0.0,0.0,0.0,0.0,0.0,0.0,0.0,0.0,0.0,0.0,0.0,0.0,0.0,0.0,0.0,0.0,0.0,0.0,0.0,0.0,0.0,0.0,0.0,0.0,0.0,0.0,0.0,0.0,0.0,0.0,0.0,0.0,0.0,0.0,0.0,0.0,0.0,0.0,0.0,0.0,0.0,0.0,0.0,0.0,0.0,0.0,0.0,0.0,0.0,0.0,0.0,0.0,0.0,0.0,0.0,0.0,0.0,0.0,0.0,0.0,0.0,0.0,0.0,0.0,0.0,0.0,0.0,0.0,0.0,0.0,0.0,0.0,0.0,0.0,0.0,0.0,0.0,0.0,0.0,0.0,0.0,0.0,0.0,0.0,0.0,0.0,0.0,0.0,0.0,0.0,0.0,0.0,0.0,0.0,0.0,0.0,0.0,0.0,0.0,0.0,0.0,0.0,0.0,0.0,0.0,0.0,0.0,0.0,0.0,0.0,0.0,0.0,0.0,0.0,0.0,0.0,0.0,0.0,0.0,0.0,0.0,0.0,0.0,0.0,0.0,0.0,0.0,0.0,0.0,0.0,0.0,0.0,0.0,0.0,0.0,0.0,0.0,0.0,0.0,0.0,0.0,0.0,0.0,0.0,0.0,0.0,0.0,0.0,0.0,0.0,0.0,0.0,0.0,0.0,0.0,0.0,0.0,0.0,0.0,0.0,0.0,0.0,0.0,0.0,0.0,0.0,0.0,0.0,0.0,0.0,0.0,0.0,0.0,0.0,0.0,0.0,0.0,0.0,0.0,0.0,0.0,0.0,0.0,0.0,0.0,0.0,0.0,0.0,0.0,0.0,0.0,0.0,0.0,0.0,0.0,0.0,0.0,0.0,0.0,0.0,0.0,0.0,0.0,0.0,0.0,0.0,0.0,0.0,0.0,0.0,0.0,0.0,0.0,0.0,0.0,0.0,0.0,0.0,0.0,0.0,0.0,0.0,0.0,0.0,0.0,0.0,0.0,0.0,0.0,0.0,0.0,0.0,0.0,0.0,0.0,0.0,0.0,0.0,0.0,0.0,0.0,0.0,0.0,0.0,0.0,0.0,0.0,0.0,0.0,0.0,0.0,0.0,0.0,0.0,0.0,0.0,0.0,0.0,0.0,0.0,0.0,0.0,0.0,0.0,0.0,0.0,0.0,0.0,0.0,0.0,0.0,0.0,0.0,0.0,0.0,0.0,0.0,0.0,0.0,0.0,0.0,0.0,0.0,0.0,0.0,0.0,0.0,0.0,0.0,0.0,0.0,0.0,0.0,0.0,0.0,0.0,0.0,0.0,0.0,0.0,0.0,0.0,0.0,0.0,0.0,0.0,0.0,0.0,0.0,0.0,0.0,0.0,0.0,0.0,0.0,0.0,0.0,0.0,0.0,0.0,0.0,0.0,0.0,0.0,0.0,0.0,0.0,0.0,0.0,0.0,0.0,0.0,0.0,0.0,0.0,0.0,0.0,0.0,0.0,0.0,0.0,0.0,0.0,0.0,0.0,0.0,0.0,0.0,0.0,0.0,0.0,0.0,0.0,0.0,0.0,0.0,0.0,0.0,0.0,0.0,0.0,0.0,0.0,0.0,0.0,0.0,0.0,0.0,0.0,0.0,0.0,0.0,0.0,0.0,0.0,0.0,0.0,0.0,0.0,0.0,0.0,0.0,0.0,0.0,0.0,0.0,0.0,0.0,0.0,0.0,0.0,0.0,0.0,0.0,0.0,0.0,0.0,0.0,0.0,0.0,0.0,0.0,0.0,0.0,0.0,0.0,0.0,0.0,0.0,0.0,0.0,0.0,0.0,0.0,0.0,0.0,0.0,0.0,0.0,0.0,0.0,0.0,0.0,0.0,0.0,0.0,0.0,0.0,0.0,0.0,0.0,0.0,0.0,0.0,0.0,0.0,0.0,0.0,0.0,0.0,0.0,0.0,0.0,0.0,0.0,0.0,0.0,0.0,0.0,0.0,0.0,0.0,0.0,0.0,0.0,0.0,0.0,0.0,0.0,0.0,0.0,0.0,0.0,0.0,0.0,0.0,0.0,0.0,0.0,0.0,0.0,0.0,0.0,0.0,0.0,0.0,0.0,0.0,0.0,0.0,0.0,0.0,0.0,0.0,0.0,0.0,0.0,0.0,0.0,0.0,0.0,0.0,0.0,0.0,0.0,0.0,0.0,0.0,0.0,0.0,0.0,0.0,0.0,0.0,0.0,0.0,0.0,0.0,0.0,0.0,0.0,0.0,0.0,0.0,0.0,0.0,0.0,0.0,0.0,0.0,0.0,0.0,0.0,0.0,0.0,0.0,0.0,0.0,0.0,0.0,0.0,0.0,0.0,0.0,0.0,0.0,0.0,0.0,0.0,0.0,0.0,0.0,0.0,0.0,0.0,0.0,0.0,0.0,0.0,0.0,0.0,0.0,0.0,0.0,0.0,0.0,0.0,0.0,0.0,0.0,0.0,0.9036,0.0,0.0,0.0,0.0,0.0,0.0,0.0,0.0,0.0,0.0,0.0,0.0,0.0,0.0,0.0,0.0,0.0,0.0,0.0,0.0,0.0,0.0,0.0,0.0,0.0,0.0,0.0,0.0,0.0,0.0,0.0,0.0,0.0,0.0,0.0,1.4016,1.3324,1.2271,1.0782,0.9821,0.8152,0.5719,0.4122,0.2233,0.0049,0.0,0.0,0.0,0.0,0.0,0.0,0.0,0.0,0.0,0.0,0.0,0.0,0.0,0.0,0.0,0.0,0.0,0.0,0.0,0.0,0.0,0.0,0.0,0.0,0.0,0.0,0.0,0.0,0.0,0.0,0.0,0.0,0.0,0.0,0.0,0.0,0.0,0.0,0.0,0.0,0.0,0.0,0.0,0.0,0.0,0.0,0.0,0.0,0.0,0.0,0.0,0.0,0.0,0.0,0.0,0.0,0.0,0.0,0.0,0.0,0.0,0.0,0.0,0.0,0.0,0.0,0.0,0.0,0.0,0.0,0.0,1.2099,0.0,0.0,0.0,0.0,0.0,0.0,0.0,0.0,0.0,0.0,0.0,0.0,0.0,0.0,0.0,0.0,0.0,0.0,0.0,0.0,0.0,0.0,0.0,1.5065,1.5783,1.662,1.752,1.7723,1.6979,1.7062,1.6857,1.6367,1.5582,1.5107,1.4953,1.4159,1.3154,1.2061,1.1347,0.9469,0.6477,0.4731,0.2735,0.0497,-0.1333,0.0,0.0,0.0,0.0,0.0,0.0,0.0,0.0,0.0,0.0,0.0,0.0,0.0,0.0,0.0,0.0,0.0,0.0,0.0,0.0,0.0,0.0,0.0,0.0,0.0,0.0,0.0,0.0,0.0,0.0,0.0,0.0,0.0,0.0,0.0,0.0,0.0,0.0,0.0,0.0,0.0,0.0,0.0,0.0,0.0,0.0,0.0,0.0,0.0,0.0,0.0,0.0,0.0,0.0,0.0,0.0,0.0,0.0,0.0,0.0,0.0,0.0,0.0,3.1234,3.1572,3.1815,3.269,3.4335,3.5962,2.7056,2.2044,1.974,1.3033,0.0,0.0,0.0,0.0,0.0,0.0,0.0,0.0,0.0,0.0,0.0,0.0,0.0,0.0,0.0,0.0,0.0,0.0,0.0,0.0,0.0,1.5358,1.6182,1.7746,1.7782,1.8047,1.8702,1.8171,1.7814,1.7733,1.7843,1.7293,1.5937,1.5579,1.5023,1.427,1.2028,1.0073,0.8393,0.61,0.4882,0.44,0.1093,0.0,0.0,0.0,0.0,0.0,0.0,0.0,0.0,0.0,0.0,0.0,0.0,0.0,0.0,0.0,0.0,0.0,0.0,0.0,0.0,0.0,0.0,0.0,0.0,0.0,0.0,0.0,0.0,0.0,0.0,0.0,0.0,0.0,0.0,0.0,0.0,0.0,0.0,0.0,0.0,0.0,0.0,0.0,3.2062,3.1131,0.0,0.0,0.0,0.0,0.0,0.0,0.0,0.0,0.0,0.0,0.0,0.0,0.0,2.9666,2.9933,3.1461,3.221,3.2251,3.4518,3.6078,3.6972,3.7887,3.8606,3.9011,3.7588,0.0,2.7899,2.0916,0.0,0.0,0.0,0.0,0.0,0.0,0.0,0.0,0.0,0.0,0.0,0.0,0.0,0.0,0.0,0.0,0.0,0.0,0.0,0.0,0.0,1.7171,1.8282,1.8668,2.0178,2.0753,1.9958,1.968,1.9277,1.8693,1.8502,1.8249,1.7958,1.7905,1.7517,1.6705,1.3947,1.1966,1.0751,0.9011,0.7731,0.6872,0.4793,0.2828,0.1113,0.0,0.0,0.0,0.0,0.0,0.0,0.0,0.0,0.0,0.0,0.0,0.0,0.0,0.0,0.0,0.0,0.0,0.0,0.0,0.0,0.0,0.0,0.0,0.0,0.0,0.0,0.0,0.0,0.0,0.0,0.0,0.0,0.0,0.0,0.0,0.0,0.0,0.0,0.0,0.0,3.0844,3.1225,3.0733,2.8896,2.7418,0.0,0.0,0.0,0.0,0.0,0.0,0.0,0.0,0.0,3.066,3.0859,3.1369,3.2327,3.3318,3.379,3.3808,3.5073,3.5916,3.6393,3.6834,3.7405,3.8024,3.8064,3.7035,3.4808,2.7811,2.4877,2.4399,0.0,0.0,0.0,0.0,1.202,0.878,0.0,0.0,0.0,0.0,0.0,0.0,0.0,0.0,0.0,0.0,0.0,0.0,1.6898,1.905,2.032,2.0095,2.2113,2.2499,2.0354,2.0593,2.0249,1.8969,1.8962,1.9161,1.9423,1.9628,1.922,1.8315,1.609,1.4532,1.3606,1.2134,1.0839,0.9639,0.8143,0.5589,0.2431,0.1027,0.1204,0.0,0.0,0.0,0.0,0.0,0.0,0.0,0.0,0.0,0.0,0.0,0.0,0.0,0.0,0.0,0.0,0.0,0.0,0.0,0.0,0.0,0.0,0.0,0.0,0.0,0.0,0.0,0.0,0.0,0.0,0.0,0.0,0.0,0.0,0.0,0.0,0.0,0.0,3.0903,3.0974,3.0245,2.9507,2.8396,0.0,0.0,0.0,0.0,0.0,0.0,2.9483,2.9627,3.0433,3.2138,3.2312,3.2999,3.4316,3.4623,3.4862,3.5073,3.5059,3.5321,3.5806,3.5646,3.6132,3.709,3.7146,3.8044,3.9062,3.398,3.2159,3.2054,2.6842,2.4244,2.3267,2.2257,1.9045,1.5092,0.0,0.0,0.0,0.0,0.0,0.0,0.0,0.0,0.0,0.0,0.0,1.8276,1.899,2.0378,2.1551,2.2345,2.2335,2.1476,1.9586,2.0349,2.0076,1.8235,1.9788,2.0302,1.9513,1.9821,1.9448,1.8311,1.8127,1.7785,1.7196,1.5303,1.4068,1.3398,1.0498,0.7126,0.3657,0.374,0.3212,0.2464,0.0,0.0,0.0,0.0,0.0,0.0,0.0,0.0,0.0,0.0,0.0,0.0,0.0,0.0,0.0,0.0,0.0,0.0,0.0,0.0,0.0,0.0,0.0,0.0,0.0,0.0,0.0,0.0,0.0,0.0,0.0,0.0,0.0,0.0,0.0,0.0,0.0,0.0,0.0,3.0325,3.1128,0.0,0.0,0.0,0.0,2.8777,2.8855,2.9569,3.11,3.1192,3.1983,3.3729,3.3843,3.3956,3.4124,3.445,3.5036,3.5848,3.5205,3.5799,3.7452,3.6687,3.6903,3.7851,3.7916,3.846,3.9301,3.921,3.9117,3.9007,3.8785,3.8206,3.6769,3.0795,2.8257,2.6939,0.0,0.0,0.0,0.0,0.0,0.0,0.0,0.0,1.567,1.6498,1.8522,1.9896,1.9981,2.1973,2.3169,2.2889,2.4045,2.3835,2.1585,2.236,2.1973,1.9942,2.0827,2.1724,2.242,2.2391,2.1915,2.1112,2.0996,1.9889,1.7881,1.7883,1.6965,1.529,1.397,1.2045,0.9616,0.6591,0.5046,0.4731,0.5685,0.6344,0.0,0.0,0.0,0.0,0.0,0.0,0.0,0.0,0.0,0.0,0.0,0.0,0.0,0.0,0.0,0.0,0.0,0.0,0.0,0.0,0.0,0.0,0.0,0.0,0.0,0.0,0.0,0.0,0.0,0.0,0.0,0.0,0.0,0.0,0.0,0.0,0.0,3.0658,3.1048,0.0,2.9922,3.0023,2.9942,2.9461,3.0972,3.1909,3.1874,3.2537,3.3201,3.3815,3.3972,3.4124,3.4221,3.4992,3.5296,3.52,3.5548,3.6122,3.6803,3.6589,3.6996,3.7909,3.7943,3.8424,3.9219,3.8868,3.9342,4.0292,4.0416,3.965,3.8238,3.6594,3.5809,3.5362,0.0,0.0,0.0,0.0,0.0,0.0,0.0,0.0,1.7381,1.8764,2.0325,2.1445,2.1791,2.3457,2.4282,2.3714,2.5142,2.4727,2.1603,2.3234,2.3001,2.0069,2.1535,2.3095,2.4449,2.42,2.3878,2.348,2.305,2.181,1.9861,2.0425,1.9608,1.7647,1.7167,1.6079,1.4231,1.0735,0.8559,0.7511,0.7993,0.7967,0.7824,0.0,0.0,0.0,0.0,0.0,0.0,0.0,0.0,0.0,0.0,0.0,0.0,0.0,0.0,0.0,0.0,0.0,0.0,0.0,0.0,0.0,0.0,0.0,0.0,0.0,0.0,0.0,0.0,0.0,0.0,0.0,0.0,0.0,0.0,0.0,3.1617,3.0114,3.1,3.1291,3.017,3.1083,3.1526,3.0974,3.2601,3.334,3.2728,3.3405,3.3815,3.3895,3.4049,3.4346,3.4721,3.5464,3.5904,3.6012,3.6441,3.6996,3.7677,3.7464,3.789,3.8785,3.8773,3.91,3.9611,3.9162,3.9669,4.0674,4.0519,3.9968,3.9325,3.9652,3.9858,4.0081,0.0,0.0,0.0,0.0,0.0,0.0,0.0,1.7509,1.8919,2.1442,2.2099,2.2919,2.4523,2.4752,2.4867,2.5004,2.5493,2.3916,1.9441,2.2833,2.3041,1.8621,2.1962,2.4345,2.526,2.5146,2.5056,2.5072,2.4148,2.3544,2.3309,2.2839,2.1904,2.0541,2.0006,1.8808,1.7072,1.6091,1.3821,1.0859,1.0466,1.0184,1.0097,0.0,0.0,0.0,0.0,0.0,0.0,0.0,0.0,0.0,0.0,0.0,0.0,0.0,0.0,0.0,0.0,0.0,0.0,0.0,0.0,0.0,0.0,0.0,0.0,0.0,0.0,0.0,0.0,0.0,0.0,0.0,0.0,0.0,2.9753,3.0912,3.1096,2.8855,3.1189,3.2523,3.1211,3.2498,3.3422,3.3386,3.3549,3.3643,3.3698,3.3798,3.395,3.4173,3.4247,3.4729,3.564,3.5856,3.6798,3.8361,3.7806,3.8461,4.0157,3.9428,3.9627,4.0527,4.0499,4.0515,4.0527,4.0495,4.0573,4.0636,3.9915,4.0178,4.0859,4.0006,4.0279,4.1057,0.0,0.0,0.0,0.0,0.0,0.0,0.0,1.8256,1.913,2.105,2.2256,2.3302,2.4247,2.4735,2.5041,2.5068,2.565,2.5022,2.2643,2.4562,2.5044,2.3345,2.4384,2.5565,2.6828,2.6641,2.6412,2.6231,2.5957,2.5065,2.359,2.3391,2.2772,2.1787,2.1696,2.1097,2.0184,1.9809,1.8884,1.7432,1.4395,1.3341,1.3758,0.0,0.0,0.0,0.0,0.0,0.0,0.0,0.0,0.0,0.0,0.0,0.0,0.0,0.0,0.0,0.0,0.0,0.0,0.0,0.0,0.0,0.0,0.0,0.0,0.0,0.0,0.0,0.0,0.0,0.0,0.0,0.0,3.2228,3.1592,3.2492,3.2976,3.232,3.304,3.346,3.3138,3.3505,3.3523,3.2936,3.3563,3.3965,3.3983,3.471,3.5404,3.6037,3.6173,3.6405,3.6761,3.7438,3.7775,3.775,3.8211,3.8747,3.9335,3.9125,3.99,4.1393,4.071,4.0835,4.1407,4.0207,4.0127,4.0757,4.056,4.0276,3.9963,3.9838,3.9939,4.0257,0.0,0.0,0.0,0.0,0.0,0.0,0.0,1.8484,1.9597,2.1995,2.2689,2.3493,2.4885,2.5005,2.5108,2.5441,2.5468,2.482,2.3265,2.3989,2.4931,0.0,0.0,2.6394,2.7122,2.6944,2.6903,2.7031,2.6393,2.5589,2.4696,2.423,2.3665,2.3026,2.2997,2.278,2.2453,2.2009,2.1889,2.1747,1.9028,1.7362,1.6708,1.7639,1.8632,1.9707,2.1845,2.3834,2.5615,2.6481,0.0,0.0,0.0,0.0,0.0,0.0,0.0,0.0,0.0,0.0,0.0,0.0,0.0,0.0,0.0,0.0,0.0,0.0,0.0,0.0,0.0,0.0,0.0,0.0,3.2643,3.3684,3.357,3.368,3.378,3.378,3.3788,3.3834,3.3895,3.3921,3.3891,3.3744,3.4308,3.4809,3.5212,3.5789,3.6379,3.6948,3.7009,3.7272,3.7743,3.8282,3.8539,3.8512,3.9088,3.9452,3.9544,3.9581,4.0202,4.1281,4.0735,4.0823,4.133,4.0326,4.0262,0.0,0.0,0.0,0.0,0.0,4.0115,3.9911,0.0,0.0,0.0,0.0,0.0,0.0,0.0,1.8551,2.023,2.3451,2.3143,2.3519,2.5844,2.5438,2.5244,2.5879,2.5259,2.4231,2.2866,2.2999,0.0,2.7198,2.7167,2.7031,2.6878,2.6619,2.6819,2.7509,2.6037,2.557,2.6093,2.5045,2.4408,2.4136,2.399,2.3981,2.4049,2.33,2.351,2.4296,2.3383,2.152,1.9361,2.0419,2.0499,2.0356,2.2862,2.458,2.6073,2.8311,0.0,0.0,0.0,0.0,0.0,0.0,0.0,0.0,0.0,0.0,0.0,0.0,0.0,0.0,0.0,0.0,0.0,0.0,0.0,0.0,0.0,0.0,0.0,0.0,3.4383,3.544,3.548,3.4615,3.3972,3.3921,3.3868,3.3905,3.4094,3.4171,3.4555,3.5351,3.5514,3.595,3.6808,0.0,0.0,0.0,0.0,3.7811,3.8659,3.8726,3.915,3.9933,4.0118,4.0234,4.0307,4.0362,4.0518,4.0728,4.0641,4.0689,4.0835,4.0673,4.0707,4.0746,4.0034,4.0263,4.103,4.1071,4.0596,4.0064,0.0,0.0,0.0,0.0,0.0,0.0,0.0,1.9523,2.082,2.2851,2.2905,2.3476,2.5354,2.5928,2.5984,2.5556,2.5894,2.602,2.5717,2.7653,2.8782,2.8714,2.803,2.7919,2.8524,2.7141,2.6803,2.7585,2.6517,2.6034,2.6067,2.4897,2.4616,2.5045,2.4838,2.4707,2.4641,2.4574,2.4878,2.5314,2.423,2.3225,2.2477,2.3199,2.3319,2.3435,2.5642,2.7243,2.8403,2.9091,3.036,3.152,3.1108,0.0,0.0,0.0,0.0,0.0,0.0,0.0,0.0,0.0,0.0,0.0,0.0,0.0,0.0,0.0,0.0,0.0,0.0,0.0,0.0,3.4095,3.5063,3.5917,3.6503,3.5362,3.434,3.4023,3.4074,3.4427,3.5206,3.5384,3.5815,3.6667,3.6766,3.6869,3.7103,3.7792,3.8196,3.826,3.8968,3.9448,3.9621,3.9747,3.9925,4.0138,0.0,0.0,4.0307,4.0307,4.0775,4.152,4.0881,4.1036,4.1705,4.1023,4.0804,4.0869,4.0704,4.0824,4.1078,4.1038,4.0954,4.0877,0.0,0.0,0.0,0.0,0.0,0.0,0.0,1.7981,1.8636,2.108,2.1776,2.2367,2.3158,2.3993,2.4528,2.4588,2.5456,2.6188,2.6626,2.8288,2.9244,2.9253,2.8826,2.8586,2.8551,2.7235,2.6939,2.7759,2.6428,2.5907,2.6129,2.5162,2.4787,2.4982,2.5337,2.5653,2.5796,2.4227,2.3883,2.4171,2.1479,2.016,2.0116,2.3045,2.4217,2.4595,2.6356,2.7674,2.8787,3.0155,3.1693,3.2933,3.2304,3.2924,3.3465,0.0,0.0,0.0,0.0,0.0,0.0,0.0,0.0,0.0,0.0,0.0,0.0,0.0,0.0,3.1356,3.2657,0.0,3.5063,3.6327,3.6889,3.7253,3.7601,3.6276,3.5308,3.5386,3.5163,3.5352,3.6216,3.6386,3.6817,3.769,3.7393,3.7359,3.7819,3.826,3.855,3.8656,3.9515,3.9975,4.0057,4.0117,4.0177,4.0253,4.0327,4.0591,4.0991,4.0619,4.0954,4.1801,4.0993,4.0932,4.1371,4.1009,4.0859,4.0906,4.0935,4.0984,4.1104,4.15,4.1416,4.1167,0.0,0.0,0.0,0.0,0.0,0.0,0.0,1.5945,1.6284,1.9138,2.0317,2.0881,2.0908,2.1891,2.2829,2.3498,2.5048,2.6149,0.0,2.8017,2.902,2.939,2.9409,2.8985,2.8099,2.7346,2.7293,2.7931,2.6592,2.5701,2.5247,2.4667,2.3755,2.2703,2.3466,2.4133,2.4501,2.1761,2.1068,2.1482,1.776,1.6217,1.6636,2.0652,2.2614,2.3437,2.5242,2.6294,2.7328,3.034,3.2226,3.328,3.309,3.3907,3.4405,3.1808,3.1111,0.0,0.0,0.0,0.0,0.0,0.0,0.0,0.0,0.0,3.0393,3.2845,3.2879,3.314,3.5305,3.6217,3.7106,3.8584,3.8539,3.8361,3.8448,3.6882,3.6101,3.7079,3.6368,3.6208,3.7183,3.7328,3.7755,3.8633,3.8105,3.798,3.8515,3.8726,3.8828,3.8801,3.9619,4.0099,4.0196,4.0387,4.052,4.0572,4.0643,4.1135,4.1953,4.1035,4.108,4.1856,4.1068,4.0761,4.0815,4.0888,4.0915,4.0913,4.0976,4.0203,3.9325,4.132,4.1863,4.1466,0.0,0.0,0.0,0.0,0.0,0.0,0.0,0.0,1.6376,1.7923,1.8836,1.9563,2.0148,2.1741,2.2735,2.2649,2.5761,2.7164,2.5826,2.9447,3.0975,2.9473,2.939,2.8956,2.8022,2.7963,2.7988,2.8086,2.7891,2.5781,2.1939,2.1845,1.9621,1.5727,1.5884,1.614,1.6382,1.5597,1.5978,1.6986,1.5087,1.4939,1.5819,1.5443,1.6372,1.827,2.1414,2.2364,2.2933,2.8046,2.9435,2.9401,3.1751,3.2015,3.1371,3.0879,0.0,2.7681,2.8109,2.9008,3.0171,3.1542,3.2014,3.2882,0.0,0.0,3.4788,3.6703,3.7026,3.7311,3.8435,3.8612,3.888,3.9776,3.867,3.7927,3.859,3.6654,3.6008,3.8218,3.6936,3.6512,3.8093,3.8354,3.8783,3.9659,3.9705,3.9426,3.8803,3.9565,3.9623,3.8822,3.9757,4.0252,4.0196,4.1088,4.1541,4.1541,4.161,4.2133,4.298,4.134,4.1112,4.1938,4.1141,4.0829,4.0896,4.0904,4.0932,4.0996,4.0993,3.7407,3.2916,3.8942,4.2109,4.2366,0.0,0.0,0.0,0.0,0.0,0.0,0.0,0.0,0.0,1.5259,1.6783,1.7658,1.7547,1.9017,2.0407,2.1424,2.3233,0.0,2.4492,2.7253,2.8751,2.8414,2.8781,2.8876,2.8637,2.7901,2.7662,2.7929,2.5844,2.3717,2.153,1.9993,1.7889,1.5427,1.5686,1.591,1.5941,1.3709,1.3128,1.3442,1.0189,0.9459,1.0281,0.9525,1.029,1.2352,1.6751,1.9636,0.0,0.0,2.769,2.942,3.16,3.1261,3.0,2.9551,2.7942,0.0,2.8015,2.9043,0.0,0.0,3.284,3.3745,3.5694,3.6061,3.6485,3.8274,3.9039,3.9515,3.9912,3.9468,3.9191,0.0,3.8163,3.7292,3.8079,3.6419,3.6075,3.8575,3.7775,3.7624,3.9235,3.9028,3.8746,3.8689,3.8671,3.8327,3.7502,3.832,3.8873,3.9025,4.0015,4.075,4.1197,4.214,4.2657,4.2665,4.2163,4.2375,4.3208,4.1536,4.0981,4.1334,4.1005,4.0906,4.0968,4.0957,4.0972,4.0993,4.1039,3.9976,3.8244,3.6647,3.3767,3.063,0.0,0.0,0.0,0.0,0.0,0.0,0.0,0.0,0.0,0.0,1.5316,1.6336,1.6285,1.7327,1.8574,1.996,0.0,0.0,0.0,2.5152,2.6543,2.719,2.7923,2.8277,2.8222,2.7544,2.7318,2.7587,2.4959,2.2694,2.0767,1.8621,1.6307,1.3945,1.4022,1.4113,1.3961,1.1242,1.0243,1.0244,0.6785,0.5877,0.6549,0.6056,0.6577,0.8099,1.2742,1.6655,0.0,0.0,2.5726,2.8609,3.0337,2.9832,2.8464,2.797,2.6752,2.5893,2.7463,0.0,0.0,3.2489,3.4022,3.5251,3.621,3.7145,3.824,3.9773,4.0397,4.0731,4.0978,4.0067,3.9297,3.9364,3.7849,3.6949,3.7778,3.6592,3.6496,3.8815,3.8804,3.8958,3.984,3.9562,3.9009,3.8233,3.8139,3.7756,3.6972,3.7736,3.8535,3.9244,4.0204,4.0971,4.1564,4.2499,4.2981,4.3028,4.2346,4.2606,4.3633,4.2247,4.1362,4.0932,4.0921,4.0957,4.0991,4.1013,4.1033,4.1025,4.1081,3.9626,3.7013,3.278,2.9946,2.7919,0.0,0.0,0.0,0.0,0.0,0.0,0.0,0.0,0.0,0.0,0.0,0.0,0.0,1.7944,1.8155,0.0,0.0,0.0,0.0,2.4229,2.5549,2.6015,2.6871,2.6923,2.6029,2.6908,2.7289,2.7023,2.6799,2.3918,1.859,1.7784,1.4283,0.8706,0.7985,0.7623,0.7463,0.6646,0.669,0.7367,0.6219,0.6218,0.6781,0.6468,0.6293,0.6713,0.9962,0.0,0.0,2.0134,2.3076,2.5356,2.7081,2.6976,0.0,2.6167,2.557,0.0,0.0,0.0,3.0822,3.3409,3.5916,3.8031,3.9052,3.9959,4.0866,4.1898,4.141,4.1044,4.1906,4.0657,3.9495,3.9491,3.7974,3.7107,3.8052,3.7363,3.7421,3.9185,4.0111,4.0308,0.0,4.0039,4.0005,3.9218,3.9154,3.8811,3.8001,3.878,3.9297,3.9383,4.0246,4.0715,4.0749,4.1679,4.2144,4.2144,4.2108,4.3003,4.4633,4.3792,4.2527,4.0996,4.0999,4.0993,4.1013,4.107,4.11,4.1096,4.1109,3.3264,2.2484,2.6522,3.5477,4.263,0.0,0.0,0.0,0.0,0.0,0.0,0.0,0.0,0.0,0.0,0.0,0.0,0.0,0.0,0.0,0.0,0.0,0.0,0.0,2.147,2.3258,2.423,2.5852,2.6367,2.5648,2.6037,2.6022,2.5551,2.398,2.189,1.9294,1.683,1.4013,1.09,0.979,0.9111,0.8588,0.7872,0.7607,0.7605,0.6876,0.6641,0.6805,0.6487,0.6233,0.6234,0.0,0.0,0.0,1.7951,2.1478,2.5359,2.7642,2.6176,2.3449,2.2374,2.3084,2.4549,0.0,0.0,3.1279,3.5029,3.6648,3.799,4.0654,4.1449,4.174,4.2111,4.1034,3.9927,3.9685,3.8656,3.7656,3.7064,3.6938,3.7035,3.7315,3.7112,3.7579,3.9324,3.9791,0.0,0.0,0.0,0.0,3.7943,3.8794,3.9069,3.8307,3.9053,3.9772,4.0392,4.1282,4.1766,4.1758,4.3225,4.3661,4.3097,4.2505,4.2252,4.2252,4.1949,4.1571,4.1071,4.1078,4.107,4.1061,4.1096,4.1437,4.1968,4.1967,3.9946,3.5994,2.7507,2.716,2.8523,0.0,0.0,0.0,0.0,0.0,0.0,0.0,0.0,0.0,0.0,0.0,0.0,0.0,0.0,0.0,0.0,0.0,0.0,0.0,0.0,2.0914,2.2387,2.3626,2.4118,2.3713,2.38,2.3638,2.3209,2.1996,2.088,1.9854,1.7747,1.5623,1.3589,1.2351,1.1346,1.0379,0.9491,0.8905,0.8426,0.7912,0.7565,0.7453,0.702,0.67,0.0,0.0,0.0,1.5573,1.6292,2.014,2.4891,2.6562,2.4762,2.2032,2.1943,2.2901,2.462,0.0,2.9912,3.2425,3.6424,3.7666,3.8607,4.115,4.1723,4.1809,4.219,4.0618,3.9213,3.9342,3.8366,3.7148,3.5954,3.6498,3.7061,3.7005,3.7033,3.7828,3.9866,4.0388,4.0882,0.0,0.0,0.0,3.8594,3.9138,3.9241,3.8474,3.9206,3.9894,4.05,4.1395,4.1869,4.187,4.2961,4.3371,4.3137,4.3201,4.2624,4.1506,4.1805,4.1617,4.107,4.1095,4.11,4.1096,4.1094,4.0058,3.8422,3.8422,3.6214,3.2391,2.707,2.1041,1.4199,0.0,0.0,0.0,0.0,0.0,0.0,0.0,0.0,0.0,0.0,0.0,0.0,0.0,0.0,0.0,0.0,0.0,0.0,0.0,0.0,0.0,2.0534,2.0552,2.052,2.052,2.0505,2.0446,2.032,2.0976,2.0818,1.9991,2.0019,1.8617,1.6136,1.5022,1.369,1.2204,1.1169,1.0296,0.959,0.9161,0.8836,0.8477,0.7981,0.0,0.0,0.0,0.0,0.0,0.0,0.0,0.0,0.0,0.0,2.2167,2.4683,2.4911,2.5472,3.0468,3.2576,3.4137,3.7463,3.8957,3.9846,4.0757,4.0984,4.1253,4.2084,4.0175,3.8844,0.0,0.0,3.7877,3.6181,3.674,3.7377,3.7332,3.7332,3.8248,0.0,0.0,0.0,0.0,0.0,0.0,4.1046,0.0,3.9435,3.8667,3.9369,3.9814,3.9927,4.0734,4.1193,4.1232,4.1167,4.1559,4.2383,4.4001,4.3955,4.2481,4.3156,4.2598,4.1071,4.1089,4.1125,4.1174,4.1218,3.7599,3.198,3.1629,2.3807,1.3992,2.4865,1.7727,0.2538,0.0,0.0,0.0,0.0,0.0,0.0,0.0,0.0,0.0,0.0,0.0,0.0,0.0,0.0,0.0,0.0,0.0,0.0,0.0,0.0,0.0,0.0,0.0,0.0,0.0,0.0,0.0,1.9254,1.9414,1.9212,1.8728,1.7792,1.682,1.5726,1.4442,1.3042,1.1681,1.1062,1.033,0.944,0.0,0.889,0.8565,0.0,0.0,0.0,0.0,0.0,0.0,0.0,0.0,0.0,0.0,0.0,2.544,2.5526,2.6771,2.8559,3.0489,3.3062,3.5722,3.7844,3.9071,4.014,4.1604,4.1487,4.0959,4.0552,3.8895,3.7244,0.0,0.0,0.0,3.608,3.8263,0.0,3.9221,3.9137,0.0,0.0,0.0,4.0866,4.1935,4.1667,0.0,0.0,4.1238,4.0652,4.0441,4.0629,4.1042,4.1719,4.1944,4.2385,4.3021,4.2978,4.3052,4.328,4.3111,4.3136,4.3273,4.2212,4.1852,4.2017,4.1364,4.1471,4.2116,4.2776,4.2439,4.1013,3.6063,3.205,2.8096,2.0074,1.5265,1.1648,0.0,0.0,0.0,0.0,0.0,0.0,0.0,0.0,0.0,0.0,0.0,0.0,0.0,0.0,0.0,0.0,0.0,0.0,0.0,0.0,0.0,0.0,0.0,0.0,0.0,0.0,0.0,0.0,0.0,0.0,1.7955,1.7459,1.6708,1.5813,1.4702,1.3369,1.1942,1.1581,0.0,0.0,0.0,0.0,0.0,0.0,0.0,0.0,0.0,0.0,0.0,0.0,0.0,2.4183,2.5577,2.6369,2.689,2.7558,0.0,3.0322,3.1931,3.4335,3.6703,3.807,3.9344,4.0344,4.0539,4.0265,3.9614,3.839,3.7039,0.0,0.0,0.0,0.0,0.0,0.0,0.0,3.9414,3.9238,3.9692,0.0,4.068,0.0,4.2268,4.1604,4.1458,0.0,4.1593,4.1103,4.1105,4.1099,4.1331,4.1802,4.2207,4.2825,4.3697,4.4007,4.4187,4.4206,4.3738,4.3758,4.4161,4.2802,4.0739,3.8336,0.0,3.8811,3.3597,3.7267,3.5429,2.9964,2.645,2.3303,1.9701,1.157,0.9469,0.9913,0.0,0.0,0.0,0.0,0.0,0.0,0.0,0.0,0.0,0.0,0.0,0.0,0.0,0.0,0.0,0.0,0.0,0.0,0.0,0.0,0.0,0.0,0.0,0.0,0.0,0.0,0.0,0.0,0.0,0.0,0.0,0.0,0.0,0.0,0.0,0.0,0.0,0.0,0.0,0.0,0.0,0.0,0.0,0.0,0.0,0.0,0.0,0.0,0.0,0.0,2.5635,2.2024,2.6162,2.7452,2.7832,3.0017,3.0837,3.1552,3.3901,3.5325,3.6376,3.7359,3.8199,3.8559,3.7624,3.7491,3.7226,3.5916,0.0,0.0,3.5582,0.0,3.8805,3.6829,0.0,4.0479,3.9195,3.8827,3.9276,4.0909,4.0996,4.1275,4.2131,4.1538,4.1405,4.2167,4.1521,4.1091,4.1112,4.1105,4.1099,4.1099,4.2056,4.2932,4.3687,4.4508,4.4992,4.518,4.4992,4.4992,4.5137,4.4085,4.0257,3.4764,4.0936,3.5939,2.393,3.0284,2.5164,1.3297,1.2879,0.9122,0.3871,0.3315,0.3247,0.3421,0.0,0.0,0.0,0.0,0.0,0.0,0.0,0.0,0.0,0.0,0.0,0.0,0.0,0.0,0.0,0.0,0.0,0.0,0.0,0.0,0.0,0.0,0.0,0.0,0.0,0.0,0.0,0.0,0.0,0.0,0.0,0.0,0.0,0.0,0.0,0.0,0.0,0.0,0.0,0.0,0.0,0.0,0.0,0.0,0.0,0.0,0.0,0.0,0.0,0.0,2.3722,2.6731,3.0356,3.1332,3.1213,3.1427,3.2359,3.3538,3.4497,3.3256,3.1977,3.3089,3.0586,2.8624,3.1614,3.2562,0.0,0.0,0.0,3.617,3.4217,3.5935,0.0,3.8984,0.0,0.0,0.0,0.0,3.9958,0.0,0.0,0.0,0.0,0.0,0.0,0.0,0.0,4.1112,4.1172,4.1131,4.1107,4.1099,4.2642,4.3559,4.3696,4.4549,4.535,4.6075,4.533,4.5369,4.6017,4.4418,4.3397,4.2904,4.345,0.0,3.2484,3.4242,3.0258,2.2429,1.6807,1.3688,1.1665,0.5536,0.349,0.388,0.0,0.0,0.0,0.0,0.0,0.0,0.0,0.0,0.0,0.0,0.8586,0.0,0.0,0.0,0.0,0.0,0.0,0.0,0.0,0.0,0.0,0.0,0.0,0.0,0.0,0.0,0.0,0.0,0.0,0.0,0.0,0.0,0.0,0.0,0.0,0.0,0.0,0.0,0.0,0.0,0.0,0.0,0.0,0.0,0.0,0.0,0.0,0.0,0.0,0.0,2.4402,2.6517,3.0161,3.1689,3.2191,3.2335,3.3172,3.3811,3.2742,3.1634,3.0373,2.8578,2.6677,2.5934,2.8432,0.0,0.0,0.0,0.0,3.4934,3.417,0.0,0.0,0.0,0.0,0.0,0.0,0.0,0.0,0.0,0.0,0.0,0.0,0.0,0.0,0.0,0.0,4.0638,4.1112,4.1542,4.1973,4.2441,4.3707,4.4389,4.4372,4.5243,4.5885,4.6297,4.5411,4.547,4.6119,4.1221,3.7371,3.4573,3.4325,2.8272,1.896,2.3053,2.0579,1.3895,1.098,0.9746,0.9141,0.5984,0.4988,0.5262,0.0,0.0,0.0,0.0,0.0,0.0,0.0,0.555,0.5947,0.6139,0.6734,0.7695,0.922,1.0199,0.0,0.0,0.0,0.0,0.0,0.0,0.0,0.0,0.0,0.0,0.0,0.0,0.0,0.0,0.0,0.0,0.0,0.0,0.0,0.0,0.0,0.0,0.0,0.0,0.0,0.0,0.0,0.0,0.0,0.0,0.0,0.0,0.0,0.0,0.0,0.0,2.4805,2.4833,2.7981,3.0154,3.1635,3.1934,3.2563,3.2791,3.0864,2.9652,2.8037,2.4285,2.2647,2.2592,2.5113,2.5779,0.0,0.0,0.0,0.0,0.0,0.0,0.0,0.0,0.0,0.0,0.0,0.0,0.0,0.0,0.0,0.0,0.0,0.0,0.0,0.0,0.0,0.0,4.1338,4.2202,4.2983,4.3683,4.4354,4.4804,4.4999,4.5663,4.6091,4.6268,4.3976,4.3235,4.365,3.6116,2.9868,2.5084,2.5642,1.8526,0.7044,1.2765,1.0947,0.457,0.5131,0.539,0.5676,0.6309,0.6697,0.6959,0.0,0.0,0.0,0.0,0.0,0.0,0.0,0.4625,0.4892,0.4709,0.5656,0.6417,0.6735,0.8642,0.0,0.0,0.0,0.0,0.0,0.0,0.0,0.0,0.0,0.0,0.0,0.0,0.0,0.0,0.0,0.0,0.0,0.0,0.0,0.0,0.0,0.0,0.0,0.0,0.0,0.0,0.0,0.0,0.0,0.0,0.0,0.0,0.0,0.0,0.0,0.0,0.0,2.3543,2.4567,2.7065,2.9458,2.8989,0.0,0.0,3.0393,2.6491,2.1954,2.0649,1.557,1.26,1.9244,0.0,0.0,0.0,3.3805,3.5277,0.0,0.0,0.0,0.0,0.0,0.0,0.0,0.0,0.0,0.0,0.0,0.0,0.0,0.0,0.0,0.0,0.0,0.0,4.2279,4.3112,4.3622,4.3693,4.3774,4.4203,4.4984,4.5021,4.5453,4.6217,3.9303,3.6045,3.5912,2.9376,2.5961,2.5235,2.649,2.2563,0.0,1.6068,1.2494,0.6549,0.6429,0.6837,0.7588,0.7591,0.8109,0.8715,0.0,0.0,0.0,0.0,0.0,0.0,0.0,0.4083,0.4302,0.4107,0.4775,0.536,0.562,0.7227,0.0,0.0,0.0,0.0,0.0,0.0,0.0,0.0,0.0,0.0,0.0,0.0,0.0,0.0,0.0,0.0,0.0,0.0,0.0,0.0,0.0,0.0,0.0,0.0,0.0,0.0,0.0,0.0,0.0,0.0,0.0,0.0,0.0,0.0,0.0,0.0,0.0,0.0,2.0792,2.2565,0.0,0.0,2.7814,2.7877,2.6387,2.3969,2.0897,1.6661,1.5,1.5292,1.8438,0.0,0.0,3.0643,3.336,3.487,3.5115,0.0,0.0,0.0,0.0,0.0,0.0,0.0,0.0,0.0,0.0,0.0,0.0,0.0,0.0,0.0,0.0,0.0,4.3786,4.4202,4.4411,4.4417,4.4922,4.5145,4.4995,4.101,3.9273,3.9708,3.2378,2.8993,2.8911,2.2521,1.9608,1.9454,1.6179,1.3395,0.0,1.1536,1.0275,0.8162,0.8367,0.8686,0.8882,0.9235,0.9414,0.9593,0.0,0.0,0.0,0.0,0.0,0.0,0.3392,0.3675,0.3832,0.3788,0.4179,0.4583,0.4952,0.6023,0.7117,0.8131,0.0,0.0,0.0,0.0,0.0,0.0,0.0,0.0,0.0,0.0,0.0,0.0,0.0,0.0,0.0,0.0,0.0,0.0,0.0,0.0,0.0,0.0,0.0,0.0,0.0,0.0,0.0,0.0,0.0,0.0,0.0,0.0,0.0,0.0,0.0,0.0,0.0,0.0,0.0,0.0,2.5376,2.5329,2.3129,2.2039,2.0222,1.5182,1.5545,1.753,0.0,0.0,2.6579,3.0912,3.3234,3.4691,3.5322,3.5432,3.5618,3.6293,0.0,3.8151,0.0,0.0,0.0,0.0,0.0,0.0,0.0,0.0,0.0,0.0,0.0,0.0,4.4705,4.5056,4.5248,4.5287,4.5852,4.4881,4.2191,3.7608,3.4437,3.258,2.5481,2.2284,2.2472,1.618,1.353,1.3507,0.963,0.8129,0.0,0.9316,0.9714,1.0125,1.0375,1.045,1.0537,1.0743,1.0722,1.0814,0.0,0.0,0.0,0.0,0.0,0.0,0.0,0.3333,0.3419,0.3745,0.3956,0.419,0.4501,0.5185,0.5837,0.6381,0.0,0.0,0.0,0.0,0.0,0.0,0.0,0.0,0.0,0.0,0.0,0.0,0.0,0.0,0.0,0.0,0.0,0.0,0.0,0.0,0.0,0.0,0.0,0.0,0.0,0.0,0.0,0.0,0.0,0.0,0.0,0.0,0.0,0.0,0.0,0.0,0.0,0.0,0.0,0.0,2.1388,2.2085,2.171,2.0761,1.9259,1.6915,1.5966,1.658,0.0,0.0,2.6381,3.1289,3.3855,3.5174,3.5122,3.5157,3.5209,3.5226,0.0,0.0,0.0,0.0,0.0,0.0,0.0,0.0,0.0,0.0,0.0,0.0,0.0,0.0,4.4691,4.552,4.6056,4.6185,4.6123,4.2698,3.5569,3.5696,3.2513,2.5912,1.8988,1.6137,1.6666,1.076,0.8185,0.8576,1.0369,1.0946,0.0,1.1641,1.2102,1.2331,1.2122,1.2342,1.2709,1.2192,1.2186,1.2363,0.0,0.0,0.0,0.0,0.0,0.0,0.0,0.302,0.2976,0.3104,0.3661,0.4033,0.4026,0.4965,0.5727,0.6114,0.0,0.0,0.0,0.0,0.0,0.0,0.0,0.0,0.0,0.0,0.0,0.0,0.0,0.0,0.0,0.0,0.0,0.0,0.0,0.0,0.0,0.0,0.0,0.0,0.0,0.0,0.0,0.0,0.0,0.0,0.0,0.0,0.0,0.0,0.0,0.0,0.0,0.0,0.0,1.8692,1.9606,0.0,2.0085,1.9644,1.9041,1.7824,1.9225,2.1092,2.1759,0.0,2.9319,2.9814,3.234,3.4323,3.394,3.4259,3.4656,0.0,0.0,0.0,0.0,0.0,0.0,0.0,0.0,0.0,0.0,0.0,0.0,0.0,0.0,0.0,4.5486,4.5744,4.5972,4.6185,4.6085,4.2816,3.6083,3.0975,2.5549,1.987,1.294,1.0287,1.1603,1.0354,0.996,1.0351,1.148,1.2147,1.2433,1.3037,1.3574,1.3988,1.3798,1.3743,1.3792,1.3605,1.3536,1.3514,0.0,0.0,0.0,0.0,0.0,0.0,0.0,0.256,0.2564,0.2756,0.3286,0.373,0.3934,0.4678,0.5428,0.5939,0.0,0.0,0.0,0.0,0.0,0.0,0.0,0.0,0.0,0.0,0.0,0.0,0.0,0.0,0.0,0.0,0.0,0.0,0.0,0.0,0.0,0.0,0.0,0.0,0.0,0.0,1.4743,0.0,0.0,0.0,0.0,0.0,0.0,0.0,0.0,0.0,0.0,0.0,0.0,0.0,1.9044,1.9814,0.0,1.9501,1.9607,1.8819,2.0937,0.0,0.0,0.0,0.0,2.88,3.0912,3.2958,3.2897,3.3287,3.3669,0.0,0.0,0.0,0.0,0.0,0.0,0.0,0.0,0.0,0.0,0.0,0.0,0.0,0.0,0.0,4.494,4.2834,4.1838,4.2292,4.4514,4.1499,3.2755,2.8228,2.2076,1.4314,1.0439,0.9272,1.0742,1.1614,1.2206,1.2592,1.3507,1.3954,0.0,1.4721,1.5201,1.5521,1.5218,1.5028,1.4973,1.4663,1.4608,1.4641,0.0,0.0,0.0,0.0,0.0,0.0,0.0,0.0,0.0,0.0,0.2971,0.3365,0.4081,0.4343,0.4908,0.0,0.0,0.0,0.0,0.0,0.0,0.0,0.0,0.0,0.0,0.0,0.0,1.1688,1.1124,1.069,1.0362,0.0,0.0,0.0,0.0,0.0,0.0,0.0,0.0,0.0,0.0,1.5088,0.0,0.0,0.0,0.0,0.0,0.0,0.0,0.0,0.0,0.0,0.0,0.0,0.0,0.0,0.0,0.0,0.0,2.0107,2.062,1.9909,2.1354,2.2981,0.0,0.0,0.0,0.0,2.9715,3.1253,3.1874,3.2237,3.2379,0.0,0.0,0.0,0.0,0.0,0.0,0.0,0.0,0.0,0.0,0.0,0.0,0.0,0.0,0.0,4.3311,3.8006,3.5323,3.6008,4.1576,3.8661,2.6371,2.6903,2.146,0.9993,1.1272,1.2355,1.3431,1.4292,1.4873,0.0,1.6008,1.6313,1.6239,1.6528,1.6803,1.6948,1.6357,1.6256,1.6274,1.5658,1.5556,1.5739,0.0,0.0,0.0,0.0,0.0,0.0,0.0,0.0,0.0,0.0,0.0,0.3216,0.3747,0.4229,0.0,0.0,0.0,0.0,0.0,0.0,0.0,0.0,0.0,0.0,0.0,0.0,0.0,1.1559,1.0223,0.9551,0.9302,0.8071,0.0,0.0,0.0,0.0,0.0,0.0,0.0,0.0,1.4403,1.4883,0.0,0.0,0.0,0.0,1.396,1.4079,0.0,0.0,0.0,0.0,0.0,0.0,0.0,0.0,2.0786,2.1153,2.0847,0.0,2.0172,2.0964,2.2819,2.4534,0.0,0.0,0.0,0.0,0.0,3.0449,3.0122,3.0973,0.0,0.0,0.0,0.0,0.0,0.0,0.0,0.0,0.0,0.0,0.0,0.0,0.0,0.0,0.0,4.196,4.2111,3.9285,3.7597,3.7369,3.7768,3.2892,2.2205,2.3228,2.0354,1.3526,1.4517,1.5617,1.6833,1.738,1.7662,1.775,1.7882,1.7832,1.7849,1.778,1.7872,1.811,1.7673,1.7485,1.7372,1.7311,1.7281,1.7283,0.0,0.0,0.0,0.0,0.0,0.0,0.0,0.0,0.0,0.0,0.0,0.0,0.0,0.0,0.0,0.0,0.0,0.0,0.0,0.0,0.0,0.0,0.0,0.0,0.0,0.0,0.0,0.0,0.0,0.7534,0.0,0.0,0.0,0.0,0.0,0.0,0.0,0.0,0.0,0.0,1.3373,0.0,0.0,0.0,0.0,0.0,1.3872,1.4105,0.0,1.4341,1.475,1.5574,0.0,0.0,0.0,0.0,2.1961,2.2218,2.2084,2.1655,2.1308,2.1527,2.3585,2.5407,2.4946,0.0,0.0,0.0,0.0,0.0,2.9041,0.0,0.0,0.0,0.0,0.0,0.0,0.0,0.0,0.0,0.0,0.0,0.0,0.0,0.0,0.0,0.0,3.9422,3.9564,3.545,3.2727,3.2106,2.9635,2.655,2.2886,2.3831,2.1532,1.6085,1.7048,1.7865,1.8439,1.8923,1.9036,1.9066,1.906,1.9072,1.8896,1.8542,1.8542,1.8796,1.8422,1.8195,1.8234,1.8151,1.8245,1.8319,0.0,0.0,0.0,0.0,0.0,0.0,0.0,0.0,0.0,0.0,0.0,0.0,0.0,0.0,0.0,0.0,0.0,0.0,0.0,0.0,0.0,0.0,0.0,0.0,0.0,0.0,0.0,0.0,0.0,0.0,0.0,0.0,0.4012,0.0,0.0,0.0,0.0,0.0,0.0,0.0,1.2814,0.0,0.0,0.0,0.0,0.0,0.0,0.0,0.0,1.4551,1.509,1.5997,1.7611,0.0,0.0,0.0,0.0,0.0,2.3042,2.3452,2.3627,2.2441,2.4491,2.6436,0.0,0.0,0.0,0.0,0.0,0.0,0.0,0.0,0.0,0.0,0.0,0.0,0.0,0.0,0.0,0.0,0.0,0.0,0.0,0.0,0.0,0.0,0.0,3.6786,3.6651,3.0546,2.6652,2.5824,2.2272,2.1959,2.5142,2.5475,2.3096,1.8167,1.9131,1.9605,1.9518,1.9825,1.9901,1.9887,0.0,0.0,1.982,1.9279,1.9188,1.9279,1.8912,1.8819,1.8888,1.8757,1.8928,1.9099,0.0,0.0,0.0,0.0,0.0,0.0,0.0,0.0,0.0,0.0,0.0,0.0,0.0,0.0,0.0,0.0,0.0,0.0,0.0,0.0,0.0,0.0,0.0,0.0,0.0,0.0,0.0,0.0,0.0,0.0,0.424,0.3307,0.326,0.0,0.0,0.0,0.0,0.0,0.0,1.3929,1.5105,0.0,0.0,0.0,0.0,0.0,0.0,0.0,0.0,1.4473,1.4817,1.5846,1.8624,0.0,0.0,0.0,0.0,0.0,2.2784,2.5102,2.7038,2.5044,2.735,2.9566,0.0,0.0,0.0,0.0,0.0,0.0,0.0,0.0,0.0,0.0,0.0,0.0,0.0,0.0,0.0,0.0,0.0,0.0,0.0,0.0,0.0,0.0,0.0,3.5088,3.443,3.1344,2.9042,2.7612,2.5975,2.474,2.3991,2.2966,2.1862,2.0644,2.1354,2.1674,2.1613,2.1369,2.1371,2.1568,0.0,2.1015,2.0727,2.0447,2.0102,1.9837,1.9928,1.9845,1.9571,2.0141,1.9977,1.943,0.0,0.0,0.0,0.0,0.0,0.0,0.0,0.0,0.0,0.0,0.0,0.0,0.0,0.0,0.0,0.0,0.0,0.0,0.0,0.0,0.0,0.0,0.0,0.0,0.0,0.0,0.0,0.0,0.0,0.2482,0.1897,0.2389,0.2743,0.3101,0.0,0.0,0.0,0.0,0.8343,1.0372,0.0,0.0,0.0,0.0,0.0,0.0,0.0,0.0,0.0,0.0,1.6629,1.7807,1.9555,0.0,0.0,0.0,0.0,0.0,2.3498,2.5333,2.7415,2.7553,3.0179,0.0,0.0,0.0,0.0,0.0,0.0,0.0,0.0,0.0,0.0,0.0,0.0,0.0,0.0,0.0,0.0,0.0,0.0,0.0,0.0,0.0,0.0,0.0,0.0,3.2983,3.2568,3.0477,2.843,2.6568,2.6002,2.5088,2.3614,2.3386,2.2871,2.208,2.2465,2.2541,2.2128,2.2134,2.2117,2.2168,0.0,2.1651,2.1365,2.0826,2.0555,2.0464,2.0382,2.0292,2.0382,2.0473,2.0209,1.9729,0.0,0.0,0.0,0.0,0.0,0.0,0.0,0.0,0.0,0.0,0.0,0.0,0.0,0.0,0.0,0.0,0.0,0.0,0.0,0.0,0.0,0.0,0.0,0.0,0.0,0.0,0.1731,0.0559,0.1349,0.1198,0.0269,0.1907,0.2627,0.0,0.0,0.0,0.0,0.0,0.7551,0.7793,0.0,0.0,0.0,0.0,0.0,0.0,0.0,0.0,0.0,0.0,0.0,0.0,0.0,0.0,0.0,2.3985,2.4464,2.4618,2.3981,2.5565,2.7707,0.0,0.0,0.0,0.0,0.0,0.0,0.0,0.0,0.0,0.0,0.0,0.0,0.0,0.0,0.0,0.0,0.0,0.0,0.0,0.0,0.0,0.0,0.0,0.0,0.0,3.2624,3.1318,3.0966,2.9183,2.7403,2.5497,2.5466,2.4979,2.3937,2.427,2.3969,2.2899,2.3102,2.2943,2.2435,2.2535,2.2546,2.252,2.2362,2.2097,2.1741,2.1195,2.0916,2.0907,2.0555,2.0645,2.0907,2.0564,2.0201,1.9837,0.0,0.0,0.0,0.0,0.0,0.0,0.0,0.0,0.0,0.0,0.0,0.0,0.0,0.0,0.0,0.0,0.0,0.0,0.0,0.0,0.0,0.0,0.0,0.0,0.0,0.182,0.1092,0.042,0.0,0.0458,0.1749,0.2683,0.3109,0.3103,0.0,0.0,0.0,0.0,1.0169,1.0022,1.9538,0.0,0.0,0.0,0.0,0.0,0.0,0.0,0.0,0.0,0.0,0.0,0.0,0.0,2.1994,2.3682,2.4261,2.4181,2.3375,2.6437,2.9478,2.7955,0.0,0.0,0.0,0.0,0.0,0.0,0.0,0.0,0.0,0.0,0.0,0.0,0.0,0.0,0.0,0.0,0.0,0.0,0.0,0.0,0.0,0.0,0.0,0.0,3.1667,3.0653,2.9537,2.837,2.7229,2.6168,2.5529,2.519,2.5115,2.4646,2.3988,2.3057,2.3145,2.3037,2.3008,2.2568,2.2637,2.3057,2.2794,2.2451,2.2008,2.1731,2.1284,2.0744,2.0654,2.0654,2.0744,2.0654,2.0382,1.9928,0.0,0.0,0.0,0.0,0.0,0.0,0.0,0.0,0.0,0.0,0.0,0.0,0.0,0.0,0.0,0.0,0.0,0.0,0.0,0.0,0.0,0.0,0.0,0.1535,0.1814,0.0673,0.0402,0.1131,0.0728,0.1139,0.2279,0.2578,0.0,0.0,0.0,0.0,0.0,0.0,0.5718,0.6306,1.3202,1.5247,0.0,0.0,0.0,0.0,0.0,0.0,0.0,0.0,2.1738,2.2574,2.2788,2.3456,2.4104,2.3749,2.4233,2.4673,2.3428,2.61,2.8931,2.7587,0.0,0.0,0.0,0.0,0.0,0.0,0.0,0.0,0.0,0.0,0.0,0.0,0.0,0.0,0.0,0.0,0.0,0.0,0.0,0.0,0.0,0.0,0.0,3.1538,3.0757,2.9707,2.842,2.7617,2.6727,2.5644,2.52,2.5031,2.5031,2.454,2.4024,2.358,2.358,2.3406,2.3047,2.2882,2.2882,2.2882,2.2618,2.2353,2.2097,2.1651,2.1392,2.1114,2.0916,2.0826,2.0654,2.0473,2.0292,2.011,0.0,0.0,0.0,0.0,0.0,0.0,0.0,0.0,0.0,0.0,0.0,0.0,0.0,0.0,0.0,0.0,0.0,0.0,0.0,0.0,0.0,0.0,0.0,0.2044,0.2454,0.1042,0.0785,0.1894,0.1728,0.1966,0.2493,0.0,0.0,0.0,0.0,0.0,0.0,0.0,0.0,0.3519,0.9828,1.2701,0.0,0.0,0.0,0.0,0.0,0.0,0.0,0.0,2.3075,2.3821,2.3228,2.3947,2.4828,2.3872,2.4787,2.5803,2.4427,2.6498,2.8771,0.0,0.0,0.0,0.0,0.0,0.0,0.0,0.0,0.0,0.0,0.0,0.0,0.0,0.0,0.0,0.0,0.0,0.0,0.0,0.0,0.0,0.0,0.0,0.0,3.0152,2.9605,2.8751,2.7531,2.7133,2.6403,2.5475,2.5115,2.4861,2.4861,2.4358,2.4024,2.3841,2.3667,2.3493,2.3232,2.3144,2.2969,2.2803,2.2618,2.2274,2.183,2.1571,2.1302,2.1024,2.0916,2.0736,2.0581,2.052,2.0303,2.0044,0.0,0.0,0.0,0.0,0.0,0.0,0.0,0.0,0.0,0.0,0.0,0.0,0.0,0.0,0.0,0.0,0.0,0.0,0.0,0.0,0.0,0.0,0.0,0.2857,0.4731,0.3213,0.2473,0.2491,0.2824,0.2824,0.2426,0.3184,0.0,0.0,0.0,0.0,0.0,0.0,0.0,0.0,1.1724,1.4563,1.3883,0.0,0.0,0.0,0.0,0.0,0.0,0.0,2.3063,2.3137,2.3168,2.3259,2.3466,2.4108,2.5948,2.7543,2.6467,2.7895,0.0,0.0,0.0,0.0,0.0,0.0,0.0,0.0,0.0,0.0,0.0,0.0,0.0,0.0,0.0,0.0,0.0,0.0,0.0,0.0,0.0,0.0,0.0,0.0,2.8342,2.8205,2.8075,2.777,2.7148,2.677,2.6396,2.5895,2.5211,2.4861,2.4861,2.4176,2.3754,2.3754,2.3319,2.3232,2.3503,2.3232,2.2969,2.2803,2.2794,2.2274,2.1392,2.1392,2.0934,2.0292,2.0564,2.0564,2.0335,2.0711,2.0256,1.9637,0.0,0.0,0.0,0.0,0.0,0.0,0.0,0.0,0.0,0.0,0.0,0.0,0.0,0.0,0.0,0.0,0.0,0.0,0.0,0.0,0.0,0.0,0.0,0.0,0.0,0.0,0.3013,0.2478,0.2727,0.2649,0.0,0.0,0.0,0.2084,0.0,0.0,0.0,0.0,0.0,0.0,1.0893,1.524,1.9986,0.0,0.0,0.0,0.0,0.0,0.0,0.0,0.0,0.0,2.3327,2.4095,2.5257,2.4409,2.4938,2.5634,2.4798,0.0,0.0,0.0,0.0,0.0,0.0,0.0,0.0,0.0,0.0,0.0,0.0,0.0,0.0,0.0,0.0,0.0,0.0,0.0,0.0,0.0,0.0,0.0,0.0,0.0,2.8126,2.7558,2.7392,2.6991,2.6052,2.6211,2.6063,2.5464,2.5115,2.4786,2.4615,2.3744,2.3406,2.359,2.2882,2.2794,2.2979,2.2706,2.2618,2.253,2.2362,2.2008,2.1562,2.1105,2.0744,2.0564,2.0473,2.0382,2.0309,2.042,2.0303,2.0036,0.0,0.0,0.0,0.0,0.0,0.0,0.0,0.0,0.0,0.0,0.1059,0.1045,0.0,0.0,0.0,0.0,0.0,0.0,0.0,0.0,0.0,0.0,0.0,0.0,0.0,0.3549,0.343,0.0,0.0,0.0,0.0,0.0,0.0,0.0942,0.0,0.1318,0.0,0.0,0.8426,1.1548,1.2428,1.6584,2.2513,0.0,0.0,0.0,0.0,0.0,0.0,0.0,0.0,0.0,2.3908,2.4653,2.5721,2.5415,2.5599,2.5958,2.6419,0.0,0.0,0.0,0.0,0.0,0.0,0.0,0.0,0.0,0.0,0.0,0.0,0.0,0.0,0.0,0.0,0.0,0.0,0.0,0.0,0.0,0.0,0.0,0.0,0.0,2.7851,2.6759,2.6966,2.6744,2.58,2.6117,2.6052,2.5369,2.4935,2.4605,2.4368,2.3493,2.3144,2.3319,2.2706,2.2441,2.2539,2.2441,2.2264,2.2087,2.182,2.1642,2.1562,2.1015,2.0826,2.0826,2.0564,2.0382,2.0317,2.038,2.0146,1.9853,0.0,0.0,0.0146,0.0806,0.0,0.0,0.0,0.0,0.0,0.0,0.1065,0.0948,0.0,0.0,0.0,0.0,0.0,0.0,0.0,0.0,0.0,0.0,0.0,0.0,0.0,0.0,0.0,0.0,0.0,0.0,0.0,0.0,0.0997,0.0328,0.0,0.2829,0.0,0.8146,1.097,1.5568,1.6203,1.9086,2.2976,2.2184,0.0,0.0,0.0,0.0,0.0,0.0,0.0,0.0,2.4735,2.4981,2.5321,2.6613,2.7095,2.7599,0.0,0.0,0.0,0.0,0.0,0.0,0.0,0.0,0.0,0.0,0.0,0.0,0.0,0.0,0.0,0.0,0.0,0.0,0.0,0.0,0.0,0.0,0.0,0.0,0.0,2.788,2.7458,2.6017,2.6735,2.6889,2.6109,2.6352,2.6135,2.5454,2.4765,2.4348,2.411,2.3406,2.3047,2.3047,2.2608,2.2353,2.2185,2.2264,2.2087,2.1651,2.1275,2.1195,2.1392,2.114,2.0942,2.1006,2.0779,2.0508,2.0335,2.0416,1.9944,1.9328,0.0,0.0,-0.005,0.0732,0.0,0.0,0.0,0.0,0.0,0.0,0.0,0.0,0.0,0.0,0.0,0.0,0.0,0.0,0.0,0.0,0.0,0.0,0.0,0.0,0.0,0.0,0.0,0.0,0.0,0.0,0.0,0.0,0.0,0.6288,0.0,0.7345,1.266,1.6159,1.8126,1.9239,2.3377,2.5928,2.7231,2.6626,2.6856,0.0,0.0,0.0,0.0,0.0,0.0,0.0,2.482,2.5193,2.5541,2.5498,2.621,2.7023,0.0,0.0,0.0,0.0,0.0,0.0,0.0,0.0,0.0,0.0,0.0,0.0,0.0,0.0,0.0,0.0,0.0,0.0,0.0,0.0,0.0,0.0,0.0,0.0,0.0,2.7741,2.7323,2.6455,2.6551,2.6268,2.565,2.5716,2.5475,2.47,2.4454,2.411,2.3677,2.3154,2.2969,2.3047,2.2608,2.253,2.2627,2.2087,2.183,2.1651,2.1383,2.1392,2.1419,2.1086,2.0841,2.0771,2.0819,2.0658,2.03,2.0295,2.0095,1.9754,0.0,0.0,0.0,0.0,0.0,0.0,0.0,0.0,0.0,0.0,0.0,0.0,0.0,0.0,0.0,0.0,0.0,0.0,0.0,0.0,0.0,0.0,0.0,0.0,0.0,0.0,0.0,0.0,0.0,0.0,0.0,0.0,0.0,1.1539,0.0,1.2651,1.749,1.9842,2.1949,2.3952,2.7004,2.8374,2.8578,2.8477,2.8278,2.8034,2.7895,0.0,0.0,0.0,0.0,0.0,0.0,0.0,2.6146,2.59,2.5768,2.5961,0.0,0.0,0.0,0.0,0.0,0.0,0.0,0.0,0.0,0.0,0.0,0.0,0.0,0.0,0.0,0.0,0.0,0.0,0.0,0.0,0.0,0.0,0.0,0.0,2.8139,2.8123,2.7714,2.6694,2.6746,2.6483,2.5853,2.5764,2.5475,2.4871,2.4454,2.4024,2.3667,2.3144,2.2969,2.2969,2.2706,2.253,2.2451,2.2097,2.1741,2.1571,2.1482,2.1302,2.1221,2.1265,2.1208,2.1151,2.1266,2.0993,2.0373,2.0373,1.9979,1.9379,0.0,0.0,0.0,0.0,0.0,0.0,0.0,0.0,0.0,0.0,0.0,0.0,0.0,0.0,0.0,0.0,0.0,0.0,0.0,0.0,0.0,0.0,0.0,0.0,0.0,0.0,0.0,0.0,0.0,0.0,0.0,0.0,0.0,1.6557,0.0,1.8142,2.2654,2.2539,2.4517,2.7838,2.8529,2.8726,2.8626,2.8829,2.8856,2.8676,2.8129,2.7262,2.6424,2.6649,0.0,0.0,0.0,0.0,2.605,2.6083,2.531,2.5027,0.0,0.0,0.0,0.0,0.0,0.0,0.0,0.0,0.0,0.0,0.0,0.0,0.0,0.0,0.0,0.0,0.0,0.0,0.0,0.0,0.0,0.0,0.0,0.0,2.8261,2.8548,2.8215,2.6918,2.6955,2.6787,2.6157,2.5895,2.5549,2.5031,2.4444,2.4024,2.3754,2.3319,2.3057,2.2891,2.2803,2.2539,2.2097,2.2097,2.183,2.1482,2.1392,2.1195,2.1122,2.1419,2.1534,2.1463,2.1691,2.1337,2.0568,2.0568,1.9909,1.9184,0.0,0.0,0.0,0.0,0.0,0.0,0.0,0.0,0.0,0.0,0.0827,0.1005,0.0,0.0,0.0,0.0,0.0,0.0,0.0,0.0,0.0,0.0,0.0,0.0,0.0,0.0,0.0,0.0,0.0,0.0,0.0,0.0,0.0,2.1669,0.0,0.0,2.8128,2.8052,2.7899,2.7771,2.8507,2.8715,2.8574,2.8257,2.8489,2.8868,2.8228,2.7625,2.7047,2.6236,2.5174,0.0,0.0,0.0,2.3448,2.3603,2.4374,0.0,0.0,0.0,0.0,0.0,0.0,0.0,0.0,0.0,0.0,0.0,0.0,0.0,0.0,0.0,0.0,0.0,0.0,0.0,0.0,0.0,0.0,0.0,0.0,0.0,2.8773,2.8621,2.8143,2.7163,2.6823,2.6373,2.5979,2.538,2.4786,2.4368,2.4013,2.3754,2.3503,2.3232,2.3232,2.3416,2.2979,2.2539,2.2097,2.2097,2.1919,2.1651,2.1275,2.1195,2.1356,2.1421,2.1232,2.0928,2.1708,2.149,2.0874,2.0874,2.0645,2.0255,0.0,0.0,0.0,0.0,0.0,0.0,0.0,0.0,0.0,0.0,0.0,0.0919,0.0,0.0,0.0,0.0,0.0,0.0,0.0,0.0,0.0,0.0,0.0,0.0,0.0,0.0,0.0,0.0,0.0,0.0,0.0,2.595,2.6082,0.0,0.0,0.0,0.0,0.0,2.8797,2.8349,2.8578,2.8906,2.9132,0.0,2.8378,2.874,2.7294,2.6395,2.5807,2.521,2.4729,2.4328,2.3917,0.0,0.0,0.0,0.0,0.0,0.0,0.0,0.0,0.0,0.0,0.0,0.0,0.0,0.0,0.0,0.0,0.0,0.0,0.0,0.0,0.0,0.0,0.0,0.0,0.0,0.0,0.0,0.0,0.0,2.8736,2.859,2.8179,2.7267,2.6869,2.6467,2.5895,2.5464,2.5031,2.4615,2.41,2.3754,2.3667,2.3319,2.3144,2.3067,2.2891,2.2539,2.2097,2.2097,2.1919,2.1472,2.1186,2.113,2.1304,2.138,2.144,2.151,2.2128,2.1841,2.1182,2.1087,2.0627,2.0147,0.0,0.0,0.0,0.0,0.0,0.0,0.0,0.0,0.0,0.0,0.0,0.0,0.0,0.0,0.0,0.0,0.0,0.0,0.0,0.0,0.0,0.0,0.0,0.0,0.0,0.0,0.0,0.0,0.0,0.0,3.0213,3.0147,3.006,0.0,3.1148,0.0,0.0,0.0,0.0,0.0,2.9188,2.9542,0.0,0.0,0.0,0.0,0.0,0.0,0.0,0.0,0.0,0.0,0.0,0.0,0.0,0.0,0.0,0.0,0.0,0.0,0.0,0.0,0.0,0.0,0.0,0.0,0.0,0.0,0.0,0.0,0.0,0.0,0.0,0.0,0.0,0.0,0.0,0.0,0.0,0.0,0.0,0.0,2.851,2.8351,2.8018,2.7103,2.688,2.6467,2.5822,2.5549,2.52,2.4786,2.4186,2.3841,2.3841,2.3406,2.3057,2.2803,2.2803,2.2627,2.2185,2.2097,2.1928,2.158,2.1293,2.1225,2.145,2.1553,2.1767,2.1991,2.2464,2.218,2.1413,2.123,2.072,2.0054,0.0,0.0,0.0,0.0,0.0,0.0,0.0,0.0,0.0,0.0,0.0,0.0,0.0,0.0,0.0,0.0,0.0,0.0,0.0,0.0,0.0,0.0,0.0,0.0,0.0,0.0,0.0,0.0,0.0,0.0,2.9921,2.9924,2.9507,2.8871,3.0706,3.0524,2.8927,0.0,0.0,0.0,3.0671,3.0957,0.0,0.0,0.0,0.0,0.0,0.0,0.0,0.0,0.0,0.0,0.0,0.0,0.0,0.0,0.0,0.0,0.0,0.0,0.0,0.0,0.0,0.0,0.0,0.0,0.0,0.0,0.0,0.0,0.0,0.0,0.0,0.0,0.0,0.0,0.0,0.0,0.0,0.0,0.0,2.8895,2.8259,2.803,2.7557,2.6727,2.6373,2.6041,2.5644,2.5211,2.4786,2.454,2.4013,2.3841,2.3841,2.359,2.3242,2.2803,2.2803,2.2618,2.2353,2.2185,2.2097,2.2036,2.1688,2.1675,2.194,2.2241,2.2144,2.19,2.265,2.2377,2.1413,2.1413,2.0967,2.0484,0.0,0.0,0.0,0.0,0.0,0.0,0.0,0.0,0.0,0.0,0.0,0.0,0.0,0.0,-0.0277,-0.0314,-0.0359,0.0,0.0,0.0,0.0,0.0,0.0,0.0,0.0,0.0,0.0,0.0,0.0,2.804,2.9128,2.9099,2.8345,2.7161,3.0057,3.0106,2.8065,2.9448,0.0,0.0,3.0366,3.1051,0.0,0.0,0.0,0.0,0.0,0.0,0.0,0.0,0.0,0.0,0.0,0.0,0.0,0.0,0.0,0.0,0.0,0.0,0.0,0.0,0.0,0.0,0.0,0.0,0.0,0.0,0.0,0.0,0.0,0.0,0.0,0.0,0.0,0.0,0.0,0.0,0.0,0.0,0.0,2.8895,2.8419,2.8407,2.7964,2.7056,2.6925,2.655,2.5559,2.5369,2.5168,2.4974,2.4349,2.3937,2.359,2.3406,2.3057,2.2803,2.2618,2.2441,2.2195,2.2178,2.2207,2.2244,2.225,2.2155,2.1913,2.1787,2.1873,2.2117,2.2338,2.1974,2.1318,2.1038,2.0557,2.0104,0.0,0.0,0.0,0.0,0.0,-0.0428,0.0,0.0,0.0,0.0,0.0,0.0,0.0,0.0,0.0,-0.0718,0.1113,0.176,0.0552,0.5159,0.0,0.0,0.0,0.0,0.0,0.0,0.0,0.0,0.0,0.0,0.0,0.0,2.7048,2.6117,2.8728,2.8834,0.0,0.0,0.0,2.7691,0.0,3.0694,3.0113,0.0,0.0,0.0,0.0,0.0,0.0,0.0,0.0,0.0,0.0,0.0,0.0,0.0,0.0,0.0,0.0,0.0,0.0,0.0,0.0,0.0,0.0,0.0,0.0,0.0,0.0,0.0,0.0,0.0,0.0,0.0,0.0,0.0,0.0,0.0,0.0,0.0,0.0,2.9443,2.8877,2.8763,2.8335,2.7318,2.7184,0.0,2.5475,2.5369,2.5264,2.4908,2.4349,2.3851,2.3503,2.3319,2.3144,2.2882,2.2618,2.2441,2.2381,2.2416,2.2345,2.2262,2.2506,2.2536,2.229,2.2014,2.2132,2.2382,2.2231,2.1852,2.1303,2.0895,2.0367,1.982,0.0,-0.045,-0.0122,-0.0831,-0.0447,-0.0312,0.0,0.0,0.0,0.0,0.0,0.0,0.0,0.0,0.0,-0.1148,0.4351,0.7095,0.5354,0.9709,0.0,0.0,0.0,0.0,0.0,0.0,0.0,0.0,0.0,0.0,0.0,0.0,2.5744,0.0,2.6652,2.666,2.6118,0.0,2.7361,2.7535,0.0,3.0019,2.8797,0.0,0.0,0.0,2.8644,2.8333,0.0,0.0,0.0,0.0,0.0,0.0,0.0,0.0,0.0,0.0,0.0,0.0,0.0,0.0,0.0,0.0,0.0,0.0,0.0,0.0,0.0,0.0,0.0,0.0,0.0,0.0,0.0,0.0,0.0,0.0,0.0,0.0,0.0,3.0457,2.9506,2.9176,2.8551,2.7464,2.7056,2.6398,2.5243,2.5221,2.4882,2.4206,2.3947,2.3687,2.3523,2.3513,2.3329,2.3067,2.2891,2.2803,2.2813,2.2706,2.2507,2.218,2.2528,2.2799,2.308,2.2971,2.282,2.2509,2.2526,2.1912,2.1172,2.0801,2.0238,1.9682,-0.039,-0.0507,-0.0554,-0.0427,-0.051,-0.0629,0.0,0.0,0.0,0.0,0.0,0.0,0.0,0.0,0.0,0.3807,0.6958,0.942,1.0694,1.3991,1.5849,1.5811,0.0,0.0,0.0,0.0,0.0,0.0,0.0,0.0,0.0,0.0,0.0,0.0,2.5159,2.519,2.5107,2.6615,0.0,0.0,2.9419,3.0227,0.0,0.0,0.0,0.0,0.0,2.9223,2.8254,0.0,2.7234,2.3768,0.0,0.0,0.0,0.0,0.0,0.0,2.0651,0.0,0.0,0.0,0.0,0.0,2.5314,2.6732,2.79,0.0,0.0,0.0,0.0,0.0,0.0,0.0,0.0,0.0,0.0,0.0,0.0,0.0,0.0,3.0479,3.0221,2.985,2.9329,0.0,2.7744,2.6726,2.5743,2.5288,2.462,2.3937,2.4162,2.4147,2.3959,2.3662,2.3477,2.3335,2.2761,2.2441,2.2302,2.2649,2.2815,2.2667,2.3272,2.3322,2.3062,2.2689,2.2438,2.2356,2.2022,2.1603,2.1139,2.0386,1.9846,1.9447,-0.0189,-0.0673,-0.0951,-0.0535,0.0528,0.0863,0.0,0.0,0.0,0.0,0.0,0.0,0.0,0.0,0.0,0.0,1.03,1.2811,1.4205,1.8016,2.0227,0.0,0.0,0.0,0.0,0.0,0.0,0.0,0.0,0.0,0.0,0.0,0.0,0.0,0.0,0.0,0.0,0.0,0.0,0.0,2.8746,0.0,0.0,3.0869,3.1581,0.0,0.0,0.0,2.8518,3.0356,2.7762,0.0,0.0,0.0,0.0,0.0,0.0,0.0,0.0,0.0,0.0,0.0,0.0,0.0,2.5258,2.6525,2.7649,0.0,0.0,0.0,0.0,0.0,0.0,0.0,0.0,0.0,0.0,0.0,0.0,0.0,0.0,3.1181,3.1023,3.048,2.9873,2.9184,2.8063,2.6961,2.5672,2.4861,2.42,2.3851,2.4092,2.4057,2.387,2.3889,2.3634,2.3159,2.2824,2.2434,2.2124,2.241,2.251,2.24,2.2907,2.2831,2.2491,2.2452,2.2282,2.2111,2.1988,2.1593,2.1146,2.0443,2.0039,1.9757,0.0,-0.0818,-0.0948,-0.0274,0.2362,0.0,0.0,0.0,0.0,0.0,0.0,0.0,0.0,0.0,0.0,0.0,1.4384,1.6744,1.6711,2.1376,0.0,0.0,0.0,0.0,0.0,0.0,0.0,0.0,0.0,0.0,0.0,0.0,0.0,0.0,2.6328,2.6272,0.0,0.0,0.0,2.5153,2.796,2.8311,0.0,0.0,3.0577,0.0,3.029,2.976,2.8837,3.0112,2.8204,0.0,0.0,0.0,0.0,0.0,2.1094,0.0,0.0,0.0,0.0,0.0,0.0,0.0,2.604,2.6549,2.6937,2.8607,0.0,0.0,0.0,0.0,0.0,0.0,0.0,0.0,0.0,0.0,0.0,0.0,0.0,3.2263,3.1872,3.1069,3.0218,2.9316,2.8228,2.695,2.5394,2.4364,2.3774,2.3824,2.3824,2.3767,2.3642,2.4206,2.394,2.2859,2.3005,2.2668,2.2026,2.1971,2.1898,2.1726,2.2062,2.1955,2.1662,2.2162,2.2183,2.1923,2.2088,2.1827,2.1347,2.0876,2.0622,2.0404,0.0287,-0.0226,0.0538,0.4044,0.0,0.0,0.0,0.0,0.0,0.0,0.0,0.0,0.0,0.0,0.0,0.0,0.0,1.9894,0.0,0.0,0.0,0.0,0.0,0.0,0.0,0.0,0.0,0.0,0.0,0.0,0.0,0.0,0.0,0.0,2.6272,2.6484,0.0,0.0,0.0,2.6213,2.6958,0.0,2.8923,3.0583,3.1683,3.227,3.2136,3.0751,2.8629,0.0,2.6171,2.6089,0.0,0.0,0.0,0.0,0.0,0.0,0.0,0.0,0.0,0.0,0.0,0.0,2.338,2.3774,2.4229,0.0,0.0,0.0,0.0,0.0,0.0,0.0,0.0,0.0,0.0,0.0,0.0,0.0,0.0,3.2945,3.2363,3.1508,3.0785,3.0312,2.8223,2.6589,2.5841,2.4537,2.3827,2.3831,2.393,2.4088,2.4251,2.434,2.4156,2.3528,2.2997,2.2307,2.1589,2.1889,2.2012,2.2142,2.22,2.1955,2.1662,2.2162,2.2192,2.203,2.2088,2.2021,2.187,2.1329,2.0925,2.0668,0.5951,0.5127,0.4574,0.7432,0.0,0.0,0.0,0.0,0.0,0.0,0.0,0.0,0.0,0.0,0.0,0.0,0.0,0.0,0.0,0.0,0.0,0.0,0.0,0.0,0.0,0.0,0.0,0.0,0.0,0.0,0.0,0.0,0.0,0.0,0.0,0.0,0.0,0.0,2.5823,2.5903,2.7306,0.0,2.9866,3.1696,3.2604,3.2862,3.2419,3.0942,2.8837,2.7067,2.6062,0.0,0.0,2.3899,2.3283,0.0,2.2533,2.26,0.0,0.0,0.0,2.2854,0.0,0.0,0.0,2.4164,2.4317,2.4976,2.5357,0.0,0.0,0.0,0.0,0.0,0.0,0.0,0.0,0.0,0.0,0.0,0.0,3.2713,3.2261,3.1538,3.0854,3.0025,2.8398,2.6946,2.5972,2.4745,2.3909,2.3467,2.3751,2.3877,2.3919,2.4123,2.3951,2.3495,2.299,2.2409,2.1853,2.1572,2.1679,2.1969,2.1499,2.1301,2.1361,2.177,2.169,2.1289,2.1652,2.1871,2.1862,2.1221,2.0835,2.056,1.1512,1.1199,1.0193,1.2263,0.0,0.0,0.0,0.0,0.0,0.0,0.0,0.0,0.0,0.0,0.0,0.0,0.0,0.0,0.0,0.0,0.0,0.0,0.0,2.5541,0.0,0.0,0.0,0.0,0.0,0.0,0.0,0.0,0.0,0.0,0.0,0.0,0.0,0.0,0.0,2.5932,0.0,2.9059,2.9594,3.1773,3.2391,3.2082,3.1846,3.0654,2.9071,2.8295,0.0,2.4776,2.5618,2.494,0.0,0.0,0.0,0.0,0.0,0.0,0.0,0.0,0.0,2.3045,0.0,0.0,0.0,2.4682,0.0,0.0,0.0,0.0,0.0,0.0,0.0,0.0,0.0,0.0,0.0,0.0,3.1711,3.2199,3.1684,3.1075,3.0428,2.9533,2.8296,2.7232,2.6293,2.5168,2.4197,2.3398,2.3709,2.3764,2.3509,2.3817,2.3758,2.342,2.2898,2.251,2.2217,2.1355,2.1221,2.1581,2.0689,2.0464,2.0779,2.1113,2.0891,2.0449,2.1282,2.1578,2.1552,2.0974,2.0695,2.0456,1.1789,1.4332,1.7248,2.1618,0.0,0.0,0.0,0.0,0.0,0.0,0.0,0.0,0.0,0.0,0.0,0.0,0.0,0.0,2.6418,0.0,0.0,0.0,0.0,0.0,2.7424,0.0,0.0,0.0,0.0,0.0,0.0,0.0,0.0,0.0,2.7839,0.0,0.0,0.0,2.7486,0.0,2.8384,2.7741,0.0,2.8157,2.9337,3.0307,3.0426,2.9946,2.8958,0.0,2.6379,2.5673,0.0,2.4905,2.6032,0.0,0.0,0.0,0.0,0.0,0.0,0.0,2.2034,0.0,0.0,0.0,2.141,2.1804,0.0,0.0,0.0,0.0,0.0,0.0,0.0,0.0,0.0,0.0,0.0,2.8089,3.0523,3.1585,3.0274,2.9376,2.9061,2.9676,2.7391,2.6305,2.7309,2.5979,2.4886,2.4268,2.4426,2.4291,2.3799,2.3852,2.3861,2.3672,2.2797,2.2245,2.2052,2.1364,2.1101,2.1243,2.062,2.0201,2.0053,2.0458,2.023,1.9845,2.1092,2.142,2.123,2.1147,2.1054,2.0751,1.9878,1.9076,1.9461,2.3519,0.0,0.0,0.0,0.0,0.0,0.0,0.0,0.0,0.0,0.0,0.0,0.0,0.0,2.749,0.0,0.0,0.0,0.0,0.0,0.0,0.0,0.0,0.0,0.0,2.6336,0.0,0.0,0.0,0.0,0.0,2.8104,0.0,2.8956,0.0,0.0,0.0,0.0,0.0,0.0,2.942,3.0604,3.0381,3.002,2.9377,2.8576,0.0,2.6456,0.0,0.0,0.0,0.0,0.0,0.0,0.0,0.0,0.0,0.0,0.0,0.0,0.0,2.1782,0.0,2.0551,0.0,0.0,0.0,0.0,0.0,0.0,0.0,2.2592,0.0,0.0,0.0,0.0,0.0,0.0,0.0,2.9254,2.9181,2.9428,3.0056,2.8369,2.7316,2.7317,2.6229,2.5152,2.4229,2.4382,2.4136,2.3537,2.3411,2.3305,2.3214,2.2382,2.1926,2.196,2.1274,2.1004,2.0889,2.0269,2.0019,1.9962,2.0137,1.9884,1.9453,2.0219,2.0605,2.0663,2.0257,2.0207,2.0313,2.5014,0.0,0.0,0.0,0.0,0.0,0.0,0.0,0.0,0.0,0.0,0.0,2.4716,2.5239,0.0,0.0,0.0,2.9395,0.0,0.0,2.9384,0.0,0.0,0.0,0.0,0.0,0.0,2.6195,2.5891,0.0,0.0,0.0,0.0,0.0,0.0,2.8094,2.9626,0.0,0.0,2.7112,2.7765,2.7478,2.7063,3.033,3.1099,3.0427,2.9733,2.8951,2.8222,2.7564,2.6366,0.0,2.6856,0.0,0.0,0.0,0.0,0.0,2.2677,0.0,0.0,0.0,0.0,0.0,0.0,0.0,0.0,0.0,0.0,0.0,0.0,0.0,0.0,0.0,0.0,2.1744,0.0,0.0,0.0,0.0,0.0,0.0,0.0,2.8349,2.8718,2.9461,2.8275,2.7445,2.7041,2.6234,2.5228,2.4133,2.4155,2.388,2.3252,2.2879,2.2777,2.287,2.198,2.1771,2.196,2.1274,2.0826,2.0654,2.0201,1.9936,1.9862,1.9944,1.9674,1.9273,1.9547,1.987,2.0144,1.9606,1.962,1.9929,2.3258,2.4832,0.0,0.0,0.0,0.0,0.0,0.0,0.0,0.0,0.0,0.0,0.0,0.0,0.0,0.0,0.0,3.488,3.3147,0.0,3.2471,0.0,0.0,2.8173,0.0,0.0,0.0,2.6205,2.528,2.5196,0.0,0.0,0.0,0.0,0.0,2.6312,2.6309,2.6764,2.8184,2.9978,2.8914,2.9402,3.0662,0.0,2.9211,2.9924,2.9348,0.0,0.0,2.6673,2.6063,0.0,0.0,0.0,0.0,0.0,0.0,0.0,0.0,0.0,0.0,2.1187,0.0,0.0,0.0,0.0,1.9425,0.0,0.0,0.0,0.0,0.0,0.0,0.0,0.0,0.0,0.0,0.0,0.0,0.0,0.0,0.0,0.0,2.6009,2.6156,2.7061,2.6218,2.5792,2.6378,2.5918,2.5295,2.4316,2.4029,2.3636,2.2985,2.2529,2.2437,2.2712,2.1852,2.1599,2.196,2.1101,2.0744,2.0654,2.0382,2.0027,1.9587,1.9596,1.9524,1.936,1.9368,1.9574,1.9868,1.9568,1.9688,2.0031,2.3879,0.0,0.0,0.0,0.0,0.0,0.0,2.4887,0.0,0.0,0.0,0.0,0.0,0.0,3.1042,0.0,0.0,3.416,3.4062,3.3186,0.0,0.0,0.0,2.8858,0.0,0.0,0.0,2.5348,2.551,2.5649,0.0,0.0,0.0,0.0,0.0,2.7227,0.0,0.0,0.0,0.0,0.0,2.856,2.9112,0.0,2.9603,2.9556,2.9319,2.8764,0.0,2.7509,2.6722,2.6104,2.7026,2.6422,2.5728,2.6891,2.6476,2.5447,0.0,0.0,2.3081,2.1615,0.0,0.0,0.0,0.0,0.0,0.0,0.0,0.0,0.0,0.0,0.0,0.0,0.0,0.0,0.0,0.0,0.0,0.0,0.0,0.0,0.0,0.0,0.0,2.6672,2.6205,2.6068,2.6408,2.5751,2.5158,2.4431,2.4072,2.3576,2.2926,2.2647,2.2197,2.1861,2.1626,2.1434,2.1119,2.0806,2.0473,2.0209,2.0365,1.9962,1.9328,1.9817,1.9757,1.9391,1.9614,1.9765,1.9868,1.9771,1.9992,2.0348,2.3366,0.0,0.0,0.0,0.0,0.0,0.0,0.0,0.0,0.0,2.6927,0.0,2.884,0.0,3.0492,0.0,3.305,3.3848,3.402,3.4057,0.0,3.4536,3.229,0.0,0.0,0.0,0.0,2.6289,2.6091,2.6047,2.6117,0.0,0.0,0.0,0.0,0.0,0.0,0.0,2.9238,0.0,0.0,2.8772,0.0,0.0,2.9283,2.8545,0.0,2.8605,2.8088,2.8042,2.736,2.666,2.817,2.7343,2.6183,2.7656,2.7048,2.5679,2.47,2.4181,0.0,2.1709,2.1043,0.0,1.9479,0.0,0.0,0.0,0.0,0.0,0.0,0.0,0.0,0.0,0.0,0.0,0.0,1.8675,0.0,0.0,0.0,0.0,0.0,0.0,2.3909,2.5184,2.5356,2.5508,0.0,2.5271,2.4833,2.444,2.3953,2.345,2.2762,2.2668,2.2177,2.1293,2.1505,2.1304,2.0744,2.0564,2.046,2.0239,2.0568,2.0406,2.0087,2.0572,2.0582,2.0335,2.0544,2.0532,2.0416,2.019,2.0364,2.0703,2.1784,2.1138,0.0,0.0,2.3886,0.0,0.0,0.0,2.5481,0.0,2.6925,2.6588,2.8213,2.9866,3.054,2.9766,3.2697,0.0,3.3448,3.4905,0.0,0.0,3.5445,3.4844,3.5643,0.0,0.0,0.0,0.0,2.6334,2.674,0.0,0.0,0.0,2.4051,0.0,2.7957,2.667,2.8183,3.1346,3.0477,2.9897,2.954,2.9319,2.8207,2.692,2.8171,2.8284,2.789,2.825,2.784,2.7402,2.8576,2.8785,2.8566,2.8784,2.8594,2.779,2.5479,2.4272,2.3282,2.1512,2.0472,0.0,0.0,0.0,1.8892,0.0,0.0,0.0,0.0,0.0,0.0,0.0,0.0,0.0,0.0,0.0,0.0,0.0,0.0,0.0,0.0,2.1017,2.1924,2.2858,2.3601,0.0,0.0,2.4393,2.4295,2.4125,2.373,2.3126,2.2528,2.2726,2.2233,2.0997,2.1431,2.1331,2.0689,2.0434,2.0549,2.0908,2.0925,2.1154,2.161,2.1643,2.176,2.1852,2.1885,2.1691,2.1328,2.0773,2.0732,2.1028,2.1669,2.1616,2.2022,0.0,2.4785,2.5449,0.0,0.0,0.0,0.0,2.8993,2.9893,3.0989,3.1447,3.1849,3.2288,3.3725,0.0,0.0,0.0,0.0,3.9716,3.6968,3.5716,3.6484,3.2851,0.0,2.977,0.0,0.0,2.7651,0.0,0.0,0.0,0.0,0.0,2.831,2.7166,2.8178,3.0477,2.9677,2.8774,2.789,0.0,2.7674,2.6428,2.8062,2.8365,2.7955,2.8107,2.763,2.715,2.8008,2.7891,2.7489,2.7919,2.7598,2.6891,2.57,2.4554,2.3318,2.206,2.0781,1.9668,1.8822,0.0,0.0,0.0,0.0,0.0,0.0,0.0,0.0,0.0,0.0,0.0,0.0,0.0,0.0,1.8088,0.0,0.0,1.8699,2.0134,2.1343,2.2091,2.3004,0.0,0.0,0.0,2.3103,2.3117,2.2733,2.233,2.1844,2.1751,2.1318,2.0744,2.1232,2.1362,2.1107,2.1096,2.1268,2.157,2.1681,2.1531,2.1354,2.1893,2.1759,2.1211,2.1738,2.1937,2.1783,2.1133,2.0682,2.0358,2.1783,0.0,0.0,2.4157,0.0,0.0,2.6269,2.6444,0.0,2.8665,2.9035,0.0,3.1367,3.1499,3.1675,3.2162,3.3329,0.0,3.4831,0.0,0.0,3.854,3.7502,3.6871,3.6895,3.4187,0.0,3.071,0.0,0.0,2.7329,0.0,0.0,0.0,0.0,2.4478,0.0,2.7129,2.7932,2.8882,2.9096,2.8663,0.0,2.831,2.773,2.6847,2.7799,2.7989,2.774,2.773,2.7388,2.7072,2.7684,2.7533,2.7153,2.7367,2.6973,2.6208,2.5229,2.4299,2.3283,2.2073,2.1009,1.9956,1.8935,1.8578,1.8479,0.0,1.8932,1.9175,0.0,0.0,0.0,0.0,0.0,0.0,0.0,0.0,0.0,0.0,1.8122,0.0,1.765,1.932,2.0697,2.1117,2.1836,0.0,0.0,0.0,2.26,2.2369,2.238,2.2167,2.1525,2.1758,2.1462,2.0572,2.1242,2.1492,2.1302,2.1251,2.1543,2.2114,2.224,2.213,2.2038,2.2879,2.2648,2.1932,2.1965,2.183,2.1611,2.1209,2.0817,2.0578,2.226,0.0,0.0,0.0,0.0,0.0,0.0,2.6074,0.0,2.9225,0.0,2.8597,3.0573,3.0993,3.1083,3.0977,0.0,3.3198,3.2551,3.539,3.6814,3.6153,3.7594,3.8015,3.7182,3.5407,0.0,0.0,0.0,0.0,0.0,0.0,0.0,0.0,0.0,0.0,0.0,2.6836,2.7646,2.7431,2.8677,2.8936,2.8605,2.8332,2.7989,2.7524,2.7335,2.7284,2.7284,2.721,2.7099,2.7102,2.7365,2.7346,2.7152,2.694,2.6471,2.5697,2.4504,2.3801,2.3161,2.188,2.1066,2.0363,1.9441,1.8967,1.8712,1.8642,1.8518,1.8483,1.8891,0.0,0.0,0.0,0.0,0.0,0.0,0.0,0.0,0.0,0.0,0.0,1.7058,1.8772,1.9907,2.0039,0.0,0.0,0.0,0.0,2.2312,2.1698,2.2258,2.2136,2.1177,2.2074,2.1847,2.0446,2.1337,2.1708,2.1647,2.1242,2.1724,2.2644,2.2644,2.2766,2.3056,2.3713,2.3609,2.3011,2.212,2.1526,2.1148,2.124,2.1133,2.0894,0.0,0.0,0.0,0.0,0.0,2.7244,2.7968,2.9022,2.9718,2.9611,3.1159,3.1897,3.0908,3.203,3.2596,3.1928,3.3398,0.0,0.0,0.0,0.0,3.7838,3.8207,3.8306,3.8093,3.6348,3.4469,0.0,0.0,0.0,0.0,0.0,0.0,0.0,0.0,0.0,2.5533,2.6768,0.0,2.8575,2.8449,2.8365,2.8235,2.774,2.7437,2.7233,2.6788,2.6736,2.6788,2.6654,2.6588,2.662,2.6818,2.6818,2.6648,2.6375,2.5849,2.5229,2.4238,2.3298,2.2488,2.1883,2.0822,1.9807,1.9234,1.8857,1.8548,1.8126,1.8286,1.8333,1.7613,1.7065,0.0,0.0,0.0,0.0,0.0,0.0,0.0,0.0,0.0,1.9238,0.0,1.8709,0.0,0.0,0.0,0.0,0.0,0.0,2.1301,0.0,2.1543,2.1242,0.0,0.0,2.1217,2.1216,2.1679,2.2253,2.2746,2.2378,2.2555,2.2946,2.2745,2.2664,2.2711,2.2636,2.2511,2.214,2.169,2.1262,2.1054,2.1627,2.1225,2.0414,0.0,0.0,0.0,0.0,0.0,0.0,0.0,3.0077,3.0583,2.9701,3.0669,3.1114,3.0279,3.1669,3.2514,3.2124,3.3663,3.4792,3.5145,3.5561,3.6177,3.7021,3.6657,0.0,3.7042,3.619,3.4352,3.1507,0.0,0.0,0.0,0.0,0.0,0.0,0.0,2.3225,0.0,0.0,0.0,2.7427,2.7992,2.8137,2.797,2.7897,2.7499,2.6951,2.7006,2.6651,2.615,2.6002,2.6287,2.6508,2.6174,2.6309,2.6493,2.5857,2.5358,2.4802,2.3813,2.3176,2.2422,2.1372,2.054,1.9665,1.8275,1.7663,1.7183,1.6646,1.6649,1.6682,1.6416,1.6048,1.578,0.0,0.0,0.0,0.0,0.0,0.0,0.0,0.0,0.0,0.0,0.0,0.0,0.0,0.0,0.0,0.0,0.0,2.1007,0.0,0.0,0.0,2.0874,0.0,2.1156,2.1413,2.1718,2.2195,2.3047,2.2945,2.2946,2.3126,2.3022,2.2815,2.2495,2.2391,2.2184,2.1876,2.1523,2.1178,2.1082,2.1581,2.1462,2.1231,0.0,2.5412,0.0,0.0,2.8001,0.0,2.9492,3.0332,3.0644,2.9959,3.0014,3.005,2.9877,3.1356,3.2307,3.2121,3.3516,3.448,3.4603,3.4603,3.4993,3.5866,3.524,3.5178,3.5885,3.5852,3.4221,0.0,0.0,0.0,0.0,0.0,0.0,0.0,0.0,0.0,0.0,0.0,2.6505,2.65,2.7667,2.8102,2.7976,2.824,2.7832,2.7161,2.7449,2.6876,2.6008,2.5754,2.6081,2.6417,2.5714,2.5942,2.6371,2.5523,2.4945,2.4371,2.3361,2.2961,2.2434,2.0947,2.0232,1.9408,1.7539,1.6458,1.5718,1.5094,1.4903,1.484,1.5052,1.491,1.4922,0.0,0.0,0.0,0.0,0.0,0.0,0.0,0.0,0.0,1.8667,0.0,0.0,0.0,0.0,0.0,2.052,0.0,0.0,0.0,0.0,2.1602,2.1302,0.0,2.1553,2.1901,2.2019,2.2503,2.3348,2.328,2.3252,2.3132,2.3132,2.2711,2.2075,2.2157,2.1932,2.1531,2.1234,2.0988,2.077,2.1348,2.1601,2.1715,0.0,0.0,0.0,0.0,0.0,2.9506,2.959,3.0332,3.0859,3.071,3.1372,3.1571,3.0771,3.2231,3.2968,3.2165,3.2976,3.3844,3.4638,3.4631,3.4995,3.585,3.5768,3.5748,3.5898,3.5898,3.4836,0.0,0.0,2.9292,0.0,0.0,0.0,0.0,0.0,0.0,2.6979,2.6947,2.7213,2.767,2.7966,2.8278,2.8525,2.8443,2.8423,2.845,2.7853,2.7432,2.6964,2.6438,2.6126,2.5926,2.5793,2.587,2.5828,2.5229,2.4671,2.397,2.2777,2.2359,2.1979,2.1192,1.9867,1.8498,1.7765,1.6155,1.466,1.4223,1.3854,1.3545,1.3368,1.3695,1.4019,1.4057,0.0,0.0,0.0,0.0,0.0,0.0,0.0,0.0,0.0,1.8962,0.0,0.0,1.9007,0.0,0.0,0.0,0.0,2.0865,2.0738,2.0755,2.0925,2.1936,2.2792,2.3485,2.3528,2.3751,2.4119,2.3794,2.3372,2.2753,2.2753,2.2233,2.1399,2.1739,2.137,2.0671,2.0632,2.0228,1.9941,2.1099,2.1076,2.0604,0.0,0.0,0.0,0.0,0.0,0.0,0.0,3.1406,3.1601,3.1574,3.1459,3.1245,3.0895,3.2389,3.3261,3.2914,3.4167,3.5112,3.5459,3.4978,3.5022,3.585,3.5373,3.5327,3.5818,3.6309,3.5573,0.0,0.0,0.0,0.0,0.0,0.0,2.5581,2.6536,2.698,2.713,2.7788,2.8101,2.8166,2.8263,2.8536,2.8912,2.9042,2.8828,2.8369,2.8347,2.77,2.6823,2.6443,2.6308,2.6219,2.5668,2.558,2.5548,2.4754,2.4105,2.3446,2.2628,2.2224,2.1815,2.0799,1.9614,1.8251,1.6558,1.504,1.3845,1.3147,1.303,1.3023,1.2862,1.3004,1.3215,1.3172,0.0,0.0,0.0,0.0,0.0,0.0,0.0,0.0,0.0,0.0,0.0,0.0,0.0,0.0,0.0,0.0,0.0,2.1349,0.0,2.1675,2.2218,2.234,2.2826,2.3682,2.3691,2.3879,2.4239,2.4316,2.382,2.2823,2.2608,2.2298,2.1763,2.1908,2.1552,2.0794,2.0592,2.03,2.0059,2.0773,2.0932,2.0933,2.8863,0.0,2.8969,0.0,3.0189,3.0721,3.1914,3.2324,3.248,3.2479,3.1991,3.1542,3.1287,3.2313,3.3124,3.3378,3.4534,3.5342,3.5576,3.5017,3.5042,3.5864,3.5541,0.0,3.6112,3.6881,3.654,3.4998,3.3725,0.0,0.0,2.7651,2.6945,2.7273,2.8348,2.8412,2.775,2.8704,2.8815,2.8343,2.8567,2.8994,2.941,2.9668,2.9331,2.8694,2.8666,2.7913,2.6854,2.6492,2.6317,2.6117,2.5512,2.5329,2.5122,2.4407,2.3843,2.3264,2.2587,2.236,2.191,2.0714,1.9495,1.8065,1.6024,1.4508,1.3203,1.2441,1.2436,1.2616,1.2603,1.2736,1.2932,1.3066,1.4078,0.0,0.0,1.8094,0.0,0.0,2.0132,2.0095,1.9996,1.916,0.0,0.0,0.0,0.0,0.0,0.0,0.0,0.0,0.0,0.0,2.2458,2.2316,2.2826,2.3674,2.39,2.4042,2.441,2.4336,2.393,2.3031,2.2702,2.2283,2.1957,2.1957,2.1593,2.1015,2.0585,2.0246,2.0091,2.0627,2.0786,2.079,3.0426,3.0138,2.9867,3.0732,3.1538,3.2089,3.2108,3.2831,3.3378,3.3378,3.3379,3.3046,3.2183,3.21,3.2461,3.3314,3.3427,3.3769,3.4559,3.4607,3.499,0.0,0.0,3.7007,3.6897,3.7618,3.7767,3.7356,0.0,0.0,3.1714,2.8893,2.8074,2.8997,2.9703,2.9811,2.9579,2.9704,2.9122,2.8204,2.903,2.9668,3.0116,3.011,2.9946,2.967,2.8881,2.8091,2.7391,2.6676,2.5931,2.53,2.53,2.495,2.4559,2.431,2.395,2.3535,2.2747,2.2513,2.2284,2.1332,1.9558,1.7796,1.6781,1.4829,1.2948,1.2068,1.2188,1.2374,1.2343,1.2926,1.3625,1.387,1.39,0.0,0.0,1.7887,0.0,1.9903,1.9555,1.9455,2.0264,1.9429,0.0,0.0,0.0,0.0,0.0,0.0,0.0,2.0533,2.0218,0.0,2.0908,2.1996,2.2937,2.3708,2.4059,2.4436,2.4804,2.3871,2.3376,2.3368,2.2702,2.2283,2.1957,2.175,2.1418,2.1055,2.0399,2.0067,1.9872,2.0837,2.0589,1.9952,3.151,3.0966,3.0518,3.078,3.1535,3.2108,3.2109,3.2832,3.3398,3.3397,3.3398,3.3513,3.3832,3.3866,3.3975,0.0,3.4792,3.5451,0.0,3.6307,3.6658,3.7424,3.7674,3.7687,3.7454,3.8027,3.8383,3.8483,0.0,3.3003,3.0541,2.9812,2.9779,3.0243,3.0436,3.0174,2.9563,2.9392,2.9262,2.9101,2.9159,2.9576,3.0113,2.9842,2.9602,2.9212,2.843,2.7696,2.7002,2.6402,2.5664,2.498,2.5043,2.4746,2.4267,2.3788,2.3278,2.277,2.2351,2.192,2.1402,2.0614,1.9067,1.7502,1.6455,1.4746,1.3282,1.2421,1.2688,1.2989,1.2454,1.3099,1.3705,1.3667,1.5004,1.6366,1.712,0.0,1.986,1.9874,2.0457,2.0704,2.0424,2.0637,0.0,0.0,0.0,0.0,0.0,0.0,0.0,0.0,2.0983,0.0,2.2105,2.2903,2.3562,2.4068,2.4645,2.4794,2.4479,2.4019,2.3517,2.3071,2.2959,2.2784,2.2641,2.1946,2.1426,2.104,2.0159,1.974,1.9491,2.0025,2.0164,2.0208,3.2026,3.1367,3.0801,3.0791,3.1516,3.2206,3.2538,3.334,3.4004,3.4334,3.4374,3.4586,3.514,3.5165,3.5264,3.5573,3.6033,3.6664,3.7494,3.7453,3.7626,3.8102,3.8171,3.8049,3.7776,3.8098,3.8245,3.8224,3.5241,3.2692,3.0661,3.0591,3.0544,3.0628,3.0628,3.0219,2.9522,2.9337,2.9354,2.9405,2.9263,2.9468,2.9898,2.954,2.9085,2.8638,2.7973,2.7229,2.644,2.6012,2.5325,2.4692,2.4705,2.4524,2.4279,2.3784,2.3273,2.291,2.2601,2.2284,2.1873,2.1025,1.973,1.8177,1.6183,1.4646,1.3366,1.262,1.3082,1.3318,1.2737,1.3555,1.4183,1.4248,1.557,1.6877,1.7695,1.9071,1.9973,0.0,0.0,2.0835,2.049,2.0876,2.0999,0.0,0.0,0.0,0.0,0.0,2.0889,2.0799,2.1219,2.1643,2.2291,2.2851,2.3329,2.3819,2.4442,2.4769,2.4487,2.4256,2.3809,2.336,2.327,2.3141,2.2982,2.1992,2.167,2.1605,2.0494,2.0101,2.004,2.0369,2.0457,2.053,3.2166,3.1181,3.045,3.0833,3.1366,3.2127,3.3221,3.414,3.4863,3.5308,3.5681,3.5795,3.548,3.5368,3.5833,3.7082,3.7078,3.7394,3.8307,3.8119,3.8026,3.8092,3.8232,3.8177,3.7891,3.7831,3.741,3.6626,3.4454,3.277,3.1564,3.097,3.0582,3.019,3.019,2.9875,2.9373,2.9473,2.9388,2.9135,2.9198,2.9324,2.9477,2.9162,2.8573,2.7908,2.7364,2.6589,2.581,2.5538,2.5061,2.4582,2.4388,2.4399,2.4395,2.4136,2.3947,2.3627,2.3212,2.3193,2.3164,2.208,2.0965,1.9351,1.6095,1.4455,1.3442,1.2836,1.316,1.3442,1.3308,1.4034,1.4967,1.5518,1.5833,1.6718,1.8992,1.901,1.9327,2.066,2.0201,2.0069,2.0669,2.0525,2.082,0.0,0.0,0.0,0.0,0.0,2.0467,2.078,2.0897,2.1088,2.1685,2.2005,2.246,2.316,2.3888,2.4427,2.4667,2.4479,2.4264,2.3825,2.3616,2.334,2.2901,2.2116,2.2062,2.2374,2.1158,2.0874,2.1181,2.1533,2.1262,2.0867,3.3005,2.9143,2.7105,3.1099,2.9796,2.9368,3.2869,3.4137,3.3302,2.941,3.2474,3.3672,3.0202,2.9672,3.1872,3.7598,3.7527,3.768,3.891,3.8934,3.8949,3.9062,3.8664,3.822,3.769,3.6934,3.5673,3.3942,3.352,3.2338,3.0375,3.0162,2.9822,2.9401,2.9401,2.9317,2.9143,2.8903,2.8953,2.908,2.8684,2.8688,2.878,2.8471,2.8,2.739,2.6985,2.6342,2.5648,2.5073,2.4676,2.4334,2.4404,2.4115,2.3886,2.3643,2.3567,2.3408,2.2795,2.2494,2.2259,2.1248,1.9946,1.8264,1.5817,1.5126,1.4615,1.3251,1.3579,1.4233,1.4551,1.5108,1.5728,1.6296,1.7241,1.823,1.9003,2.0165,2.0974,2.136,2.1649,2.1784,2.1461,2.1803,2.1626,0.0,0.0,2.0818,2.0622,2.0265,2.0381,2.1283,2.1729,2.2039,2.2142,2.2629,2.3065,2.3537,2.4008,2.4173,2.4057,2.4241,2.4153,2.3609,2.3853,2.3576,2.2901,2.2222,2.1896,2.1691,2.0729,2.0398,2.0537,2.1115,2.1072,2.0867,3.3336,3.0389,2.8883,3.2137,2.9132,2.7261,3.0169,2.8906,2.6759,2.4402,2.6886,2.7972,2.5552,2.4796,2.6575,3.1776,3.3203,3.54,3.9144,3.9108,3.8961,3.9026,3.7889,3.7202,3.7079,3.5966,3.4464,3.2619,3.2473,3.1455,2.9656,2.956,2.9275,2.8844,2.8958,2.8958,2.8844,2.8444,2.8522,2.8844,2.8379,2.8249,2.8341,2.8066,2.7603,2.6998,2.6577,2.6159,2.5654,2.5386,2.4963,2.4681,2.4697,2.4358,2.3872,2.3637,2.3638,2.3453,2.2726,2.263,2.2302,2.098,1.9754,1.8295,1.6327,1.5763,1.5239,1.4191,1.4371,1.4974,1.5578,1.6007,1.6538,1.7753,1.8123,1.8729,2.0087,2.0777,2.1379,2.1985,2.2524,2.2644,2.2139,2.2644,2.2481,2.1378,2.1611,0.0,2.1156,2.105,2.1138,2.1299,2.1522,2.1914,2.2295,2.2806,2.3193,2.3559,2.3593,2.3798,2.403,2.4124,2.3986,2.3713,2.3616,2.3233,2.282,2.2336,2.2128,2.1925,2.1141,2.1079,2.135,2.1576,2.1628,2.1686,3.2441,3.0616,2.9565,3.1159,2.7072,2.4206,2.6143,2.2505,1.9585,1.9818,2.1224,2.1915,2.1218,2.0709,2.1704,2.4835,2.7273,3.1391,3.7976,3.8558,3.8559,3.8402,3.662,3.583,3.6333,3.4839,3.3373,3.1957,3.118,3.0284,2.9245,2.8935,2.8716,2.8457,2.856,2.856,2.8392,2.8039,2.8118,2.8392,2.8079,2.7947,2.8013,2.7789,2.7255,2.6521,2.632,2.5996,2.5793,2.5773,2.5506,2.5104,2.5022,2.458,2.4023,2.3929,2.3805,2.358,2.2979,2.2794,2.253,2.1068,2.0038,1.8925,1.7477,1.6555,1.5791,1.532,1.5477,1.5851,1.662,1.6857,1.7494,1.9159,1.8832,1.9135,2.1163,2.1109,2.1264,2.2432,2.2846,2.2846,2.2644,2.3046,2.3073,2.2629,2.2775,2.2698,2.2232,2.2231,2.1941,2.1444,2.1178,2.1536,2.2308,2.2825,2.3082,2.3178,2.3193,2.3528,2.4153,2.3947,2.3844,2.3825,2.332,2.2959,2.2588,2.2453,2.246,2.2498,2.1936,2.2045,2.2528,2.2271,2.2345,2.2608,2.8071,2.1038,1.6581,2.1553,1.8358,1.6749,2.1719,2.1734,1.9529,1.4993,1.9496,2.1374,1.6784,1.7707,2.0715,2.5726,2.4313,2.5909,3.249,3.6605,3.8355,3.745,3.571,3.5013,3.554,3.3291,3.1684,3.0651,2.9522,2.8978,2.896,2.8013,2.7723,2.7921,2.7789,2.7656,2.7669,2.759,2.759,2.7656,2.7281,2.7348,2.7536,2.7214,2.6671,2.6029,2.6235,2.6027,2.5678,2.526,2.5182,2.5157,2.4744,2.4272,2.3846,2.4067,2.3887,2.3416,2.2979,2.2274,2.1644,2.1414,2.049,1.9485,1.8768,1.7905,1.7105,1.6704,1.6973,1.7455,1.8018,1.848,1.8824,1.9011,2.0079,2.0752,2.0623,2.1773,2.2646,2.2627,2.2644,2.2644,2.2644,2.2644,2.2681,2.2697,2.2469,2.2333,2.2593,2.1903,2.1636,2.1928,2.2039,2.2183,2.2536,2.2638,2.2663,2.2723,2.3306,2.3639,2.3776,2.4107,2.4206,2.3954,2.3913,2.3535,2.2937,2.2894,2.2766,2.2498,2.1936,2.192,2.225,2.2198,2.2213,2.233,2.378,2.0154,1.7924,2.1042,1.8031,1.6275,1.9547,1.7901,1.5477,1.3237,1.6151,1.7363,1.4491,1.516,1.7081,2.0183,2.136,2.3628,2.7615,3.2214,3.4757,3.4802,3.365,3.3193,3.3677,3.2299,3.1096,3.0144,2.9419,2.8782,2.8209,2.7782,2.7566,2.7523,2.7403,2.7335,2.7201,2.7134,2.7369,2.7764,2.7249,2.7314,2.7751,2.7114,2.6628,2.6282,2.6094,2.6035,2.6016,2.5701,2.538,2.5137,2.4807,2.4221,2.3688,2.3806,2.3503,2.3067,2.2706,2.2185,2.1697,2.1236,2.0727,2.009,1.9077,1.8548,1.8266,1.7979,1.8182,1.8709,1.9543,1.9827,2.0188,2.09,2.1028,2.1354,2.1881,2.224,2.2484,2.3003,2.3046,2.3046,2.3046,2.3046,2.3112,2.3401,2.3444,2.3238,2.291,2.2616,2.2233,2.1937,2.2095,2.2112,2.1937,2.2342,2.2646,2.2656,2.3099,2.358,2.3982,2.3905,2.3842,2.3825,2.3233,2.2929,2.2774,2.2669,2.2638,2.2517,2.225,2.2396,2.2659,2.2484,2.2535,2.2725,2.0775,2.0174,1.9867,2.1225,1.8785,1.6927,1.7922,1.4856,1.2542,1.2932,1.3804,1.4253,1.3844,1.4551,1.5354,1.5999,1.9934,2.306,2.446,2.8108,3.1098,3.2859,3.2344,3.184,3.1473,3.1116,3.0552,2.9632,2.9224,2.872,2.8145,2.7831,2.769,2.7657,2.7317,2.722,2.7327,2.6909,2.7258,2.8138,2.7339,2.7447,2.7806,2.7151,2.6723,2.642,2.6098,2.617,2.6382,2.6118,2.5665,2.5228,2.4999,2.4376,2.3578,2.3664,2.3319,2.2794,2.2618,2.2353,2.2008,2.1195,2.1096,2.0845,1.9749,1.955,1.9516,1.942,1.9617,2.0065,2.0922,2.101,2.1337,2.2329,2.1856,2.1761,2.2965,2.262,2.2576,2.3276,2.3347,2.3347,2.3347,2.3247,2.345,2.3841,2.3973,2.3774,2.3142,2.3035,2.2616,2.1742,2.1928,2.1928,2.1522,2.2241,2.2596,2.268,2.2953,2.3448,2.4002,2.3519,2.3529,2.3705,2.2733,2.2498,2.2655,2.2475,2.2535,2.2725,2.2652,2.282,2.3069,2.274,2.2828,2.3106,2.0287,1.7066,1.4768,1.7634,1.6802,1.5762,1.6045,1.5117,1.4173,1.3794,1.4462,1.5015,1.5112,1.7409,1.8714,1.8222,2.1745,2.4116,2.4336,2.612,2.9086,3.3293,3.3239,3.1847,2.9308,2.9475,2.9248,2.8499,2.7919,2.8231,2.9308,2.7974,2.7901,2.8834,2.7403,2.731,2.8236,2.717,2.7348,2.8312,2.7586,2.7314,2.7331,2.7445,2.6883,2.6152,2.6291,2.6381,2.6451,2.603,2.5746,2.54,2.5274,2.4498,2.3887,2.4272,2.3754,2.3057,2.3047,2.2706,2.2353,2.2097,2.1909,2.1715,2.1715,2.1327,2.1077,2.1349,2.1603,2.1722,2.1591,2.1995,2.2241,2.1742,2.2438,2.2777,2.2318,2.3046,2.3583,2.3438,2.3147,2.3046,2.3046,2.2846,2.2945,2.3676,2.3109,2.292,2.3271,2.2568,2.208,2.1725,2.1928,2.2123,2.2021,2.2443,2.2561,2.2595,2.2992,2.3249,2.3325,2.3464,2.3448,2.3513,2.3131,2.307,2.302,2.3037,2.3054,2.3047,2.274,2.282,2.3069,2.274,2.2828,2.3106,1.6172,1.5764,1.5634,1.6724,1.7151,1.7558,1.8136,1.8135,1.802,1.786,1.8611,1.9045,1.8499,2.0542,2.1564,2.0634,2.3193,2.4966,2.523,2.6585,2.8586,3.1114,3.0884,3.023,2.9197,2.9333,2.8913,2.7937,2.8211,2.8461,2.8775,2.8338,2.8296,2.863,2.7885,2.7792,2.8157,2.7729,2.8066,2.8783,2.7961,2.7863,2.8211,2.7421,2.6983,2.6823,2.638,2.6336,2.6467,2.6091,2.5728,2.5464,2.5115,2.4615,2.4074,2.4085,2.3614,2.3164,2.3599,2.283,2.1909,2.1741,2.1843,2.1871,2.1749,2.1856,2.2057,2.2209,2.2432,2.2608,2.2749,2.2931,2.3153,2.3157,2.3429,2.3466,2.342,2.3664,2.3854,2.3854,2.3546,2.3347,2.3447,2.3147,2.326,2.4132,2.3817,2.3573,2.356,2.2678,2.1965,2.1428,2.1818,2.2123,2.2123,2.2443,2.2663,2.2903,2.3321,2.3474,2.3619,2.369,2.3697,2.3497,2.296,2.2933,2.3042,2.2874,2.2923,2.3098,2.2974,2.3003,2.3091,2.2974,2.2879,2.2856,1.5945,1.7171,1.8337,1.9093,1.9826,2.0442,2.1015,2.1019,2.1011,2.0954,2.1537,2.1602,2.0878,2.2503,2.335,2.2685,2.4493,2.5768,2.6091,2.7174,2.853,3.0002,2.9604,2.9315,2.93,2.8971,2.8456,2.7639,2.8144,2.8463,2.8577,2.861,2.8737,2.8921,2.8346,2.8298,2.8612,2.826,2.8511,2.9189,2.8363,2.83,2.8523,2.7718,2.7382,2.7238,2.6714,2.6597,2.6644,2.6135,2.5801,2.538,2.5031,2.4623,2.4317,2.4037,2.3779,2.3582,2.3788,2.3072,2.2207,2.2035,2.2336,2.2628,2.2254,2.2546,2.2831,2.2831,2.3039,2.3085,2.3231,2.3556,2.3776,2.3932,2.3962,2.3945,2.4143,2.4053,2.3954,2.4152,2.3755,2.3447,2.3646,2.337,2.3502,2.4245,2.4088,2.3831,2.3344,2.2452,2.1895,2.153,2.1928,2.2131,2.2232,2.2342,2.263,2.3117,2.3389,2.3541,2.3695,2.3747,2.365,2.3318,2.2983,2.2853,2.3067,2.2896,2.2908,2.3106,2.2988,2.2981,2.2981,2.2981,2.2738,2.248,2.0969,2.1488,2.2341,2.5049,2.4672,2.412,2.412,2.3265,2.2628,2.2402,2.2257,2.2128,2.1818,2.3057,2.404,2.4169,2.5643,2.6622,2.6891,2.7557,2.8724,3.0532,2.9999,2.9517,2.9174,2.8231,2.7639,2.7394,2.7639,2.8149,2.9118,2.8795,2.9138,3.0024,2.8686,2.875,2.9716,2.8599,2.8587,2.9369,2.8835,2.8383,2.8062,2.8385,2.8016,2.7387,2.7497,2.7208,2.6809,2.6362,2.5779,2.52,2.4946,2.484,2.4763,2.447,2.4414,2.4322,2.3868,2.3495,2.3308,2.3327,2.3833,2.4125,2.3643,2.3547,2.3547,2.3547,2.3547,2.3331,2.2939,2.3602,2.4005,2.3611,2.3877,2.4134,2.4134,2.4143,2.4152,2.4152,2.3755,2.3447,2.3456,2.3516,2.3592,2.3745,2.3665,2.33,2.2311,2.1631,2.1522,2.2123,2.2123,2.2232,2.2544,2.2232,2.2426,2.3117,2.3187,2.3228,2.325,2.3414,2.3326,2.2976,2.3096,2.3082,2.3048,2.3105,2.3106,2.3106,2.2738,2.2606,2.2606,2.2606,2.2362,2.2111,2.2006,2.2419,2.2954,2.3604,2.3265,2.2979,2.3276,2.2841,2.2478,2.2402,2.3178,2.3545,2.3056,2.4432,2.5289,2.493,2.6041,2.7044,2.7557,2.7626,2.8087,2.9106,2.8961,2.8704,2.8371,2.83,2.8011,2.7639,2.8156,2.8645,2.8882,2.8959,2.9127,2.9353,2.8954,2.8991,2.9275,2.8941,2.8991,2.9184,2.8856,2.856,2.8361,2.8279,2.7924,2.7474,2.729,2.7033,2.6644,2.6135,2.5717,2.538,2.4786,2.4763,2.4873,2.4957,2.4574,2.4342,2.4974,2.4813,2.4325,2.3467,2.353,2.374,2.3547,2.3767,2.3969,2.3969,2.3969,2.3932,2.3813,2.3987,2.4205,2.4174,2.4168,2.4242,2.4332,2.4242,2.4152,2.4152,2.3755,2.3562,2.4059,2.3776,2.3696,2.4016,2.3519,2.2823,2.2014,2.1876,2.18,2.1835,2.1827,2.1928,2.2232,2.2342,2.2528,2.2806,2.3081,2.3129,2.3039,2.3302,2.3326,2.2976,2.3096,2.3082,2.3048,2.3105,2.3106,2.3106,2.2738,2.2606,2.2606,2.2362,2.1985,2.1859,2.2601,2.3084,2.3599,2.353,2.3435,2.3435,2.3735,2.3345,2.3067,2.3403,2.4321,2.4747,2.4399,2.5596,2.6206,2.5568,2.6273,2.7056,2.7557,2.7452,2.7696,2.8407,2.85,2.8399,2.8186,2.8263,2.8116,2.7806,2.8342,2.8486,2.8419,2.8736,2.8895,2.8895,2.8973,2.8961,2.8961,2.8961,2.8961,2.8961,2.8724,2.8578,2.8351,2.8259,2.7926,2.7522,2.7441,2.717,2.6707,2.6727,2.6378,2.5806,2.556,2.5331,2.5268,2.5695,2.55,2.5182,2.5681,2.5604,2.5158,2.4412,2.4172,2.4068,2.3874,2.4067,2.4251,2.4341,2.4251,2.4106,2.3941,2.4239,2.4393,2.4324,2.4337,2.444,2.4529,2.435,2.4152,2.4152,2.3755,2.3607,2.4119,2.3876,2.3895,2.4187,2.3095,2.2387,2.2112,2.182,2.1729,2.1751,2.1697,2.1827,2.1928,2.2434,2.2694,2.2703,2.3042,2.3203,2.3148,2.3255,2.317,2.306,2.2921,2.3029,2.3096,2.3157,2.3106,2.3106,2.2613,2.2362,2.2362,2.1985,2.1734,2.1481,2.3161,2.3676,2.4236,2.4464,2.4593,2.4732,2.5004,2.4431,2.4209,2.5021,2.5539,2.5839,2.5816,2.6542,2.678,2.6211,2.6445,2.682,2.7288,2.7277,2.7577,2.837,2.8502,2.8574,2.8503,2.8194,2.8009,2.7973,2.8111,2.8111,2.7962,2.8351,2.851,2.851,2.8645,2.8791,2.8712,2.8712,2.8712,2.8724,2.8498,2.8351,2.8167,2.8179,2.7846,2.7522,2.7708,2.7447,2.7015,2.7709,2.7347,2.6609,2.6999,2.6474,2.5962,2.673,2.6774,2.6496,2.6197,2.5994,2.5693,2.5693,2.5314,2.4833,2.4637,2.4341,2.4251,2.444,2.4341,2.4042,2.3666,2.4287,2.4613,2.4044,2.4519,2.4792,2.4585,2.4433,2.4262,2.4262,2.3854,2.3604,2.4003,2.407,2.4093,2.4162,2.274,2.2079,2.2306,2.1723,2.1512,2.182,2.1702,2.164,2.1673,2.2485,2.2831,2.2806,2.3103,2.3293,2.3521,2.3175,2.3106,2.3169,2.2811,2.28,2.3106,2.3106,2.3113,2.2981,2.2362,2.2111,2.1985,2.1734,2.1362,2.1109,2.4916,2.4922,2.5113,2.519,2.4491,2.4303,2.521,2.463,2.4506,2.5703,2.6445,2.6683,2.6368,2.7322,2.7637,2.7024,2.7046,2.7369,2.8043,2.79,2.8119,2.8785,2.8521,2.842,2.8539,2.8633,2.8607,2.8351,2.8431,2.8431,2.8351,2.8431,2.8431,2.8259,2.8498,2.8498,2.8327,2.8327,2.8327,2.8327,2.8111,2.7869,2.7684,2.7869,2.7626,2.7301,2.736,2.7186,2.6973,2.7298,2.7822,2.8232,2.7955,2.7862,2.7745,2.7599,2.7177,2.6805,2.6699,2.64,2.5994,2.579,2.5411,2.5137,2.4833,2.4548,2.4251,2.444,2.4143,2.3926,2.4033,2.4177,2.4304,2.4319,2.4743,2.5004,2.5004,2.5099,2.4993,2.4778,2.4468,2.4411,2.4819,2.4568,2.4132,2.3508,2.2838,2.2156,2.1601,2.1474,2.1346,2.1447,2.1366,2.1566,2.1859,2.2511,2.2733,2.2518,2.3072,2.3464,2.3542,2.3197,2.3216,2.3497,2.3157,2.3007,2.3106,2.3106,2.2981,2.2606,2.2237,2.1985,2.1607,2.1362,2.1109,2.1109,2.5791,2.6,2.6182,2.6104,2.5652,2.5495,2.6003,2.5458,2.5386,2.6457,2.6995,2.7254,2.7275,2.7785,2.7857,2.7267,2.725,2.7595,2.8455,2.8521,2.8881,2.9664,2.9515,2.9374,2.9374,2.947,2.913,2.8351,2.8431,2.8431,2.8203,2.8203,2.8253,2.8222,2.8125,2.8148,2.8373,2.8137,2.8111,2.8179,2.7962,2.78,2.7731,2.7988,2.7835,2.7598,2.7828,2.8207,2.8442,2.8355,2.8743,2.9214,2.886,2.8593,2.8378,2.8051,2.7689,2.7349,2.6962,2.6602,2.6197,2.5994,2.5616,2.5235,2.5137,2.4735,2.444,2.4637,2.4341,2.4053,2.4152,2.4242,2.4405,2.4609,2.4904,2.5099,2.521,2.5328,2.5258,2.4927,2.4613,2.4562,2.4637,2.4208,2.3754,2.3283,2.2518,2.1857,2.1617,2.1291,2.1187,2.1378,2.121,2.1218,2.141,2.2368,2.2634,2.2196,2.3013,2.3336,2.33,2.3006,2.3012,2.3383,2.3058,2.2943,2.3106,2.3106,2.2856,2.2606,2.2237,2.1859,2.1607,2.1235,2.1109,2.1109,2.6535,2.6936,2.7278,2.7187,2.7129,2.7027,2.7053,2.6465,2.638,2.7207,2.7518,2.7834,2.8262,2.8324,2.8139,2.7696,2.7683,2.8126,2.8952,2.9195,2.9699,3.0671,3.0529,3.0406,3.025,3.0161,2.9518,2.8371,2.8614,2.8545,2.8233,2.8233,2.8245,2.8384,2.7941,2.8011,2.8469,2.8138,2.803,2.8179,2.7962,2.794,2.7976,2.8139,2.8122,2.8053,2.8477,2.9297,3.0152,2.9785,2.9902,3.0154,2.9856,2.9282,2.8757,2.8586,2.8307,2.7847,2.7221,2.6759,2.64,2.6197,2.5713,2.5342,2.5342,2.4932,2.4627,2.4833,2.4538,2.4152,2.4152,2.4396,2.4553,2.4721,2.5071,2.5368,2.5427,2.5537,2.5468,2.502,2.4703,2.4491,2.4205,2.3804,2.3403,2.3182,2.2193,2.1699,2.1892,2.1346,2.1115,2.1354,2.1076,2.0948,2.1012,2.2283,2.2664,2.2148,2.3071,2.3416,2.3205,2.2806,2.2925,2.3306,2.2837,2.2857,2.3106,2.3106,2.2856,2.2487,2.2237,2.1859,2.1488,2.1235,2.1109,2.1109,2.8142,2.8096,2.814,2.8445,2.7589,2.7144,2.7921,2.7079,2.6848,2.7921,2.8464,2.8785,2.8845,2.9427,2.9714,2.9474,2.9461,2.9685,3.0197,3.0107,3.049,3.1466,3.0667,3.0332,3.0508,2.9823,2.9444,2.9233,2.9462,2.9534,2.9462,2.9462,2.9177,2.8657,2.8657,2.841,2.7987,2.8134,2.8179,2.8179,2.7962,2.807,2.8184,2.7778,2.7934,2.8298,2.8192,2.8998,3.0188,3.0359,3.0792,3.1331,3.1036,3.0696,3.0363,2.9737,2.9026,2.8322,2.7672,2.6982,2.64,2.6197,2.5917,2.5645,2.5645,2.5235,2.4833,2.4932,2.443,2.4134,2.4152,2.4418,2.4666,2.4766,2.5561,2.6033,2.5566,2.6089,2.6082,2.5292,2.5182,2.485,2.4256,2.4122,2.3733,2.2829,2.2714,2.2379,2.173,2.1753,2.1682,2.1304,2.1051,2.1068,2.1377,2.2164,2.2553,2.243,2.3454,2.4029,2.3912,2.3268,2.339,2.3978,2.3274,2.3069,2.3106,2.3106,2.2738,2.2104,2.2111,2.1734,2.1109,2.1109,2.1109,2.1109,2.8343,2.8251,2.8259,2.8407,2.7977,2.7761,2.8385,2.8023,2.7965,2.8811,2.9011,2.9164,2.9248,2.9521,2.9748,2.9784,3.0034,3.0381,3.0941,3.1132,3.1548,3.2237,3.1753,3.1392,3.1437,3.1099,3.0877,3.0707,2.991,2.9647,2.9918,2.9538,2.9511,2.9741,2.878,2.843,2.8526,2.8197,2.803,2.8066,2.8187,2.8351,2.8454,2.8729,2.8996,2.9229,2.9509,3.0171,3.0888,3.1048,3.1342,3.1527,3.1333,3.1034,3.0628,2.9937,2.9258,2.8604,2.7944,2.7371,2.6864,2.634,2.6192,2.6035,2.5791,2.5538,2.5333,2.5137,2.4735,2.4396,2.4637,2.4812,2.508,2.5362,2.5738,2.5827,2.5838,2.6136,2.6136,2.5569,2.4937,2.4628,2.4464,2.3943,2.3487,2.2944,2.2645,2.2295,2.175,2.1574,2.1496,2.1326,2.1219,2.129,2.1449,2.2308,2.2714,2.2562,2.3442,2.3769,2.3842,2.3546,2.3551,2.3833,2.3281,2.3106,2.3106,2.3106,2.2856,2.2362,2.2111,2.1859,2.1362,2.1109,2.1235,2.1335]}]]